GFSSE_700_rhum_000.txt.gz
RH
30 29 28 26 14 5 4 4 3 3 3 3 3 3 2 2 2 3 5 5 5 6 7 7 8 8 8 8 8 8 9 9 9 9 9 10 10 10 10 13 15 15 12
32 31 31 30 21 7 3 4 4 3 3 3 3 3 3 2 3 5 5 6 6 6 6 7 8 8 8 8 8 9 8 8 9 10 10 10 10 10 11 15 15 15 10
33 32 32 32 30 11 4 4 4 4 3 3 3 3 3 3 5 6 6 6 6 6 7 8 8 8 8 8 9 8 8 10 11 11 10 11 11 11 12 14 16 16 12
37 35 33 33 34 24 7 4 5 5 5 4 4 4 4 5 6 6 7 7 8 8 8 8 8 8 8 9 9 8 10 11 12 11 11 11 11 11 12 15 16 16 17
39 39 38 36 36 39 24 8 5 5 5 5 5 4 4 5 6 6 7 7 7 7 7 8 9 8 9 9 9 10 11 12 12 11 11 12 12 11 12 14 16 16 18
40 41 42 41 39 37 41 34 13 6 4 4 5 5 5 5 5 6 7 7 6 6 8 9 9 9 9 9 9 10 11 12 12 12 12 12 12 11 12 13 16 17 17
41 42 43 44 45 43 41 41 40 28 13 7 4 4 5 5 5 6 6 6 5 6 7 8 8 9 10 10 9 10 11 12 12 12 12 12 12 12 12 13 15 16 17
41 42 42 44 45 45 44 44 41 36 34 25 14 8 5 4 5 6 6 6 6 7 7 7 8 9 10 10 10 11 11 12 13 13 13 13 13 13 12 12 13 15 16
40 42 42 42 43 44 44 44 45 44 38 30 28 21 13 10 8 7 7 8 7 8 8 9 10 11 11 10 11 11 12 12 14 14 14 13 13 13 13 13 13 14 15
41 42 43 42 42 43 44 44 44 44 43 40 32 26 22 17 13 12 12 12 12 13 13 14 14 14 13 14 13 13 13 13 14 14 15 14 14 14 14 14 14 14 15
42 41 43 43 42 42 42 43 44 44 43 43 40 32 26 22 19 17 17 17 17 17 18 18 19 19 18 17 16 16 16 16 16 16 16 16 15 15 16 16 16 16 16
43 41 42 43 43 42 42 42 42 42 43 46 45 40 33 30 28 26 24 23 24 23 23 22 21 21 22 22 21 19 18 18 19 19 18 18 18 17 17 17 17 16 16
41 41 42 43 43 43 42 42 39 37 40 47 49 47 42 40 39 37 38 38 39 39 40 36 35 34 31 26 22 22 20 18 17 17 18 19 19 20 20 20 19 18 18
42 42 42 42 43 42 40 32 23 16 26 46 51 50 48 47 47 46 45 45 45 40 39 38 38 39 40 43 46 46 41 36 32 29 24 19 18 16 16 20 22 23 23
39 40 41 41 40 36 32 29 21 22 20 33 46 49 48 47 44 44 43 42 46 47 47 48 49 51 52 53 52 51 50 50 50 50 48 47 42 36 29 19 14 15 20
37 38 38 38 37 37 37 35 26 28 26 24 26 30 34 37 36 38 42 45 47 47 47 48 48 48 48 48 47 48 49 49 50 50 49 47 47 50 52 42 36 33 26
38 37 38 39 40 39 38 35 28 30 30 28 25 27 28 29 30 31 37 44 47 50 53 58 59 59 53 49 48 48 48 46 45 46 48 45 43 42 46 50 47 40 41
38 37 37 35 34 33 32 31 26 31 28 26 25 28 29 30 32 34 35 37 42 44 46 46 46 45 46 48 47 46 46 42 41 41 41 41 41 40 39 40 49 48 44
33 32 28 26 25 25 26 27 28 27 25 24 26 30 33 35 38 40 42 40 40 39 37 37 37 38 39 39 38 38 38 38 37 36 35 35 34 33 31 31 33 39 49
32 30 27 28 28 27 26 25 26 28 30 30 31 33 38 42 43 41 40 39 39 38 39 40 40 40 41 40 38 36 35 35 35 36 36 35 35 36 37 41 44 45 40
31 28 28 28 29 29 30 30 30 29 28 27 27 30 34 37 37 37 37 37 38 39 41 44 45 44 43 45 42 37 35 31 29 34 28 31 32 32 30 30 72 44 56
30 31 31 32 32 31 31 30 29 28 28 28 30 32 33 34 35 37 39 42 45 46 46 47 48 47 46 48 44 39 30 21 27 33 34 28 32 34 34 51 87 82 72
35 35 34 34 32 32 32 29 28 31 36 37 38 39 41 43 46 48 48 47 48 50 52 51 48 44 37 34 35 40 40 34 27 29 28 30 32 38 41 40 44 49 50
37 36 34 34 33 29 26 25 32 40 42 44 45 46 46 44 46 49 53 56 55 46 38 32 27 26 27 28 29 32 34 40 42 30 31 31 32 35 37 37 39 42 46
37 36 34 29 27 28 34 43 48 47 44 39 36 37 43 52 58 57 46 30 18 15 18 22 25 27 29 32 36 40 42 40 39 38 28 32 33 28 28 24 23 21 20
37 35 32 28 29 34 42 50 49 47 48 49 47 46 45 41 34 30 29 35 18 19 23 25 26 29 33 38 40 40 39 37 34 31 29 28 26 26 24 24 21 18 23

GFSSE_700_rhum_003.txt.gz
RH
32 30 29 28 27 13 4 4 3 3 3 3 3 3 3 2 2 3 4 5 5 6 7 8 8 8 8 8 8 8 8 8 8 8 9 10 10 10 10 9 11 13 14
34 32 31 30 29 19 5 4 4 3 3 3 3 3 2 2 2 4 5 5 5 6 7 7 8 8 8 8 8 8 8 8 7 9 10 10 10 11 10 10 13 14 13
38 36 34 33 32 29 12 5 5 5 3 2 2 2 2 2 3 5 6 6 6 6 7 8 10 9 8 8 8 9 8 8 8 11 12 11 11 11 10 10 12 14 14
39 39 38 36 35 37 28 10 5 5 5 4 4 4 3 4 5 6 6 7 8 8 8 9 9 8 8 8 9 9 8 9 10 12 12 11 11 11 10 11 12 15 15
40 40 40 42 39 38 43 34 13 6 5 5 5 5 4 5 6 6 7 7 8 8 8 7 8 9 9 9 10 9 9 10 11 12 12 11 11 11 11 10 12 14 15
41 42 42 43 44 43 41 42 41 28 12 5 4 5 5 5 5 6 6 7 8 7 6 6 8 9 9 9 9 10 9 10 11 12 12 12 12 11 12 11 11 13 15
40 42 43 42 44 45 45 44 41 38 34 26 13 6 4 5 5 5 6 6 6 6 6 7 8 8 8 8 9 9 9 10 11 12 13 13 12 12 12 12 11 11 13
40 43 44 43 43 43 44 44 44 43 40 33 29 23 12 7 4 5 5 6 6 6 7 7 7 8 8 10 10 10 10 11 12 12 13 14 13 13 13 13 12 12 12
42 42 44 43 43 41 41 42 43 42 41 40 37 29 25 18 11 8 7 6 6 7 8 8 9 10 11 12 12 12 12 12 12 13 14 14 14 14 14 14 14 13 13
42 43 42 43 43 41 41 41 42 42 40 38 38 37 31 24 20 15 12 12 12 12 12 13 14 14 15 14 14 14 13 13 13 13 14 15 16 16 15 15 15 15 15
42 43 42 42 43 43 42 42 42 41 40 38 38 38 36 30 24 21 18 16 16 16 16 16 17 18 18 18 18 17 17 17 16 16 15 16 17 18 18 17 16 16 16
42 42 42 41 42 43 44 43 42 38 38 36 42 43 41 36 30 26 24 23 24 25 26 27 28 29 29 32 32 30 28 24 20 18 16 16 18 18 19 20 20 19 18
42 42 42 42 43 44 45 43 37 27 19 25 42 46 44 43 38 34 31 28 28 28 33 35 38 40 42 47 48 50 48 48 46 44 42 38 34 34 31 22 17 16 19
42 42 42 43 44 44 42 37 31 30 20 21 26 41 46 47 45 43 41 40 40 38 42 43 47 48 50 50 50 49 51 51 49 46 44 43 43 46 48 49 47 44 34
38 38 40 41 42 41 36 36 36 34 24 26 24 26 34 42 44 48 48 47 46 46 48 50 50 46 47 46 45 44 43 43 43 44 44 43 41 42 44 46 47 47 48
40 35 37 39 39 38 38 39 38 37 30 28 27 25 29 35 40 43 47 50 54 55 54 49 47 44 41 38 32 37 37 41 44 45 45 43 42 41 41 43 43 43 44
34 29 40 39 39 39 40 38 37 36 34 28 28 28 30 32 37 42 47 55 53 49 51 51 46 40 35 32 33 34 36 37 37 37 35 34 32 31 30 30 33 36 40
20 34 39 39 38 35 32 32 33 34 32 31 29 28 32 35 42 47 51 52 53 49 43 38 34 32 34 37 36 36 36 36 36 36 36 35 34 32 33 32 31 31 31
36 39 37 35 31 28 28 28 29 31 30 29 28 30 37 41 48 52 54 49 43 40 37 36 36 37 38 40 40 39 36 33 31 29 29 28 27 29 58 35 29 32 33
36 36 36 32 29 29 27 26 26 26 28 30 32 39 48 52 54 51 43 41 40 38 37 38 40 43 43 37 29 25 22 21 21 21 28 18 25 31 44 32 33 95 26
36 35 30 29 28 29 30 30 30 30 30 30 30 34 40 41 39 36 36 35 36 40 44 45 37 28 24 24 20 15 14 12 16 16 21 26 26 29 25 25 54 100 99
34 31 30 30 31 31 31 31 31 30 30 30 31 32 32 34 36 38 42 46 47 41 29 24 20 15 14 13 12 12 10 9 13 16 15 15 17 18 23 37 36 26 27
31 31 33 33 34 33 33 32 31 30 31 34 38 40 43 44 46 45 38 31 27 22 20 15 11 12 12 14 16 19 17 15 13 18 18 20 22 22 22 21 25 25 27
32 34 35 34 34 29 27 28 32 38 42 44 45 43 38 33 30 29 26 22 18 16 18 14 13 14 14 14 14 17 20 25 27 21 22 18 16 15 14 14 16 19 22
34 35 34 32 27 26 28 32 40 46 47 45 43 39 31 22 19 21 18 14 11 12 12 12 13 14 15 16 18 22 24 23 20 17 8 5 4 4 4 4 4 4 8
34 34 34 30 32 34 33 39 48 52 53 48 43 34 17 15 19 20 22 14 11 12 13 14 15 15 15 17 18 17 13 7 5 4 4 4 4 4 4 3 4 5 8

GFSSE_700_rhum_006.txt.gz
RH
32 32 31 29 29 23 10 4 5 4 3 3 3 3 3 2 2 2 3 5 6 6 7 8 9 9 8 8 8 9 8 8 8 8 8 8 10 10 10 11 10 10 12
37 36 33 30 30 29 16 6 5 5 3 2 3 3 2 2 2 2 4 6 6 7 7 8 9 8 9 10 9 8 8 8 9 7 8 10 11 11 11 11 10 9 10
36 35 34 33 32 33 30 13 5 5 5 4 3 2 2 2 2 3 5 6 6 6 7 7 8 9 10 9 9 9 9 9 8 7 9 11 11 11 11 11 10 10 11
38 38 36 36 36 34 34 35 16 6 5 5 5 4 4 3 4 5 7 7 7 7 8 9 9 10 9 9 9 10 10 9 8 9 11 12 12 11 11 11 10 10 11
40 39 38 39 41 40 39 38 39 30 14 6 4 5 5 4 5 6 8 8 8 8 8 8 9 8 8 10 10 10 10 10 9 10 11 12 12 11 11 11 11 10 10
39 41 41 41 41 41 42 42 41 39 36 30 16 6 4 5 5 5 6 7 7 8 8 7 7 7 8 9 9 8 9 10 10 10 11 12 12 12 12 11 11 11 10
40 40 42 42 41 40 39 40 41 42 41 36 32 27 16 6 4 5 5 6 6 6 6 6 6 6 7 8 7 8 9 10 10 11 12 12 13 13 13 13 13 12 12
41 40 41 41 41 41 39 38 38 39 40 40 39 36 30 25 17 9 6 5 5 6 6 6 6 7 7 8 9 10 11 12 11 11 12 12 13 14 14 14 14 14 14
41 40 41 41 41 41 41 40 40 38 37 37 36 36 36 32 26 21 16 11 9 8 8 8 9 11 12 14 14 15 16 15 15 14 13 13 14 14 15 15 15 15 15
40 40 40 42 42 42 42 42 42 39 35 31 29 28 32 33 31 26 22 19 16 15 14 14 16 18 19 19 19 19 19 18 18 17 18 18 18 18 18 18 18 18 17
39 39 41 41 41 41 43 44 43 39 31 24 16 17 24 30 33 30 26 25 25 26 27 28 29 28 26 28 27 28 31 31 28 30 26 23 21 20 19 19 19 20 20
40 41 42 42 42 43 44 45 42 36 28 20 18 19 23 28 29 33 33 32 33 34 34 36 36 36 37 38 42 34 32 35 33 33 33 40 41 44 46 45 42 39 35
42 42 42 43 43 44 44 44 38 32 33 23 23 23 25 29 31 36 41 42 41 41 43 44 44 42 40 37 36 38 38 35 36 38 39 41 44 46 47 48 49 49 47
44 43 39 41 42 43 43 41 35 36 36 32 26 28 27 30 36 42 49 48 48 44 44 47 46 43 41 39 33 31 32 33 33 35 35 38 40 43 44 45 43 44 49
44 43 41 40 40 41 40 38 37 39 39 36 28 29 29 30 37 40 45 51 52 44 47 46 43 42 42 39 36 34 32 32 34 37 38 38 39 41 41 40 41 43 44
44 46 46 36 38 40 40 38 40 40 38 37 32 31 30 30 32 38 45 44 48 49 50 48 43 40 35 31 29 27 29 32 34 34 37 36 35 34 33 33 33 34 34
46 47 39 30 39 40 39 39 38 35 35 36 34 32 28 30 33 34 38 47 48 46 45 41 36 33 29 29 30 33 35 37 37 38 37 36 36 36 34 32 36 49 56
35 32 23 29 40 40 38 33 31 30 33 34 33 29 33 35 32 33 37 39 38 39 34 31 29 29 31 34 37 39 37 31 24 20 23 20 17 16 22 25 60 58 67
22 18 24 38 40 36 33 28 28 29 30 30 31 34 38 40 36 32 30 31 30 29 30 31 33 36 40 40 32 18 14 13 10 10 8 9 11 14 19 24 70 32 43
21 33 39 37 36 32 29 30 28 26 27 30 33 37 36 34 32 31 32 32 32 33 35 39 42 41 25 12 8 6 6 7 8 8 9 10 14 14 14 19 24 19 18
38 38 37 35 30 28 28 29 30 31 32 32 32 31 31 32 32 32 34 36 39 42 42 32 17 11 9 8 6 6 6 7 7 8 10 10 12 11 11 8 8 11 15
37 36 34 30 30 30 31 31 31 31 31 32 32 33 34 36 39 42 42 39 32 23 17 11 7 6 6 6 6 6 5 5 6 5 5 5 6 5 4 4 3 3 3
34 33 31 31 33 34 34 32 31 30 31 33 36 41 44 44 39 33 27 20 11 9 8 6 6 6 6 6 7 8 6 6 5 5 4 4 4 4 4 4 5 5 5
33 31 33 34 34 33 28 26 30 34 41 46 47 46 44 38 30 18 8 9 10 9 7 6 6 6 7 7 8 8 10 10 7 5 4 4 4 5 5 5 6 6 6
33 33 35 35 32 27 30 31 34 43 48 50 52 46 37 24 9 7 10 10 10 8 6 6 7 8 9 9 9 9 10 7 6 6 6 6 6 6 7 7 7 6 5
34 35 36 35 31 34 36 36 38 43 50 52 49 41 27 10 6 10 11 10 8 7 7 8 9 9 9 10 10 10 9 7 7 7 8 8 8 8 8 8 6 4 3

GFSSE_700_rhum_009.txt.gz
RH
35 34 33 31 29 28 22 10 5 5 4 2 3 3 3 3 2 2 2 3 5 6 6 7 8 9 10 9 9 9 9 8 8 8 9 8 8 10 11 11 11 11 11
35 33 31 32 31 30 29 21 7 5 5 4 2 2 3 2 2 2 3 4 6 6 7 8 9 9 9 9 10 9 9 9 9 9 8 8 9 11 11 11 11 11 10
36 35 33 32 34 35 33 34 26 8 5 5 5 4 3 2 2 2 3 6 7 7 7 7 7 8 9 10 10 9 9 9 10 9 8 9 11 12 11 11 11 11 10
39 38 36 34 35 38 39 37 37 37 26 10 5 5 5 4 4 4 6 7 7 7 7 8 8 9 9 9 9 9 10 10 10 10 9 10 11 12 12 12 11 11 11
40 39 38 35 37 38 37 39 39 39 38 35 28 11 5 5 5 5 6 7 7 8 8 9 9 8 8 8 9 10 10 9 9 9 9 10 11 12 13 12 12 12 12
40 40 38 36 38 38 35 35 36 37 38 39 38 33 28 14 5 5 5 6 6 7 7 8 8 7 6 7 8 8 8 8 9 10 10 11 11 12 13 13 13 13 13
42 40 38 38 38 38 37 36 36 35 34 35 36 37 36 31 26 21 10 6 5 6 6 6 6 7 7 8 8 9 10 12 12 12 12 12 12 13 13 14 14 14 14
41 41 40 39 40 41 39 38 38 36 34 30 29 28 30 33 32 27 23 18 12 10 8 9 9 10 12 13 14 15 15 16 16 16 16 16 15 14 14 14 15 15 15
40 41 40 40 42 42 41 41 42 38 32 27 22 15 15 22 28 29 25 22 19 17 17 17 18 19 20 21 21 21 21 20 20 19 18 18 19 20 20 20 20 19 19
40 41 40 41 43 42 42 43 43 38 29 26 17 14 14 18 24 28 27 27 26 27 29 30 31 30 30 30 28 26 27 27 28 28 30 33 30 26 22 20 20 20 21
40 40 39 42 43 42 43 44 44 38 29 28 17 20 21 19 21 28 29 31 30 32 33 36 36 36 36 35 36 36 37 38 36 37 41 44 42 40 36 40 41 40 40
40 40 42 42 43 43 43 43 41 36 32 32 23 22 23 22 24 27 28 28 30 33 34 37 38 39 38 38 39 37 36 33 33 33 34 36 36 36 40 41 45 48 46
41 42 43 43 41 40 41 40 40 36 35 36 33 26 26 23 24 27 32 37 36 37 39 39 42 38 33 30 29 29 28 28 26 25 26 29 34 39 43 44 47 47 48
42 43 44 42 40 40 39 38 37 37 36 38 37 29 28 25 26 27 29 27 28 30 32 30 29 31 32 32 31 26 24 24 26 27 30 31 33 32 33 58 58 58 58
43 44 45 44 43 40 37 37 37 36 37 38 38 34 29 28 28 28 27 29 28 28 28 29 30 30 26 24 25 24 27 30 34 37 38 37 36 34 33 36 65 73 71
41 42 43 46 45 38 36 39 39 38 37 35 36 34 31 31 32 30 32 35 30 29 29 26 24 23 23 24 28 31 35 37 38 38 36 32 28 27 28 27 29 51 63
38 41 44 47 43 31 37 39 40 39 33 32 33 34 32 34 33 32 32 33 31 26 27 27 27 28 29 32 35 37 35 27 16 10 9 10 11 12 12 12 12 18 72
30 33 38 35 29 26 36 40 39 33 29 30 33 35 36 35 35 35 35 30 29 30 30 30 32 34 36 34 24 16 8 7 7 6 6 7 7 7 8 10 12 13 16
24 25 24 23 22 28 38 38 35 28 30 31 34 38 37 37 35 33 31 32 32 32 35 37 38 30 16 9 7 6 6 6 6 6 6 6 7 8 9 9 11 14 17
19 19 22 22 34 37 37 34 29 30 27 29 33 37 36 34 33 32 34 35 38 40 39 31 18 11 8 6 6 5 5 5 5 5 5 6 6 5 6 6 7 7 8
22 24 33 39 38 37 32 28 28 30 32 33 33 33 34 34 34 37 42 43 38 28 18 8 6 7 6 5 5 5 5 4 4 5 5 5 4 4 4 4 3 4 4
39 39 38 38 36 30 30 31 32 32 32 33 34 34 36 39 44 44 38 31 20 8 7 8 8 6 5 5 4 4 5 6 6 6 5 5 5 4 5 5 5 5 5
39 39 37 34 31 30 32 34 33 32 31 32 36 42 47 47 44 37 24 9 6 8 9 8 6 5 5 5 6 6 7 7 7 6 5 5 5 6 6 7 7 7 8
39 36 33 32 32 34 34 30 27 31 36 42 48 50 51 46 36 20 5 5 8 9 9 7 6 6 5 6 7 8 9 9 8 7 7 7 7 8 8 9 9 10 10
38 35 33 34 35 34 28 31 33 36 39 44 50 52 47 36 21 8 5 7 9 10 8 7 7 7 7 8 8 9 9 9 9 9 8 9 10 10 10 11 12 12 12
37 35 35 37 36 31 36 39 40 40 42 46 47 41 31 19 11 7 7 8 9 9 8 8 8 9 9 10 10 11 12 10 10 10 10 10 10 10 11 11 12 11 11

GFSSE_700_rhum_012.txt.gz
RH
31 31 30 29 30 31 30 22 8 5 5 4 2 3 3 3 3 3 3 3 3 4 5 6 6 7 7 8 8 8 8 9 9 8 8 9 8 8 11 12 11 11 11
32 34 32 32 32 34 33 32 33 20 7 5 5 4 2 2 2 2 2 3 4 6 6 6 7 7 8 8 9 9 8 8 9 9 10 9 9 10 12 12 11 11 11
36 37 34 34 34 35 36 36 35 36 34 22 7 5 5 4 3 2 2 4 6 6 6 6 6 7 8 9 9 9 9 9 10 10 10 10 10 11 12 12 12 12 12
37 39 36 36 36 35 33 32 35 38 38 36 34 23 8 5 5 5 5 6 6 7 7 8 8 9 9 9 8 9 10 10 10 10 10 10 10 11 12 13 13 13 13
40 39 38 35 35 36 34 32 31 32 34 36 37 35 32 25 9 5 5 6 7 7 7 8 8 8 8 7 8 9 9 9 9 9 9 10 11 12 12 13 13 13 13
41 40 38 37 36 38 36 34 34 32 32 31 32 33 35 33 30 24 8 5 5 6 7 7 7 7 7 7 8 8 8 9 10 11 11 12 12 12 12 12 14 14 14
42 42 39 38 40 41 39 37 37 34 28 27 24 24 25 29 32 30 23 16 10 8 7 7 7 8 9 10 10 12 14 15 15 15 15 14 14 13 14 14 14 14 15
40 41 40 40 41 42 41 40 40 36 28 24 21 13 12 13 22 27 27 23 20 17 15 14 14 15 15 16 17 18 18 20 20 20 20 19 19 18 17 17 18 17 16
40 41 41 40 42 42 42 42 42 39 30 23 19 14 14 12 16 22 24 24 23 22 22 23 25 26 27 28 27 27 27 26 26 28 30 31 29 28 23 21 21 20 21
40 41 41 40 42 43 42 43 43 40 31 25 21 18 20 18 16 18 22 24 23 24 25 26 29 29 30 29 29 30 31 30 31 33 36 37 36 35 36 36 33 35 32
41 41 41 40 43 43 43 43 42 39 33 29 25 18 22 22 22 22 24 25 25 26 26 28 30 30 32 32 32 32 30 30 29 30 31 33 34 36 36 38 41 42 41
44 41 40 42 44 43 43 41 38 37 35 32 29 24 22 24 24 26 27 27 26 27 27 29 30 30 30 30 30 30 29 27 26 24 24 26 29 29 31 34 66 56 47
43 43 42 43 44 42 41 39 35 35 36 34 35 34 22 26 25 27 26 26 27 28 28 29 30 30 29 27 24 20 19 20 22 25 28 30 30 28 27 29 45 67 72
40 42 42 44 44 41 42 39 36 35 35 36 37 36 32 27 27 25 26 28 27 27 27 28 26 23 21 22 22 23 26 29 32 34 34 33 33 33 34 33 33 34 50
42 42 43 44 44 45 45 41 36 37 36 36 35 35 35 31 30 28 28 29 29 30 30 26 24 25 27 27 28 30 34 36 35 29 23 18 15 13 15 15 15 18 24
41 36 43 45 45 46 46 38 36 37 38 36 31 31 33 35 33 34 34 33 32 31 28 27 28 28 30 33 35 35 32 22 12 7 6 7 7 8 9 9 10 9 10
34 36 39 43 44 47 43 34 34 39 38 35 29 31 34 38 38 39 37 36 32 32 30 29 32 36 37 34 23 13 10 8 7 7 6 6 6 6 7 8 9 9 8
25 31 36 40 43 42 34 30 34 40 38 33 30 33 40 42 42 40 39 36 34 32 32 38 39 35 22 11 8 8 7 6 6 6 6 6 6 6 6 7 8 8 8
31 29 32 30 31 30 26 29 39 39 36 31 33 39 40 44 42 37 37 35 34 39 40 37 25 14 6 6 7 6 6 5 5 5 5 5 5 6 5 5 5 5 5
25 24 26 28 26 24 26 41 39 36 31 31 33 37 41 40 39 39 38 40 43 41 33 22 9 6 8 8 7 6 5 5 4 5 6 6 6 5 5 4 4 4 4
25 24 24 28 24 25 40 38 35 29 29 33 34 38 36 36 36 40 45 44 39 31 14 6 8 8 8 8 6 5 5 5 6 7 7 6 6 6 5 5 5 5 5
28 24 26 27 36 40 38 32 30 31 33 34 35 36 36 38 45 48 46 38 22 6 6 8 9 9 8 6 6 6 6 7 7 8 8 8 7 7 7 7 7 7 7
30 33 38 40 39 34 32 31 32 34 34 32 34 38 46 50 52 48 38 21 6 7 9 10 10 9 8 7 6 6 7 8 8 9 9 9 9 9 8 8 8 8 8
37 41 40 38 34 32 32 34 35 32 32 37 43 48 54 55 49 38 21 10 8 8 9 10 10 9 8 7 8 8 8 9 9 9 10 9 9 9 9 9 9 9 9
40 40 38 35 33 34 35 34 31 35 38 42 47 51 51 45 35 24 16 10 8 8 9 10 10 10 9 9 9 9 10 10 11 12 10 10 10 10 10 10 10 9 9
42 40 36 34 34 36 34 33 38 41 42 45 48 48 44 37 31 24 17 12 10 10 11 11 10 10 10 10 11 12 12 13 12 12 11 11 12 11 11 11 10 10 9

GFSSE_700_rhum_015.txt.gz
RH
31 30 29 27 29 32 33 34 32 18 7 5 5 4 3 3 3 3 3 3 3 4 5 6 6 6 7 7 7 7 7 8 9 9 9 9 9 9 10 12 12 12 11
32 31 32 30 30 33 35 36 36 36 34 23 9 5 5 4 2 2 2 3 4 5 6 6 6 7 8 8 8 9 9 9 9 9 10 10 10 9 11 12 12 12 12
34 36 35 32 31 32 31 31 33 35 36 36 34 23 8 5 5 4 3 4 5 6 6 6 6 7 7 8 9 9 9 9 10 10 10 10 10 10 11 12 12 12 12
36 37 36 34 34 33 31 31 30 31 32 35 37 35 32 21 6 5 6 6 7 7 7 8 8 8 9 9 9 9 9 10 10 10 9 9 9 10 11 12 12 13 13
39 40 38 36 35 34 34 33 33 30 30 28 30 32 34 33 29 12 6 5 6 6 7 7 8 8 8 8 8 8 8 8 8 8 8 9 10 10 11 12 12 13 13
40 41 40 37 38 39 38 36 36 32 27 24 23 22 24 28 32 28 23 12 6 6 6 6 7 7 7 7 7 7 8 9 10 11 12 13 13 12 12 12 13 13 14
41 42 41 39 40 42 41 39 38 35 27 22 18 13 11 13 23 30 27 22 18 14 11 8 7 8 8 9 10 11 13 14 16 16 16 17 17 16 15 14 14 14 14
40 41 42 40 41 42 42 41 40 37 30 24 18 15 14 10 11 19 25 25 22 20 18 17 17 17 18 19 19 20 22 23 24 23 23 22 21 20 19 19 19 18 18
40 41 41 42 41 43 42 42 41 37 33 28 22 18 19 18 15 15 16 18 21 22 23 23 25 26 26 26 25 26 26 26 28 29 29 29 29 29 27 25 23 22 20
40 41 41 42 41 43 43 42 41 38 35 31 26 20 21 21 22 21 21 20 23 25 24 25 25 27 28 29 28 29 28 28 29 29 30 30 31 32 33 34 35 35 35
41 40 41 42 41 44 44 43 40 36 35 33 29 28 21 24 24 25 25 26 28 29 28 28 28 29 29 29 29 30 30 30 29 27 26 25 25 25 28 32 54 63 46
45 43 42 42 41 45 45 43 39 35 34 34 32 32 30 23 26 26 26 28 30 29 27 28 30 30 31 32 31 27 23 21 20 22 24 25 27 28 27 27 31 40 62
46 44 43 42 44 45 45 42 41 37 36 34 35 35 33 28 26 27 27 28 28 29 29 30 31 31 29 28 26 26 26 27 29 31 33 32 33 33 34 34 34 34 34
44 43 43 43 44 45 44 43 42 39 37 36 38 38 35 36 30 30 28 29 29 30 31 30 26 25 26 27 27 30 32 33 33 32 29 21 14 11 10 10 14 15 22
42 42 45 44 44 45 44 44 44 40 37 37 38 38 36 38 37 35 31 31 31 33 32 29 28 28 28 31 34 34 29 18 11 9 9 7 6 7 7 7 7 7 9
45 36 44 43 44 44 44 45 44 40 38 39 37 39 35 39 41 38 34 35 34 34 32 30 28 30 37 36 31 20 11 8 7 7 7 6 6 6 6 6 6 6 6
53 53 49 45 42 44 44 45 43 39 36 39 38 36 34 40 42 38 38 37 34 34 33 30 36 38 32 22 12 8 7 7 6 6 6 6 6 6 5 5 5 6 6
40 39 41 40 41 41 44 45 42 34 36 40 39 34 37 44 43 42 39 36 35 32 34 41 39 32 22 9 7 8 7 7 6 6 6 5 5 5 5 5 5 5 5
47 46 42 35 40 40 41 42 35 34 42 42 38 39 42 45 45 42 35 32 32 38 42 39 32 18 5 7 8 8 7 6 6 5 5 5 6 6 6 6 5 5 5
39 33 29 33 39 41 34 33 32 42 44 40 38 39 38 43 42 37 33 34 42 43 40 29 9 5 7 8 9 8 7 6 5 5 6 7 7 7 7 7 6 6 6
42 39 33 27 29 37 35 30 34 43 40 39 38 39 38 37 39 34 41 46 46 41 25 6 6 8 9 10 10 8 7 6 7 7 7 8 8 8 8 8 8 8 8
42 40 34 31 30 30 30 36 44 43 39 35 37 37 36 35 39 46 49 50 42 23 8 7 8 9 10 11 11 11 10 10 8 9 9 9 9 9 9 9 9 10 10
44 36 34 30 30 31 38 43 39 35 35 36 37 34 36 44 50 54 52 40 23 12 8 8 9 10 11 11 12 12 12 12 12 11 10 11 11 11 10 10 11 11 10
53 36 36 33 36 41 39 36 35 37 36 34 35 40 46 52 55 50 38 28 18 13 10 11 13 14 15 14 13 11 10 10 11 12 13 13 13 12 12 11 10 10 10
54 40 42 42 40 37 34 35 35 36 33 37 40 46 51 51 48 40 32 25 19 16 14 14 16 16 16 15 13 12 11 12 13 13 14 14 13 11 9 8 7 7 8
56 46 42 40 37 35 34 35 36 34 40 41 44 48 49 48 46 45 41 32 25 19 16 17 18 18 17 14 13 13 13 14 14 14 13 12 10 7 6 6 6 7 8

GFSSE_700_rhum_018.txt.gz
RH
32 30 29 28 28 30 32 33 34 34 28 15 6 5 5 3 3 3 3 3 3 3 5 6 6 7 7 7 8 8 8 8 8 9 9 9 10 9 8 10 12 12 11
32 31 32 30 30 30 31 33 35 36 34 34 31 15 6 5 4 2 2 3 3 5 6 6 6 7 8 8 8 9 9 10 9 9 10 10 10 10 9 10 11 12 12
35 34 35 32 32 31 30 30 29 30 32 33 34 33 28 8 5 5 4 4 5 6 6 7 6 7 7 8 8 9 10 10 10 10 10 10 10 10 10 10 11 12 12
37 36 37 34 31 33 32 32 29 27 27 28 30 34 34 31 15 6 6 6 7 7 8 8 8 9 9 9 9 9 9 9 10 10 10 9 9 9 9 10 10 12 12
38 39 39 36 34 35 34 34 33 26 23 23 22 24 29 34 30 24 11 6 6 6 7 7 8 8 8 8 8 8 8 8 8 8 8 8 8 9 10 10 11 11 12
39 40 41 38 39 40 38 36 36 32 25 20 16 14 13 20 30 30 25 20 15 8 6 6 6 7 7 8 8 8 8 8 9 9 10 12 13 13 13 13 12 12 12
40 40 42 40 41 42 40 40 39 35 29 24 18 15 13 11 15 24 27 24 20 18 16 14 12 11 10 10 12 13 14 15 17 17 18 18 18 17 17 16 16 15 14
40 41 42 42 42 43 42 41 41 37 32 29 23 18 18 16 14 16 22 24 23 22 21 21 21 22 23 24 24 26 26 24 23 21 21 20 20 21 20 18 18 17 17
40 41 41 42 42 43 44 42 42 38 34 32 28 22 20 21 21 18 19 20 20 20 23 25 24 25 25 24 25 25 25 26 27 28 28 27 27 28 28 29 28 28 26
41 41 41 42 43 43 44 43 42 38 36 34 32 29 23 24 25 25 26 26 26 27 27 30 29 28 28 29 30 30 30 30 29 29 28 27 26 26 26 28 31 38 38
44 41 41 42 42 42 45 44 43 38 36 35 34 33 32 26 26 26 28 30 32 33 34 34 33 32 31 30 30 30 30 28 25 23 23 23 24 24 25 25 27 46 68
44 42 42 42 42 42 45 46 43 41 38 37 36 35 35 34 28 29 30 30 31 33 33 32 30 31 30 28 26 25 25 24 24 26 28 30 32 34 34 35 34 34 34
47 46 44 43 42 42 46 46 44 43 40 39 38 37 37 35 35 30 32 32 32 33 34 33 31 30 28 28 28 26 28 30 32 32 31 30 31 29 24 24 23 27 30
47 46 45 44 44 45 46 47 45 44 42 40 39 39 39 38 36 37 36 35 36 35 34 33 30 28 29 27 28 32 34 32 24 16 10 9 8 8 7 6 6 8 11
41 45 44 44 44 46 46 47 46 46 45 42 40 39 41 42 39 42 40 37 35 34 32 31 30 29 27 34 35 30 20 12 8 6 7 7 7 7 6 6 6 6 7
53 44 44 45 47 47 46 45 47 47 46 44 41 41 43 43 42 43 43 39 38 35 33 31 28 30 36 36 28 18 8 6 7 7 7 6 6 6 6 6 6 6 6
50 52 52 48 50 50 48 47 44 46 46 44 42 42 44 42 42 42 44 42 39 36 33 29 33 38 35 29 14 5 6 8 8 7 7 6 6 5 5 5 5 5 6
43 40 51 54 52 52 49 48 46 45 47 47 41 44 45 40 39 44 46 44 39 35 32 38 40 37 27 9 5 8 8 9 8 7 6 6 5 5 6 6 7 7 6
39 35 45 49 50 48 50 48 46 45 49 43 40 47 41 39 43 47 46 42 36 37 41 41 39 25 5 5 8 9 10 9 8 7 6 6 6 7 7 8 8 8 8
38 39 50 45 46 43 43 48 48 44 43 37 45 46 43 44 48 48 40 36 40 45 44 41 26 6 6 8 9 10 10 10 9 9 8 8 8 8 8 8 8 9 9
44 48 42 38 38 34 36 47 49 42 37 46 58 48 45 52 51 41 37 45 48 47 41 22 8 7 9 10 11 11 12 12 12 12 11 10 10 10 10 10 10 10 10
50 46 42 40 40 38 36 38 46 46 41 59 52 49 52 49 39 41 48 50 47 36 20 12 9 9 12 15 17 18 18 16 15 14 13 12 12 12 12 13 13 12 12
49 52 44 41 38 38 38 39 50 43 51 51 44 46 45 39 44 48 48 43 33 24 17 14 12 14 16 18 20 20 18 17 17 16 14 13 13 13 14 13 13 12 12
50 49 52 43 39 34 35 40 49 50 48 44 42 40 39 45 47 46 41 36 29 26 20 16 16 17 19 20 21 20 20 18 17 18 17 16 16 15 14 13 11 10 8
52 53 54 44 41 35 37 46 49 44 42 38 36 39 44 47 46 44 47 50 46 37 29 22 17 18 21 22 22 21 18 17 16 16 19 18 15 13 11 8 6 6 6
54 54 56 46 44 43 42 39 39 38 38 37 41 44 47 49 52 54 56 56 55 52 44 30 18 19 22 22 21 19 18 18 17 15 15 14 12 8 6 6 6 6 7

GFSSE_700_rhum_021.txt.gz
RH
32 31 30 29 28 28 30 31 32 33 33 27 14 6 6 4 2 3 3 3 3 3 5 6 6 6 6 6 6 7 8 8 8 9 9 9 9 10 10 9 9 11 11
32 33 34 32 29 28 28 28 29 32 35 34 34 26 8 6 4 2 2 3 3 5 6 6 7 7 8 8 8 8 8 8 9 10 9 10 10 11 10 10 9 10 11
35 36 35 32 30 30 30 28 26 27 28 30 34 33 31 14 6 5 4 4 5 6 6 7 7 7 7 8 8 8 9 10 10 10 10 11 11 10 10 9 9 9 11
38 37 36 34 32 32 32 32 29 23 22 23 24 28 33 31 22 6 6 7 7 7 7 8 8 9 9 9 9 9 9 9 9 9 9 10 9 9 8 8 8 9 10
39 38 38 37 35 36 35 34 33 28 23 19 16 16 21 31 30 22 11 6 6 7 7 7 8 8 8 8 9 9 8 8 8 8 8 8 8 8 9 9 10 10 11
41 38 40 39 38 39 38 36 35 33 28 23 16 14 12 16 28 29 24 19 13 9 7 7 7 7 7 7 8 8 9 9 9 9 10 12 14 14 15 15 14 13 13
42 41 41 41 40 42 41 39 38 34 31 28 22 18 16 13 12 22 26 24 21 19 18 16 15 14 14 14 14 15 16 18 19 20 20 20 20 19 19 18 17 16 16
42 41 41 42 42 42 43 41 40 36 33 31 28 22 20 20 17 14 17 21 23 23 23 23 23 24 24 24 25 25 24 24 23 23 22 22 24 26 27 26 25 24 22
43 42 42 42 42 43 44 43 42 39 34 33 31 29 24 22 23 22 22 22 23 23 25 26 27 26 27 27 27 28 30 29 29 29 28 28 28 27 28 29 29 30 32
40 41 42 42 43 43 44 44 44 41 37 34 34 32 31 27 25 26 28 28 30 31 32 33 33 34 29 30 30 30 31 30 28 28 26 22 21 20 20 21 22 26 88
45 42 42 43 43 44 43 45 44 42 39 38 36 35 34 35 31 28 28 29 31 32 33 33 32 32 32 31 30 29 26 24 22 22 22 23 24 26 28 29 30 31 30
45 43 42 42 43 43 43 45 46 43 42 40 39 38 37 37 37 35 32 33 33 32 32 32 32 33 32 29 27 27 27 27 26 26 28 30 32 32 33 33 32 33 35
48 45 43 43 43 43 44 44 47 44 44 43 41 40 39 40 40 39 38 37 36 33 32 32 34 33 30 29 29 28 29 32 34 33 28 21 18 15 15 12 11 12 14
48 47 46 45 44 44 45 47 47 46 46 45 44 42 42 41 43 40 40 38 36 34 34 34 33 32 32 29 28 34 35 30 20 12 8 7 7 7 7 7 7 7 7
41 43 47 47 45 45 46 47 48 48 47 47 47 45 44 44 45 42 39 40 39 35 34 34 33 32 29 32 35 33 26 15 6 6 7 7 7 7 6 6 6 6 6
47 44 44 46 48 50 49 48 47 47 48 48 49 48 45 46 46 43 40 41 40 36 35 34 32 30 37 37 34 26 11 5 7 8 8 8 7 7 6 6 5 5 5
48 53 50 47 47 51 53 52 50 47 46 47 49 50 47 47 49 43 40 42 39 38 35 32 34 39 39 33 18 5 5 8 9 9 9 8 7 7 6 6 6 6 7
52 48 50 46 41 50 53 55 53 50 47 47 50 52 48 50 47 40 41 41 41 37 33 38 42 41 33 12 5 6 8 10 10 11 10 10 9 8 8 8 7 8 8
56 54 48 42 40 45 54 56 55 52 49 47 49 55 47 51 44 41 42 46 41 35 40 45 42 33 12 6 8 9 10 11 12 13 13 13 12 11 10 9 9 9 9
58 54 47 43 43 55 53 53 54 51 50 49 52 52 48 54 44 40 46 44 36 42 45 42 29 14 8 8 10 12 14 16 17 17 16 15 14 13 12 11 11 10 10
57 55 48 43 46 55 50 52 47 46 50 54 52 61 60 66 40 46 45 38 45 45 39 27 18 12 10 11 14 16 18 19 18 17 16 16 15 14 13 13 12 12 13
50 54 49 49 47 42 40 38 40 48 59 58 59 78 98 50 52 48 40 47 47 37 29 22 19 16 14 14 17 19 20 20 19 20 19 18 16 16 15 14 14 15 14
37 52 54 48 45 43 43 40 43 50 60 55 51 94 77 57 50 41 46 46 39 34 36 35 30 22 16 16 19 22 21 21 21 20 21 20 19 18 17 16 15 14 14
38 55 56 50 49 44 42 40 42 51 58 53 68 96 52 50 41 47 45 43 51 54 54 52 46 33 18 16 19 23 24 24 23 21 20 21 20 18 16 14 13 10 8
43 57 51 51 52 48 39 40 46 64 67 91 80 53 47 42 47 48 49 54 54 53 54 54 55 51 25 13 17 22 24 24 23 23 23 21 19 16 14 10 7 7 7
57 60 51 53 54 48 43 39 45 53 61 64 54 44 42 46 49 51 53 54 55 57 58 56 55 55 25 13 18 23 24 24 24 23 21 18 16 12 8 7 7 8 9

GFSSE_700_rhum_024.txt.gz
RH
31 31 30 31 29 27 26 26 28 30 31 31 24 8 6 5 2 3 3 3 4 4 4 5 5 6 5 4 4 4 6 7 8 8 8 10 10 10 10 10 10 9 10
32 32 34 31 29 28 26 25 25 26 30 32 32 30 13 6 5 2 3 3 3 5 6 6 6 7 7 7 7 7 8 8 8 9 10 10 10 10 11 11 10 9 9
34 36 34 32 30 29 28 27 24 23 24 26 30 34 31 20 6 5 3 4 5 6 6 7 7 7 7 8 8 8 9 9 9 10 10 10 10 11 11 10 9 8 9
37 37 36 34 32 30 30 30 29 24 20 18 20 23 30 31 21 6 6 6 7 7 7 8 8 8 8 8 8 9 9 10 10 10 10 10 10 10 9 8 8 8 8
39 38 38 36 35 36 36 34 33 30 27 22 15 13 15 26 28 18 8 6 7 7 8 8 8 8 9 9 9 9 9 9 9 9 8 8 8 8 8 10 11 11 11
40 43 41 38 38 39 39 38 36 32 30 28 20 16 14 13 24 26 21 16 10 8 7 7 7 7 7 8 8 8 8 8 8 9 10 12 14 16 16 17 17 16 15
44 42 41 40 40 41 41 40 40 36 32 30 27 20 19 16 14 21 25 24 21 19 18 16 15 15 14 14 15 16 18 20 23 23 24 23 22 22 21 21 20 18 17
42 42 42 41 41 41 43 42 42 39 35 32 30 28 22 20 19 16 16 19 21 22 23 23 23 24 26 26 26 25 24 24 24 25 24 24 27 27 28 28 29 29 28
43 43 43 42 42 42 42 43 43 42 36 33 32 31 30 25 22 23 23 23 23 23 24 24 25 26 26 25 26 29 29 28 28 29 29 29 28 28 27 27 26 28 82
43 44 43 43 43 43 43 44 44 43 39 36 35 34 33 33 29 25 27 29 30 29 29 29 30 30 31 32 32 31 32 30 30 29 27 23 22 20 20 21 22 21 23
42 41 44 44 44 44 44 44 45 44 42 40 39 37 36 36 35 33 29 30 30 30 29 29 30 30 32 31 31 30 27 25 24 24 24 25 26 26 27 29 29 32 33
47 46 43 44 44 44 44 44 44 46 44 43 42 40 39 39 39 37 36 32 32 32 30 30 31 32 33 32 29 28 29 28 27 28 29 30 31 29 26 24 29 33 31
50 47 44 44 44 44 44 44 44 46 46 44 44 43 42 41 41 41 39 38 37 36 34 33 34 34 34 32 32 29 27 30 33 33 28 20 13 8 6 7 8 9 7
50 49 47 44 44 44 45 45 44 46 47 46 46 46 45 44 43 44 43 39 39 38 35 34 35 34 33 32 29 31 34 33 28 18 8 6 6 7 7 7 7 7 6
48 49 48 48 47 45 45 46 48 48 49 48 48 48 48 46 46 46 45 41 40 40 36 38 37 34 31 29 36 36 33 24 9 6 7 8 8 8 7 7 7 6 6
43 46 49 49 49 48 48 48 47 47 47 48 49 49 50 50 48 48 46 41 39 41 39 38 35 31 31 36 36 32 15 6 6 8 9 9 9 9 8 8 7 7 7
41 46 45 47 48 48 51 52 52 50 48 48 47 47 50 51 52 48 48 41 39 42 42 37 31 34 39 38 32 13 5 7 9 10 11 11 11 12 11 11 11 10 9
47 46 52 51 50 49 48 50 52 51 52 50 47 47 49 51 53 48 47 40 44 44 40 33 37 39 37 27 12 7 8 10 11 13 14 14 15 16 15 14 14 12 11
52 49 49 52 50 50 50 50 53 54 54 52 50 47 47 49 54 48 45 43 48 44 34 38 40 34 20 11 8 9 11 14 16 17 18 17 17 16 16 15 15 14 14
52 53 50 50 53 52 45 48 55 56 54 53 50 50 50 53 50 50 43 46 47 39 40 40 30 20 15 13 12 12 15 17 19 19 19 18 18 18 18 17 17 16 15
44 52 52 50 53 50 46 50 61 59 59 58 51 51 57 56 52 62 44 49 41 43 42 30 23 21 18 16 15 16 18 20 20 21 20 21 20 20 20 19 19 18 18
34 41 50 53 51 49 46 54 64 62 65 66 56 59 75 90 73 97 55 48 43 46 34 34 42 41 37 29 20 16 18 20 22 22 23 22 22 21 21 21 20 19 18
28 35 40 50 52 47 50 53 46 44 50 54 57 59 88 76 100 74 69 43 49 40 48 51 50 50 50 49 37 16 14 16 20 22 24 23 23 23 22 20 18 16 15
24 28 33 39 49 44 50 46 46 48 50 53 58 64 92 99 98 84 52 49 45 51 50 50 52 52 52 50 46 19 13 16 19 20 20 22 23 23 20 17 15 12 9
26 28 29 34 47 51 48 47 47 49 49 64 79 92 91 84 96 67 49 50 52 50 52 55 57 58 58 57 54 32 18 18 22 24 25 25 23 20 19 16 12 8 8
26 28 32 40 49 54 50 48 47 44 52 69 63 87 98 97 64 49 50 52 52 54 58 60 61 61 61 61 55 37 23 22 24 26 26 23 21 18 15 11 9 10 11

GFSSE_700_rhum_027.txt.gz
RH
31 31 29 31 29 28 26 24 24 25 27 28 28 25 11 6 4 2 3 4 4 5 4 4 5 5 5 4 3 3 4 5 7 7 8 8 9 10 10 10 10 10 10
32 32 33 32 30 28 26 25 24 23 24 27 30 30 29 14 6 3 2 3 3 4 5 6 6 7 7 6 5 5 6 8 8 9 8 9 10 10 10 11 11 10 10
33 33 34 32 29 28 27 27 26 22 19 20 23 26 30 30 14 6 3 3 4 5 6 7 7 7 8 8 8 8 8 9 9 9 10 10 10 10 11 11 10 9 8
34 36 34 33 31 30 30 29 29 28 26 20 15 16 20 28 28 12 6 6 6 6 7 7 7 8 8 8 8 8 9 9 10 10 10 10 10 10 10 9 8 8 8
37 37 37 36 34 34 34 33 32 31 30 27 20 15 12 15 26 25 14 7 7 7 8 8 9 9 9 9 10 10 10 10 9 9 9 9 9 9 9 10 12 12 13
40 40 41 41 37 37 38 37 36 34 31 29 26 20 16 14 15 24 24 18 12 8 7 7 7 8 8 8 8 8 8 8 8 9 9 11 12 15 17 18 19 19 18
42 42 43 41 39 40 40 40 40 38 35 31 28 26 21 19 16 14 20 24 23 20 18 17 16 15 15 15 15 16 17 19 20 22 22 22 21 21 19 19 19 18 18
44 43 42 41 41 41 41 41 42 41 38 33 30 29 27 23 21 19 16 15 17 19 20 20 21 22 23 22 22 22 22 23 22 21 23 24 26 26 26 26 26 26 25
44 43 42 42 42 41 41 41 42 42 41 35 33 32 30 30 26 23 24 24 24 24 24 25 25 26 27 28 28 26 28 28 29 28 28 26 26 25 24 23 22 21 22
44 44 43 43 43 43 43 43 43 43 43 39 37 36 35 33 32 30 26 26 27 28 28 28 27 27 28 28 28 29 29 29 28 26 24 24 21 20 20 21 23 25 24
42 43 44 44 43 44 43 43 43 44 44 42 40 40 38 37 36 35 33 30 29 29 29 29 29 30 29 30 30 29 27 26 26 26 25 26 26 26 24 27 29 29 28
45 44 42 43 43 43 44 44 44 44 45 44 42 42 42 40 39 37 37 35 34 32 33 31 32 33 32 32 30 29 29 28 27 27 25 30 31 29 23 18 12 10 8
48 48 47 46 44 43 44 46 44 44 44 46 44 44 45 44 42 41 40 40 36 35 36 35 36 36 34 33 32 30 29 26 30 31 30 26 18 9 5 5 6 6 6
47 49 48 46 45 44 46 44 44 45 45 45 47 46 47 46 46 44 43 42 40 36 36 39 37 35 35 33 31 28 29 32 32 30 25 11 6 6 7 7 7 7 7
43 48 50 49 47 45 45 47 47 56 49 47 48 48 48 48 49 49 47 45 43 39 38 41 38 35 34 31 28 32 34 32 24 11 6 7 8 8 9 9 8 8 7
40 43 48 49 49 49 48 46 48 49 48 47 47 49 50 49 50 51 51 48 45 41 38 40 38 36 32 30 33 34 33 20 6 6 8 9 10 11 12 12 12 12 12
45 44 46 48 50 50 48 50 50 50 49 49 48 48 47 48 49 48 52 51 45 40 38 38 37 32 32 36 33 30 16 7 8 9 11 12 14 15 16 16 16 15 15
49 48 47 46 46 48 49 49 50 51 51 51 52 51 49 48 47 49 53 51 45 40 37 38 35 32 37 31 20 12 8 9 11 13 16 18 18 18 17 16 16 16 16
56 50 48 46 48 48 50 53 52 51 51 53 53 55 54 52 50 48 49 49 44 38 40 38 33 38 29 18 14 11 11 12 14 17 18 19 19 18 18 19 19 18 18
58 55 52 48 48 48 51 51 52 52 51 52 55 58 58 56 51 48 49 48 44 41 42 34 38 30 22 21 21 18 14 14 14 17 19 21 21 20 21 20 20 20 20
50 52 51 52 47 48 48 49 51 48 45 50 61 64 64 61 58 50 50 49 46 49 38 41 34 28 41 43 43 40 34 20 15 16 20 21 22 23 22 22 22 21 21
21 32 43 50 50 47 47 49 52 49 44 55 63 65 72 69 58 66 81 91 57 49 42 41 37 44 44 41 40 40 42 34 24 16 16 18 21 22 22 23 23 23 22
22 23 25 39 47 48 49 48 50 46 43 49 63 61 61 70 66 76 93 99 76 47 47 42 48 45 46 49 51 52 50 43 37 24 17 17 20 22 24 24 23 21 19
25 25 24 29 38 47 54 47 44 45 47 52 46 48 59 70 67 91 94 100 85 50 46 51 48 53 54 55 54 56 56 52 44 37 27 22 23 25 25 23 20 18 15
25 26 25 29 32 41 49 50 43 49 51 46 48 53 66 79 80 81 99 99 60 52 52 51 54 58 60 59 57 57 58 57 50 35 24 24 26 25 23 20 18 16 11
23 26 25 28 35 32 45 45 45 53 47 46 46 50 70 85 97 93 95 87 55 53 54 55 60 62 62 60 58 59 63 60 48 28 25 26 26 22 19 17 13 11 12

GFSSE_700_rhum_030.txt.gz
RH
32 31 30 32 31 29 26 25 24 22 23 26 28 29 28 14 6 4 2 3 4 4 4 3 4 4 4 4 3 3 4 5 6 7 8 8 9 9 10 10 10 11 11
35 32 31 33 31 27 25 26 25 22 20 20 23 26 29 29 15 6 2 2 3 3 4 4 6 6 6 6 5 4 4 5 7 9 9 9 9 10 10 10 11 11 11
36 32 33 33 30 28 28 26 26 26 24 20 16 17 20 27 28 12 5 3 3 4 6 6 7 7 8 8 8 8 8 8 9 9 9 10 10 10 11 11 11 10 9
35 33 35 32 30 29 30 29 28 27 28 26 22 15 13 15 25 26 11 6 6 6 7 7 7 8 8 8 8 9 9 9 9 10 10 10 10 10 10 9 9 9 9
35 35 35 34 33 33 32 32 32 31 29 29 27 22 16 12 11 23 24 14 7 7 8 8 8 9 9 9 10 10 10 10 10 10 10 9 9 8 9 9 10 13 14
36 37 37 39 41 37 36 36 36 36 34 31 28 26 22 17 14 12 20 25 20 13 8 7 7 8 8 8 8 8 9 9 9 9 9 10 13 16 18 19 21 20 19
38 40 39 43 42 38 37 37 38 39 37 34 29 27 26 22 19 16 13 16 23 23 21 20 19 19 19 19 21 21 22 22 22 22 21 20 19 19 18 19 20 21 22
41 44 43 43 42 40 39 39 38 40 40 36 31 29 27 27 24 21 20 18 16 15 16 17 17 18 19 19 19 20 21 22 22 22 21 23 24 24 25 24 24 24 24
44 44 44 44 42 41 41 41 39 39 41 40 35 35 33 30 29 27 23 23 24 24 24 23 24 25 24 25 25 25 26 26 26 26 23 24 22 21 20 19 19 18 18
45 44 45 44 43 42 42 43 42 40 42 43 39 38 38 35 32 29 30 29 26 26 26 26 26 26 26 26 26 27 27 26 24 22 23 22 22 22 23 24 24 24 24
45 44 43 44 44 43 43 43 44 43 43 43 42 40 41 40 38 35 33 33 31 30 29 29 29 28 28 28 28 29 28 27 26 25 25 25 24 22 24 28 27 23 20
44 43 42 42 44 44 44 43 44 43 44 44 45 43 43 43 42 40 38 36 35 35 32 32 32 30 31 30 30 30 29 28 27 24 24 27 28 26 22 13 7 5 5
47 45 42 42 42 42 42 44 44 47 48 44 46 46 44 45 45 45 43 41 38 37 36 34 34 33 32 32 31 29 29 26 25 25 28 29 26 21 10 6 6 7 7
42 47 47 48 47 45 46 44 44 45 45 44 44 46 47 46 46 47 47 46 43 39 38 35 33 34 33 33 31 29 27 28 31 29 28 21 13 8 7 8 8 9 9
58 42 42 48 48 47 48 45 45 44 45 49 51 48 48 48 49 48 47 48 48 45 39 37 34 35 35 33 30 28 32 32 31 27 16 6 6 8 9 10 11 11 12
49 51 39 44 47 50 49 47 46 46 46 49 50 48 48 49 50 50 49 50 50 49 43 38 36 35 35 32 28 31 31 28 21 13 8 8 10 11 13 14 15 16 16
48 64 44 41 43 48 49 49 48 48 49 50 51 51 48 48 48 48 49 50 51 51 46 40 36 35 34 29 31 29 21 13 9 8 10 12 15 17 18 18 17 16 16
62 52 56 47 45 46 48 50 50 49 47 48 54 50 51 49 52 50 51 49 50 54 47 40 35 35 32 32 29 20 14 11 10 11 12 15 18 19 19 18 18 18 19
57 64 62 58 46 44 47 47 48 49 46 42 47 47 46 48 53 54 53 52 50 52 47 40 37 35 32 32 23 21 23 21 17 14 13 14 17 19 20 20 21 21 21
42 55 64 71 60 46 47 48 48 51 51 49 49 49 44 45 58 60 59 51 49 51 47 42 39 35 34 28 34 35 35 34 34 33 28 19 16 17 19 21 22 22 22
28 53 61 70 57 52 50 48 48 48 49 49 50 47 42 53 61 66 63 57 51 56 49 46 39 39 32 39 36 37 38 42 40 38 32 26 21 17 15 16 18 19 20
20 20 55 64 63 51 52 52 53 56 55 54 52 46 42 57 66 67 73 61 58 69 60 48 42 38 42 40 42 45 45 45 48 48 46 42 37 30 23 20 21 23 24
27 22 24 54 63 57 52 54 56 55 54 54 49 48 48 57 66 70 76 67 75 85 86 50 45 42 44 46 50 51 51 50 50 52 52 50 42 30 24 24 25 25 23
28 30 26 29 39 57 62 55 54 54 49 49 53 50 54 62 69 67 70 76 86 75 97 55 48 48 46 51 55 55 54 53 53 53 55 53 44 29 25 25 25 22 20
32 39 33 32 40 38 54 40 48 56 55 51 52 51 58 63 60 65 76 85 84 98 96 55 52 51 53 58 58 56 55 55 55 55 55 56 45 27 26 25 22 20 18
29 38 39 42 40 56 62 39 36 51 57 56 52 52 52 52 60 69 86 92 84 99 95 58 55 54 59 63 62 60 61 60 59 60 61 59 39 27 25 22 19 15 13

GFSSE_700_rhum_033.txt.gz
RH
32 32 32 32 32 28 26 23 24 23 20 19 21 25 28 27 14 6 2 3 4 4 4 4 3 3 3 3 3 3 4 5 6 6 8 8 8 9 10 11 10 11 11
34 32 32 33 33 29 32 30 24 24 23 19 16 17 22 26 27 11 5 2 3 3 3 4 5 6 6 6 5 4 4 4 5 6 8 9 9 9 10 11 11 11 11
39 34 32 34 31 30 35 34 30 26 25 25 23 15 14 18 27 25 8 4 3 4 5 6 7 7 8 8 8 8 7 7 8 9 9 9 10 10 11 11 10 10 9
40 35 33 34 31 31 33 31 30 29 28 26 26 23 15 12 15 26 22 8 6 6 6 7 8 8 8 8 8 8 9 9 9 10 10 10 10 10 10 9 9 8 8
40 34 35 34 32 36 36 33 32 32 32 31 28 26 22 16 12 12 23 23 12 7 7 8 8 9 9 9 10 10 10 10 10 10 10 9 9 8 8 10 12 14 16
38 35 36 34 39 40 39 35 34 35 36 35 31 27 25 22 17 14 11 19 25 21 14 10 8 7 7 7 7 8 8 9 9 11 12 16 18 20 20 21 20 18 17
38 37 38 38 41 42 39 36 35 36 37 38 33 28 25 24 23 19 16 12 14 20 23 23 22 21 21 21 21 21 20 19 18 16 15 16 17 18 20 22 23 22 24
39 39 41 43 43 42 40 38 36 34 36 39 37 34 32 26 25 24 22 21 20 19 17 16 17 18 19 20 21 21 22 21 21 22 23 22 23 23 24 22 21 20 20
44 42 44 44 43 43 41 41 41 39 37 38 40 37 36 33 29 26 26 25 23 23 24 23 23 23 23 24 23 23 24 23 23 23 22 21 20 20 21 21 21 22 22
46 44 46 44 44 44 42 42 42 42 42 42 42 40 39 38 36 33 30 28 29 28 25 26 25 25 25 25 25 25 26 24 24 24 24 24 24 23 23 22 21 23 24
44 44 46 46 45 44 43 44 44 44 43 43 44 44 41 42 42 41 38 34 32 31 30 29 29 28 27 27 26 27 27 26 26 26 26 24 22 21 27 26 23 18 11
45 44 46 45 44 44 44 44 44 44 44 44 43 45 45 44 45 46 45 43 39 35 33 32 30 29 30 29 29 30 28 27 26 24 25 25 27 25 26 21 14 6 5
47 46 44 44 44 44 44 43 43 44 44 47 47 45 45 46 46 46 47 47 46 44 39 34 33 31 31 30 30 30 29 26 24 25 28 29 27 23 15 8 7 7 8
42 43 47 46 44 43 43 44 44 44 44 46 49 46 44 46 47 47 46 48 49 48 47 42 36 33 32 31 32 31 28 25 29 29 28 25 16 9 7 7 8 9 10
36 39 42 44 46 46 47 46 47 47 46 45 45 46 51 49 48 48 48 49 49 50 49 47 42 36 33 31 32 30 26 28 28 25 20 12 8 8 9 10 11 12 13
46 40 37 40 45 42 42 47 48 48 47 46 45 52 54 49 48 48 48 49 48 48 48 50 46 40 35 32 32 28 29 27 20 13 9 9 10 11 13 15 16 17 17
55 51 46 41 40 41 41 42 46 48 49 47 46 48 49 52 51 48 47 47 47 47 48 51 49 42 36 33 32 29 28 20 16 12 10 11 13 15 17 19 19 18 18
48 59 60 50 44 43 44 42 43 47 48 49 51 51 53 53 49 49 49 50 50 49 49 49 50 44 37 34 31 30 24 21 22 21 18 15 13 14 15 18 19 20 20
54 51 62 64 54 44 46 47 46 48 49 49 48 48 45 46 43 44 50 54 53 53 50 50 51 45 39 35 33 28 30 32 31 30 31 31 29 24 19 16 17 19 20
19 44 60 73 56 53 48 47 50 60 53 52 47 44 44 47 45 48 53 58 59 57 53 53 52 47 41 37 33 35 35 33 36 38 39 40 39 36 30 25 18 16 16
16 20 56 72 79 72 62 55 51 52 53 51 50 46 47 46 45 47 53 58 61 66 58 57 55 50 42 38 38 39 39 42 45 46 46 46 47 46 44 40 35 28 24
34 26 31 72 77 79 75 68 56 59 56 60 58 55 51 51 49 48 55 60 64 68 63 62 70 55 44 41 43 43 45 48 48 47 47 48 48 49 49 47 38 29 25
36 44 37 36 66 75 69 75 70 58 61 63 64 60 50 54 59 52 54 63 72 69 70 76 86 67 46 46 46 47 50 49 49 48 48 49 51 53 54 50 37 28 25
22 36 45 48 49 68 70 77 78 67 52 52 53 54 58 64 62 59 57 73 77 72 78 86 75 90 50 49 49 52 55 55 52 51 52 54 56 55 56 49 33 26 24
27 29 30 36 44 53 64 69 77 80 66 60 63 63 65 65 65 63 62 76 78 81 88 85 82 91 54 51 50 55 58 56 55 56 55 59 60 60 57 40 27 25 23
22 27 46 46 34 40 53 63 70 73 74 61 59 64 62 64 63 65 66 74 74 92 97 90 95 92 67 53 53 58 60 59 60 60 58 58 56 58 56 30 26 23 19

GFSSE_700_rhum_036.txt.gz
RH
32 32 32 32 33 30 33 30 24 22 23 19 18 20 24 26 25 10 4 2 3 4 5 4 4 4 3 3 4 4 5 6 7 8 7 8 8 8 10 10 11 11 12
32 33 33 33 33 30 35 36 33 28 23 23 22 16 16 20 25 22 6 3 3 3 4 4 5 6 7 6 5 4 3 3 4 4 6 8 9 10 10 11 11 11 11
37 33 33 34 33 32 35 34 31 28 27 26 24 22 15 14 20 25 14 6 4 4 5 6 7 8 8 8 8 6 6 6 6 8 9 10 10 10 11 11 10 10 9
39 35 33 34 31 32 37 37 31 30 30 29 27 25 22 14 12 19 24 16 7 6 7 7 8 8 8 8 8 9 9 9 9 10 10 10 10 11 10 10 9 8 8
40 36 34 35 32 36 39 36 34 32 34 35 32 28 25 21 15 11 15 24 20 11 7 7 8 9 9 9 10 10 10 10 10 10 10 9 9 8 9 11 14 18 20
42 37 35 35 34 40 40 36 36 36 37 37 35 30 25 24 21 16 12 13 23 24 21 16 13 10 9 9 9 9 9 10 11 15 19 20 20 21 20 20 18 18 19
41 37 36 36 40 43 40 38 37 36 34 37 38 33 30 25 24 22 19 16 13 14 19 22 22 22 22 21 20 19 17 16 15 17 18 20 21 22 23 22 22 24 23
41 38 38 38 42 43 42 40 38 38 36 35 37 38 36 32 25 24 24 22 21 21 20 19 19 19 20 20 20 20 19 20 21 22 22 22 22 23 22 21 20 20 20
42 39 40 41 44 44 43 42 40 40 40 40 40 40 38 35 32 29 25 26 26 24 24 24 23 23 23 22 22 22 22 22 23 22 22 21 22 24 24 23 24 24 24
46 41 43 44 45 44 45 43 42 42 43 41 42 43 41 41 41 38 35 31 28 27 27 27 26 26 26 26 25 24 24 24 25 25 25 24 24 22 22 22 23 26 25
47 45 49 46 46 46 45 44 44 44 45 44 44 43 44 43 44 45 45 42 38 34 32 30 28 28 28 28 27 26 26 26 27 26 25 23 22 23 26 26 25 22 16
44 52 45 46 48 47 45 44 44 45 44 45 44 44 44 45 45 46 47 47 46 45 42 37 33 31 30 29 28 27 29 28 27 25 25 26 25 27 26 23 17 11 7
46 48 48 48 47 46 45 45 46 45 45 45 45 47 47 45 47 46 46 48 48 49 48 46 42 37 33 31 30 29 30 28 25 26 29 28 27 24 17 11 8 8 8
45 43 46 48 47 46 46 45 45 44 44 44 45 47 49 47 45 46 48 48 49 48 49 49 47 44 38 34 31 30 30 27 27 29 26 24 20 14 8 7 8 9 10
47 45 43 42 45 48 48 46 46 46 46 47 46 46 46 47 50 50 48 50 49 49 49 49 50 49 44 38 34 31 31 28 28 24 17 12 10 9 9 10 12 13 14
44 41 42 36 33 39 43 47 49 49 48 48 48 47 46 47 53 51 49 49 49 48 48 49 50 50 49 43 36 34 31 29 26 19 13 11 10 11 13 15 17 18 18
49 51 42 35 32 30 34 39 44 48 47 47 49 48 47 50 51 51 52 51 48 48 49 48 47 47 49 46 40 35 32 29 23 20 19 17 15 13 13 15 17 19 19
46 54 56 52 42 36 32 36 41 45 44 44 49 48 48 50 52 54 52 50 51 51 49 48 47 48 50 48 42 36 32 28 28 32 32 31 31 30 27 23 19 17 17
46 52 55 56 53 45 40 43 45 47 46 45 49 51 52 50 50 47 47 48 46 48 51 52 52 51 54 51 44 38 33 31 34 32 35 38 40 41 40 39 35 31 26
51 54 64 72 62 55 57 48 50 51 49 50 50 50 47 45 48 50 49 48 48 55 59 64 64 54 57 54 46 39 34 36 36 40 42 44 44 44 45 46 46 44 41
35 49 59 71 76 66 53 46 50 51 53 50 48 52 48 48 51 56 52 46 50 64 66 67 67 58 62 58 47 40 38 39 42 46 47 47 46 46 46 48 48 48 48
24 22 21 30 59 76 66 58 58 67 58 58 61 54 54 55 57 60 58 54 56 67 70 70 68 68 74 69 49 42 43 44 47 49 49 48 46 46 48 49 48 49 48
24 28 28 24 27 73 76 75 70 79 80 63 55 54 57 55 61 68 68 62 61 65 72 73 69 75 82 81 55 47 46 47 51 53 52 49 48 49 50 51 52 51 49
16 28 35 36 32 49 70 71 71 70 72 67 60 60 59 60 65 67 66 66 67 66 76 80 73 82 83 87 75 51 51 50 54 55 54 52 54 56 58 58 57 56 52
18 21 34 45 46 49 46 55 68 70 71 76 75 75 65 61 68 70 71 68 63 64 77 89 82 89 89 92 86 55 54 54 57 59 57 56 59 62 63 62 63 60 50
21 21 19 27 44 54 62 58 58 63 67 73 79 87 73 68 69 73 72 68 65 68 76 93 91 97 90 98 89 74 59 57 60 61 59 60 62 65 68 69 67 58 39

GFSSE_700_rhum_039.txt.gz
RH
38 34 32 31 33 33 34 34 32 28 24 23 19 16 18 23 26 23 8 3 3 4 4 5 4 4 5 6 6 7 8 9 10 11 11 9 8 8 9 10 11 12 12
32 33 32 33 33 33 35 35 32 28 27 26 24 20 15 16 21 24 15 5 3 3 4 4 7 7 6 5 4 4 4 5 5 5 5 7 9 10 10 10 11 11 11
38 33 33 34 33 34 36 37 31 30 30 28 26 24 20 14 14 21 22 9 5 4 6 6 7 8 8 8 7 6 5 5 6 7 9 9 10 10 10 11 11 10 10
35 35 33 34 32 34 38 36 33 32 32 33 33 28 24 19 13 13 22 20 9 7 7 8 8 8 8 8 9 9 9 9 10 10 10 10 10 11 11 10 9 9 10
38 36 34 34 32 36 40 36 35 35 35 36 35 33 28 24 17 12 12 21 21 13 8 7 8 8 9 9 9 10 10 10 10 10 9 9 9 9 10 14 18 20 21
45 37 35 35 33 39 41 37 37 36 36 36 36 34 29 25 23 19 14 12 19 24 22 19 17 16 16 16 17 16 18 19 20 20 21 20 20 20 18 17 17 17 20
42 40 36 35 36 42 41 39 39 38 36 35 36 37 36 31 24 23 22 19 16 14 15 17 18 18 17 17 16 16 17 18 17 18 18 20 21 22 22 22 22 23 21
44 40 37 37 40 44 42 41 40 39 39 38 38 40 39 34 31 25 23 23 22 22 21 21 21 21 20 20 20 21 21 21 22 22 22 21 21 21 21 21 21 22 22
46 42 39 38 40 44 44 42 42 40 41 41 40 42 41 40 38 35 30 26 24 24 24 24 24 24 24 24 25 24 24 24 24 24 24 23 24 24 23 23 23 23 24
39 45 40 40 41 45 45 44 43 42 42 44 43 43 42 42 43 45 44 41 36 31 28 26 27 27 27 27 26 26 26 26 26 26 25 24 23 23 23 22 23 25 26
41 47 43 42 42 45 46 46 44 44 44 45 45 44 44 44 44 46 47 46 46 44 41 37 33 30 28 28 28 28 28 28 28 27 25 23 23 26 26 26 25 24 20
37 45 52 50 52 50 47 47 45 45 45 45 45 46 45 45 45 45 46 48 48 49 48 46 43 39 35 32 30 29 28 29 28 26 25 26 27 28 26 23 18 14 10
49 48 51 55 53 51 49 48 46 46 46 46 46 46 46 48 47 46 46 48 48 49 50 49 49 47 44 39 36 32 30 29 28 26 27 27 25 22 20 14 8 8 8
44 46 46 49 49 48 48 47 47 46 47 46 45 46 46 49 49 47 46 48 49 49 50 50 50 49 49 48 44 37 32 30 28 28 27 22 17 13 11 10 9 10 10
41 41 43 45 45 48 49 48 47 47 46 46 46 47 47 47 48 47 51 50 50 50 51 51 50 49 50 50 48 44 37 32 29 28 23 17 13 11 10 11 13 14 16
40 38 39 44 44 43 43 46 50 51 50 50 50 48 49 48 48 49 54 51 51 51 51 50 50 49 49 49 49 46 41 35 31 27 22 19 17 16 14 13 13 14 16
39 39 40 41 43 44 40 35 41 52 52 47 47 49 48 49 49 50 56 52 52 52 51 51 52 51 49 47 49 49 44 37 32 26 28 31 30 29 28 28 26 25 22
46 42 37 34 40 40 37 37 41 48 51 48 49 48 46 48 49 54 53 54 54 52 52 54 53 50 48 47 50 52 47 39 33 30 33 32 32 35 37 38 38 39 38
50 49 47 40 41 37 39 41 45 51 52 50 50 48 46 49 50 52 55 54 52 48 50 54 55 55 58 54 54 55 50 41 34 34 34 38 41 43 44 43 43 43 43
55 57 62 63 58 54 46 45 46 44 50 50 52 51 51 51 54 54 51 50 50 51 54 60 60 60 65 59 56 57 52 42 37 38 40 43 45 45 45 44 44 45 45
50 49 51 64 72 70 63 55 47 42 46 47 50 48 53 54 57 57 56 56 54 53 56 60 64 68 70 66 63 63 55 44 42 42 44 47 47 47 46 44 45 46 47
23 21 22 39 53 77 78 76 71 63 52 50 54 58 59 57 62 61 61 60 58 60 57 63 70 72 73 71 73 78 61 49 46 46 50 51 51 49 46 46 48 50 51
33 33 29 24 26 46 74 76 76 78 75 61 50 50 39 56 62 62 67 68 67 63 60 67 74 73 72 70 75 77 73 56 50 50 54 56 56 53 51 52 53 53 54
13 18 28 38 41 37 36 42 53 65 74 69 56 60 55 60 59 61 68 77 76 68 67 71 79 80 78 74 81 81 86 76 54 53 55 60 60 59 58 57 57 58 58
15 14 15 24 33 46 51 51 44 40 67 76 77 75 76 76 68 66 65 76 76 74 74 74 78 83 88 83 86 90 86 88 67 56 56 60 64 64 63 62 63 62 61
24 23 22 23 23 31 57 64 62 55 59 68 72 76 76 75 74 66 68 69 74 77 76 75 79 84 96 100 99 96 86 99 75 85 64 63 66 68 67 67 67 65 66

GFSSE_700_rhum_042.txt.gz
RH
34 36 35 32 32 33 36 35 30 28 26 26 24 20 16 17 22 25 15 4 3 3 4 4 6 5 5 6 8 9 13 15 15 12 12 10 7 8 9 10 11 11 12
32 36 34 32 33 33 35 36 30 28 28 28 26 24 18 14 18 23 18 7 4 3 4 19 15 6 7 5 4 5 5 7 8 7 6 6 9 10 10 11 11 11 11
37 33 34 34 33 34 37 37 32 29 32 33 31 27 23 17 14 19 21 13 6 5 13 34 8 8 8 8 7 6 6 6 6 8 9 10 10 10 11 11 11 11 10
39 33 33 34 32 36 40 36 34 32 33 34 35 32 28 24 16 12 19 20 10 7 8 8 8 9 9 9 9 9 9 10 10 10 10 11 11 11 10 9 9 9 12
39 33 33 34 31 38 40 36 37 35 35 34 35 34 30 26 23 16 12 19 21 14 9 8 8 8 8 8 9 9 10 10 9 10 10 12 14 17 18 20 21 20 19
40 35 34 34 32 39 40 37 38 37 36 36 35 36 35 30 24 23 19 14 14 22 23 22 22 22 22 22 21 21 21 21 20 20 18 18 17 17 16 16 16 18 20
46 44 36 35 33 41 41 39 38 39 39 38 37 39 38 34 29 24 22 22 19 17 15 15 16 17 18 20 22 22 22 22 22 23 22 22 22 22 21 21 21 20 20
40 42 38 36 35 43 42 41 40 40 40 40 40 41 41 39 35 31 26 23 22 22 22 22 22 22 22 23 23 24 24 24 23 24 24 23 23 23 22 22 23 23 23
40 39 41 37 37 44 44 43 42 41 41 42 42 42 42 41 42 44 43 38 32 26 24 24 24 24 25 25 25 25 25 25 25 25 25 25 25 25 24 23 22 24 23
35 44 44 39 38 44 45 44 43 42 42 42 45 45 44 43 43 44 47 46 46 43 39 35 31 29 27 27 26 26 26 26 26 26 25 24 24 24 23 24 25 25 25
35 37 45 42 40 41 45 46 45 44 44 44 45 46 46 45 44 46 47 47 48 48 48 47 44 41 36 33 31 29 27 27 27 27 24 23 26 26 26 26 24 22 19
40 40 46 46 44 43 44 47 46 46 45 45 46 46 46 46 47 46 46 47 48 49 50 50 49 49 48 45 41 36 32 29 29 27 24 25 27 25 23 21 17 13 10
50 45 42 46 52 50 52 53 48 47 46 46 46 46 46 47 48 49 48 47 48 49 50 50 50 50 50 49 47 45 40 34 31 28 25 26 24 20 16 13 11 10 9
41 44 49 47 50 54 55 51 50 48 47 47 47 47 46 47 48 50 49 48 49 50 50 51 51 51 50 50 50 48 46 41 35 31 28 25 22 18 13 11 11 11 12
39 37 43 50 49 49 52 50 50 49 49 49 48 47 47 48 48 49 49 49 52 51 52 52 53 52 51 51 51 50 48 45 40 34 29 25 22 19 18 16 14 13 13
38 37 40 41 41 45 46 48 50 50 49 49 49 48 49 50 50 50 49 51 54 53 52 53 53 52 51 50 50 50 50 49 44 36 30 26 26 28 28 27 26 26 25
39 39 40 40 44 41 44 46 44 45 52 53 53 54 52 52 51 52 51 51 57 54 54 54 54 54 53 52 49 45 48 52 48 39 32 30 32 31 30 32 34 36 37
41 41 41 43 45 41 38 40 46 48 56 48 51 54 53 52 51 53 52 53 58 54 54 55 55 53 54 53 51 52 50 54 50 41 34 34 34 35 39 40 41 40 40
46 46 46 44 44 44 42 39 42 48 52 48 48 51 50 52 52 52 53 57 55 56 55 52 52 53 57 57 58 59 53 56 52 43 37 37 38 41 44 44 43 42 41
52 53 54 52 50 49 43 45 43 47 51 48 49 48 48 50 52 54 54 56 58 56 52 53 55 55 60 63 59 60 57 58 55 46 40 40 42 45 46 46 45 43 42
42 53 59 60 56 57 53 44 42 38 41 44 44 52 50 52 52 56 58 62 60 57 58 58 52 51 65 67 63 62 59 60 58 50 44 44 46 48 49 49 48 46 47
22 25 39 51 54 62 58 58 56 52 57 55 55 58 60 55 53 59 63 70 67 60 60 60 59 60 67 71 69 66 62 67 63 57 49 48 50 51 52 53 52 51 52
32 29 28 28 36 45 49 45 52 61 64 68 56 53 51 52 57 62 66 70 71 69 66 68 66 68 69 74 77 74 69 72 72 66 58 52 53 54 56 57 56 55 54
18 18 28 34 33 35 37 32 34 44 57 73 78 78 73 70 60 62 63 69 76 75 73 76 79 77 82 82 88 82 80 84 84 81 75 64 56 56 57 59 61 61 58
23 21 19 20 23 36 42 45 44 36 32 46 64 65 64 71 69 68 77 73 74 74 80 83 88 82 85 94 89 96 94 94 93 84 88 79 66 67 65 62 63 64 62
23 24 26 25 24 28 33 33 50 56 58 48 41 46 49 50 68 72 75 87 82 76 70 82 83 88 89 84 80 94 94 100 97 92 91 92 85 84 76 72 67 66 65

GFSSE_700_rhum_045.txt.gz
RH
34 35 36 35 32 32 33 31 28 27 27 26 25 23 18 15 20 24 17 7 3 3 4 16 6 5 5 6 9 13 15 14 14 12 12 10 7 8 10 10 11 11 12
31 37 35 34 33 32 35 35 32 27 29 31 29 26 23 17 15 21 18 8 4 5 9 58 8 7 6 5 6 6 8 7 8 7 6 6 9 10 10 11 11 11 11
37 34 34 34 34 35 38 37 33 29 30 32 34 32 26 21 15 15 20 14 7 9 66 61 8 8 8 8 7 6 6 6 6 8 10 10 10 11 11 11 11 10 9
36 33 33 34 34 38 39 37 34 32 32 32 35 33 29 24 19 14 15 20 15 12 13 9 9 9 9 9 9 9 10 10 10 10 11 11 11 10 10 10 13 16 20
40 33 32 34 33 40 38 38 38 33 35 33 33 35 34 28 23 19 15 15 21 18 12 9 8 8 8 9 9 9 10 10 10 11 13 16 19 20 20 20 18 18 17
44 34 32 34 32 40 39 37 39 37 36 36 34 36 36 32 26 23 20 16 15 17 21 22 22 22 22 22 22 22 21 20 19 18 18 19 20 21 20 20 21 20 20
43 37 34 34 33 39 40 38 39 39 39 40 39 40 38 36 31 25 23 22 21 20 18 18 18 18 19 20 20 20 21 21 22 22 22 22 22 21 20 21 20 20 21
44 46 41 35 34 38 42 40 39 40 40 41 42 41 41 39 41 40 36 28 24 24 23 24 24 24 24 24 24 24 23 23 23 23 24 24 24 23 23 23 24 23 23
38 39 43 37 35 38 44 42 41 41 41 42 43 43 43 43 42 41 45 45 42 38 33 29 27 26 26 27 27 26 25 25 25 24 24 25 24 24 23 23 23 23 24
40 41 41 40 37 38 44 44 43 42 42 43 43 43 45 44 44 46 45 44 45 46 46 45 43 39 36 33 31 28 26 25 26 26 25 24 23 24 26 26 26 26 24
45 37 42 45 40 38 44 46 45 44 44 44 45 44 44 46 46 45 46 47 46 47 48 47 47 48 47 46 43 40 35 30 27 26 24 25 25 25 26 24 23 20 15
46 41 41 46 45 42 40 45 46 46 46 46 46 46 45 46 47 47 47 47 48 48 49 50 50 50 49 48 47 45 44 40 34 30 26 26 26 24 21 18 16 14 10
40 46 43 41 48 47 45 44 48 48 46 46 46 47 47 46 47 48 49 48 48 48 49 50 51 51 51 50 50 48 47 45 42 36 31 27 25 22 18 15 12 11 11
37 42 47 48 47 52 55 52 55 55 50 48 48 47 47 47 47 47 49 50 49 49 50 51 52 52 52 51 51 50 49 48 46 43 37 30 26 23 19 17 14 13 13
37 38 40 45 48 50 55 57 55 52 51 50 49 48 48 48 48 48 48 49 50 50 52 52 53 54 53 52 51 50 50 49 48 46 42 35 29 25 25 26 25 24 24
40 40 40 37 40 45 54 52 50 53 52 51 51 50 50 49 49 49 50 50 50 51 54 54 54 54 53 52 52 52 49 46 48 49 46 38 31 29 31 30 29 30 32
43 43 40 38 36 32 37 43 47 48 53 52 52 51 50 51 52 53 52 52 52 52 56 56 55 55 54 55 50 48 47 48 48 51 48 41 34 32 32 32 37 38 38
40 39 40 41 38 39 35 37 43 51 55 47 48 54 55 54 56 56 55 53 54 53 57 58 56 56 56 54 50 52 54 57 52 50 50 43 37 34 34 38 40 40 40
41 39 40 43 40 39 40 39 45 49 51 51 48 47 49 51 53 53 54 55 54 53 59 57 57 55 55 55 56 58 57 56 54 52 51 46 40 37 38 42 45 44 43
46 48 45 42 43 42 41 42 43 44 47 44 45 48 48 49 51 52 53 56 55 53 56 58 60 58 58 55 57 63 61 55 55 54 53 49 43 40 41 44 46 47 46
36 41 48 50 49 51 52 51 47 43 45 48 44 51 55 54 53 56 55 58 56 55 59 62 60 58 58 57 59 65 66 57 57 60 58 53 46 44 46 48 49 51 50
16 22 33 42 50 54 56 56 55 54 53 54 56 51 50 51 48 54 55 58 63 62 66 65 62 62 63 62 64 74 69 67 61 66 64 60 54 48 48 49 52 55 56
26 23 21 22 24 23 26 43 54 57 62 63 65 54 46 43 48 54 58 60 60 65 69 69 71 69 69 70 76 82 77 75 73 71 70 66 64 59 53 52 55 58 60
18 19 25 31 34 33 30 29 28 32 45 52 55 60 75 77 76 64 68 64 62 70 71 68 74 76 78 78 86 78 89 78 89 82 78 78 76 73 70 60 55 56 59
24 22 20 20 20 21 25 35 39 42 39 38 36 37 67 75 76 78 71 67 65 65 70 73 77 80 84 86 85 95 91 95 94 96 95 92 88 82 81 78 69 71 76
18 20 22 21 21 21 21 22 33 50 60 55 48 52 51 50 53 61 70 71 70 65 75 78 78 79 84 92 93 93 95 90 91 100 85 98 98 90 88 90 88 86 84

GFSSE_700_rhum_048.txt.gz
RH
32 32 34 36 31 27 29 33 28 26 28 28 26 24 21 15 16 20 17 7 4 4 5 8 6 5 6 8 12 14 14 16 16 19 18 12 8 7 9 10 11 11 11
30 33 33 36 32 34 34 36 31 27 27 31 32 29 25 19 14 16 19 12 7 7 22 10 7 7 7 6 8 10 10 10 9 8 7 6 8 10 10 11 11 11 11
34 32 33 34 34 37 36 36 34 30 29 30 32 31 27 22 17 13 17 17 12 21 37 9 8 9 8 7 6 6 7 6 7 7 9 10 10 11 11 11 10 10 10
35 32 33 33 34 38 38 36 37 31 29 30 32 33 30 25 21 16 14 18 18 16 14 9 9 10 9 9 9 9 9 10 10 10 10 11 11 10 11 14 19 21 21
37 32 32 32 35 38 37 36 38 36 32 30 31 34 32 27 23 20 16 15 19 19 14 11 9 8 9 9 9 9 10 10 9 10 13 18 20 20 19 18 18 19 18
40 33 32 33 32 39 37 37 38 38 35 34 36 35 35 30 25 22 21 18 16 17 20 21 22 22 22 22 22 21 20 20 19 18 18 19 20 20 20 22 27 21 20
45 40 32 33 32 38 38 38 39 39 38 39 39 39 36 36 32 27 23 22 22 21 20 20 20 20 21 21 21 21 21 21 21 22 22 21 21 21 21 22 22 22 23
45 40 34 33 33 35 40 39 39 40 40 40 42 42 42 39 39 42 40 33 27 25 24 25 25 25 25 25 24 24 24 24 24 24 24 24 24 24 23 23 23 23 23
42 46 43 36 35 33 42 40 40 40 40 41 42 42 43 43 43 42 40 41 43 40 37 34 32 30 29 28 26 25 25 25 25 25 25 24 23 22 23 23 23 25 25
41 39 42 40 37 34 40 42 42 42 42 42 43 41 43 45 44 45 45 44 40 43 44 45 46 45 43 42 39 36 31 28 26 26 26 24 23 25 25 26 26 25 23
42 40 42 44 40 37 36 43 44 44 44 44 44 45 42 43 46 45 46 47 46 47 48 48 47 46 46 46 45 44 42 38 33 30 27 25 25 26 24 23 21 19 16
48 46 39 37 46 41 38 42 45 45 45 45 46 46 46 44 44 46 47 47 47 48 49 49 50 50 49 48 47 47 46 45 43 39 33 29 26 24 21 18 14 12 11
33 42 45 41 46 48 44 40 44 46 46 46 46 46 47 47 47 47 48 48 48 48 48 49 50 51 51 51 50 48 47 46 47 45 42 36 30 25 22 18 15 13 12
31 32 40 44 42 43 53 48 44 45 52 49 47 47 47 47 47 47 48 48 49 49 49 50 51 52 52 52 51 50 50 49 48 48 46 43 36 28 23 22 21 19 18
32 36 34 47 48 48 50 58 58 57 57 57 51 48 47 48 48 48 48 48 49 50 50 50 52 52 54 54 52 51 51 50 49 47 45 45 42 33 28 28 29 28 27
35 34 36 36 42 42 42 50 52 58 60 58 54 51 49 48 48 48 48 48 49 50 50 50 53 54 54 55 54 53 52 47 45 45 46 46 45 37 32 31 31 31 34
44 42 38 38 42 41 37 37 43 50 56 58 57 53 51 51 51 50 49 50 50 51 51 51 53 56 55 55 55 55 49 48 49 52 49 47 47 40 34 33 32 37 39
41 44 43 40 38 36 34 32 39 37 41 50 59 61 56 54 53 52 51 52 53 53 54 52 53 58 56 56 55 53 52 51 52 54 52 47 47 44 37 35 36 39 41
37 40 41 42 40 38 38 37 33 38 41 44 45 54 60 60 60 58 56 55 54 55 54 54 55 59 57 57 54 53 54 54 54 52 53 51 49 46 41 37 39 42 44
23 29 35 38 42 44 43 42 36 39 37 41 44 43 46 54 56 57 56 56 56 55 53 52 55 61 60 60 55 55 55 55 57 54 52 53 52 50 45 41 41 44 47
14 16 19 31 39 44 45 41 43 36 37 41 41 46 50 48 57 56 55 55 58 56 55 54 56 58 61 61 60 57 56 57 58 58 54 55 58 56 50 45 44 46 48
14 15 16 18 26 36 40 40 41 43 42 43 48 52 53 53 53 59 60 60 60 58 58 57 56 59 63 64 65 62 62 61 59 65 62 57 61 60 58 53 49 49 50
19 18 17 16 16 18 22 28 35 41 41 34 34 40 46 54 57 57 52 55 55 62 63 60 64 64 67 68 69 74 67 65 63 69 70 70 68 68 66 63 59 56 54
24 23 22 22 24 26 27 28 28 26 24 23 26 39 54 59 58 57 55 59 56 61 69 66 67 70 75 72 76 75 74 73 76 73 76 75 78 82 83 79 73 70 66
22 20 20 20 21 22 23 24 27 29 29 30 32 32 39 48 52 64 76 79 72 63 62 69 66 69 73 73 76 82 86 84 82 83 82 88 92 91 91 94 87 79 77
22 19 18 19 19 19 19 20 21 20 21 27 36 41 48 52 50 45 47 71 73 71 68 65 68 72 71 79 79 84 90 92 90 93 95 92 89 96 89 94 96 87 88

GFSSE_700_rhum_051.txt.gz
RH
33 32 34 34 30 28 28 33 27 24 26 28 27 25 21 16 14 18 18 11 6 5 6 5 5 5 6 10 15 20 20 19 17 18 19 14 10 7 8 10 11 11 11
32 31 34 34 33 34 35 35 32 27 26 30 31 29 25 20 15 14 17 15 12 13 7 7 6 6 5 6 9 11 12 13 12 12 9 7 6 9 10 11 11 11 11
34 30 33 34 35 36 35 34 34 28 26 28 31 30 28 23 18 14 14 17 21 32 23 8 8 8 8 6 6 6 6 7 7 7 8 10 10 11 11 11 10 10 14
36 30 32 33 34 38 36 34 36 34 29 29 32 33 30 25 22 17 14 17 20 54 12 9 9 9 9 9 9 9 9 9 10 10 10 11 11 10 11 16 20 19 18
39 30 32 33 35 38 37 36 37 38 34 28 29 32 32 28 24 20 17 16 18 18 14 12 11 9 9 9 9 9 10 10 10 11 13 16 20 19 17 16 18 20 20
38 32 31 32 34 38 38 37 38 39 36 34 33 32 34 31 26 22 21 18 16 17 19 20 21 21 21 21 20 21 20 19 18 18 18 19 20 20 20 20 21 24 20
42 36 32 32 32 38 37 38 39 39 38 35 38 39 36 37 37 31 24 22 22 21 21 20 21 21 21 21 20 20 21 21 22 22 22 21 22 21 22 22 22 22 22
46 44 36 32 32 34 39 38 39 40 40 39 39 41 41 42 38 40 41 38 31 26 24 24 24 24 24 24 23 23 23 23 23 23 22 23 23 22 22 22 23 22 22
45 45 38 34 33 32 38 39 39 40 40 40 40 38 43 43 44 43 40 36 41 42 42 41 38 36 34 32 30 27 25 24 25 25 23 24 23 22 23 23 25 25 25
32 43 45 39 35 34 33 40 40 40 41 42 42 41 37 44 44 45 45 44 41 42 43 42 42 44 44 44 43 42 39 35 31 28 26 24 23 23 24 24 24 24 22
38 41 40 41 41 37 34 38 42 42 42 42 43 44 42 41 42 45 46 46 47 46 47 48 48 46 45 44 44 44 44 44 42 39 35 31 27 24 23 22 20 18 16
40 40 40 39 41 44 38 36 41 43 43 44 44 45 46 45 44 43 45 47 48 47 48 48 49 50 50 49 48 47 45 44 43 45 44 41 35 29 25 21 18 14 13
33 44 46 40 36 39 46 40 38 44 45 45 46 46 46 46 46 46 46 47 48 49 48 48 49 50 51 51 51 50 50 49 48 46 46 45 43 36 29 24 21 18 15
30 27 40 46 40 42 48 49 43 41 44 46 46 47 47 46 46 47 47 47 47 48 49 49 49 51 51 52 53 52 51 50 50 49 45 44 43 42 36 28 25 25 24
34 31 30 34 42 41 43 45 52 47 44 51 54 55 48 47 47 47 47 47 47 48 48 49 49 50 52 53 54 54 52 52 52 48 37 39 40 42 41 33 29 29 28
35 35 33 37 39 47 48 44 45 51 57 60 59 58 58 50 48 48 48 48 48 48 48 49 48 49 51 54 54 55 54 53 51 44 41 45 45 42 43 37 32 31 31
40 39 36 37 35 35 39 44 42 49 51 51 53 57 56 56 52 50 50 49 49 48 49 49 50 49 50 53 56 55 56 54 48 46 46 42 51 43 44 42 35 32 34
30 32 36 37 38 35 32 35 38 36 37 42 41 48 53 57 57 55 54 53 52 50 50 51 52 51 52 52 56 56 56 53 48 48 50 49 46 49 45 44 39 35 36
23 34 39 43 43 41 39 36 37 38 36 36 40 41 42 50 57 57 57 59 61 57 54 54 54 53 53 53 56 57 57 53 51 51 50 50 49 49 48 46 43 38 38
12 14 24 37 43 46 43 42 35 38 42 42 41 37 41 44 49 54 59 62 61 61 60 58 58 56 56 56 59 59 58 54 52 53 52 51 50 51 50 49 47 43 40
9 10 12 14 26 37 47 49 42 36 42 46 44 41 39 41 46 50 52 59 60 60 60 62 59 58 58 58 59 59 58 57 55 53 53 54 56 54 55 55 54 49 45
11 11 11 12 13 16 24 36 45 28 30 35 40 43 41 38 41 49 53 54 58 66 68 65 62 62 60 61 62 64 63 60 57 57 59 62 61 58 58 60 60 59 55
13 14 14 14 14 15 16 18 22 26 16 20 22 28 33 39 43 43 49 57 59 60 65 65 65 63 66 66 68 69 69 64 62 61 64 68 66 64 66 72 70 69 66
17 18 19 21 22 22 21 20 21 23 23 23 26 25 25 33 43 51 53 56 64 66 65 63 62 62 65 69 70 73 74 71 69 69 68 72 74 72 79 81 81 83 84
26 24 22 20 18 16 16 16 18 24 28 30 29 28 31 32 29 29 54 72 67 71 71 77 68 65 60 70 71 76 80 84 82 80 77 75 76 77 90 88 88 88 86
29 27 23 20 17 16 16 16 17 17 17 18 20 20 20 24 41 46 43 47 60 68 72 81 82 80 77 72 72 70 71 80 84 86 92 93 88 96 99 98 87 83 94

GFSSE_700_rhum_054.txt.gz
RH
33 32 35 32 34 33 31 32 28 24 26 27 27 25 22 18 14 15 17 14 9 7 5 4 4 5 6 11 17 20 20 21 19 16 18 18 12 8 7 9 11 11 11
31 30 34 32 34 35 33 33 30 25 25 28 30 28 25 20 16 14 15 17 17 6 5 6 6 5 6 8 11 14 16 15 13 12 11 7 6 8 10 11 11 11 10
34 29 33 33 36 36 34 33 34 31 26 27 30 31 27 24 19 14 14 17 20 10 8 8 8 8 7 5 6 7 8 8 7 6 7 8 10 11 11 10 10 13 19
33 30 32 34 37 37 36 36 34 33 31 27 28 31 31 27 23 19 15 16 21 15 10 9 9 9 9 9 9 9 9 9 10 10 10 10 11 11 14 18 18 15 14
35 31 32 34 35 38 37 37 37 36 33 29 28 30 32 29 25 22 18 16 16 19 20 20 18 16 13 10 9 9 10 10 10 11 13 18 19 17 16 17 17 20 17
36 36 31 33 35 37 38 38 38 39 36 29 31 31 33 32 28 23 22 20 18 16 15 15 16 16 16 17 18 19 18 18 17 16 17 18 18 18 18 18 18 18 20
40 35 31 32 33 38 38 38 39 39 40 37 31 36 38 36 38 37 30 23 22 21 21 21 21 21 21 21 21 21 20 20 20 19 19 19 19 20 21 21 20 20 20
40 37 33 32 32 34 38 38 39 40 40 40 37 33 37 42 41 36 36 39 38 35 31 28 26 25 24 24 23 22 22 21 21 20 21 21 21 21 21 21 20 21 21
45 45 42 34 32 32 35 38 39 40 41 41 41 39 38 40 43 45 44 36 36 38 40 41 42 43 42 42 40 39 37 34 30 28 24 22 22 22 22 23 23 23 23
42 40 44 38 34 34 32 38 39 40 41 42 42 42 41 40 40 43 46 46 45 44 45 47 45 41 40 40 40 40 40 41 41 39 37 34 29 25 23 22 22 21 20
27 31 38 45 42 36 35 34 39 40 41 42 42 43 43 41 41 40 42 43 47 47 47 48 48 49 48 47 46 45 44 42 41 35 42 42 40 36 28 24 21 18 16
28 32 35 35 38 42 41 36 35 41 42 42 43 44 45 45 43 42 44 46 46 47 47 46 46 46 50 50 51 50 49 49 49 44 43 43 44 42 38 30 24 21 18
32 29 32 38 37 38 40 44 40 37 42 44 44 45 45 46 45 45 45 45 46 47 49 49 49 49 50 50 51 52 52 52 51 49 50 45 44 40 40 38 29 24 23
29 28 31 31 37 34 33 35 44 44 39 42 45 46 46 46 46 46 46 47 47 47 47 48 49 49 50 51 52 52 53 54 52 51 51 41 38 38 40 40 35 28 28
35 34 31 30 32 41 42 39 42 48 47 43 41 44 47 49 48 47 48 47 47 47 47 47 48 48 48 50 51 53 54 54 54 53 48 40 39 43 41 41 40 33 30
37 37 35 34 33 31 34 39 42 41 44 51 53 50 50 53 56 56 49 48 48 48 48 48 47 47 48 47 49 52 54 55 55 54 46 41 41 46 48 41 42 38 33
37 37 37 37 36 34 34 36 46 47 49 48 53 53 56 56 58 57 56 53 51 50 50 49 49 48 48 49 49 50 54 56 56 56 49 39 43 44 48 46 42 41 36
36 42 39 27 33 36 37 34 37 47 44 43 43 42 42 42 48 55 56 56 58 56 53 53 52 50 50 51 52 51 53 57 57 57 52 43 40 43 43 47 46 44 40
20 23 35 37 28 25 37 43 35 40 41 40 40 37 34 31 33 38 46 56 64 65 62 60 60 58 55 55 55 55 53 55 59 58 55 48 43 42 47 46 48 47 44
15 14 16 24 35 45 41 42 38 38 44 43 41 40 40 42 41 37 38 46 53 61 66 63 62 64 64 63 62 60 56 56 60 59 58 52 51 46 45 48 49 50 49
13 10 9 10 15 22 36 50 49 35 38 43 49 51 47 46 43 44 43 42 48 52 54 57 63 64 61 63 64 63 62 60 63 61 61 57 54 54 52 48 50 52 54
10 9 9 9 10 11 15 22 34 37 24 27 30 37 48 44 37 40 42 47 47 52 57 59 57 62 68 66 64 66 65 65 64 64 64 63 60 58 59 56 55 54 57
10 11 11 12 12 13 14 14 15 18 18 14 13 16 20 36 47 40 38 40 49 55 53 60 64 64 68 72 69 67 70 66 68 68 67 67 67 64 64 64 61 67 78
11 12 14 16 17 17 18 17 18 19 22 27 22 21 25 27 30 37 43 47 44 47 54 65 77 77 74 71 70 63 64 71 71 69 72 73 74 71 71 71 73 73 75
17 18 21 22 21 20 18 17 17 16 16 19 26 28 26 21 20 21 32 42 44 60 64 64 73 81 78 79 82 74 72 74 78 75 77 77 80 78 79 84 89 88 87
27 26 25 23 20 19 17 16 15 14 14 15 18 21 22 22 21 21 21 24 35 46 50 52 61 75 84 82 78 78 79 79 77 80 80 81 87 98 99 99 100 100 100

GFSSE_700_rhum_057.txt.gz
RH
32 36 33 30 36 36 28 31 26 23 24 27 27 24 21 18 14 15 16 16 11 5 4 4 5 5 7 17 36 38 36 28 21 16 15 15 12 8 7 9 11 11 11
30 35 33 32 37 37 36 28 30 25 23 26 28 28 25 21 16 14 15 18 13 5 5 5 5 5 6 9 13 17 17 15 13 10 10 7 6 8 10 11 11 10 10
32 31 34 34 36 36 37 37 30 30 27 25 28 30 28 24 20 15 14 17 12 8 8 8 8 7 6 5 7 8 8 6 6 6 7 9 10 11 11 10 12 18 17
34 30 33 35 37 37 37 38 38 35 26 25 25 29 30 27 24 20 16 14 16 16 11 9 8 9 9 9 9 9 9 9 10 10 11 10 10 12 16 17 14 14 15
34 29 32 34 37 38 37 38 39 39 33 24 26 28 30 29 25 23 20 18 15 15 18 21 22 20 17 14 12 11 12 12 15 17 18 18 16 15 15 16 17 17 16
35 31 31 34 36 38 38 38 39 39 39 32 25 27 30 32 30 26 23 21 20 20 18 17 16 16 16 16 16 16 16 16 17 17 18 18 18 17 17 18 18 18 18
36 38 30 32 34 37 38 38 39 40 39 39 35 27 34 34 34 35 35 31 26 23 22 22 22 22 21 21 21 20 20 19 19 20 19 19 20 19 18 18 19 19 19
39 43 32 32 33 34 37 38 39 40 41 41 40 36 29 32 39 36 32 34 37 38 38 38 38 36 35 34 33 32 30 28 26 23 21 20 20 20 20 20 20 21 21
42 40 33 32 32 32 36 38 39 40 41 42 42 41 39 35 34 43 46 44 39 40 42 41 38 37 38 38 38 37 38 37 39 39 37 34 30 25 22 21 20 21 21
46 47 44 39 34 33 32 35 38 39 41 42 42 42 42 42 39 37 37 41 47 47 47 48 47 48 47 46 46 46 44 42 36 33 34 39 39 38 33 27 23 20 18
35 40 45 44 39 35 34 33 35 39 40 42 42 43 43 43 43 42 42 42 38 41 41 43 44 41 46 50 50 51 50 50 47 46 39 34 36 40 39 36 29 24 21
29 26 27 37 42 44 42 38 35 35 40 42 42 43 44 44 44 43 43 43 44 44 44 46 48 48 48 47 47 48 52 53 51 50 45 44 36 35 36 39 37 29 24
31 29 25 22 28 35 41 43 44 39 36 40 43 44 44 45 46 47 46 45 44 46 46 46 47 48 48 50 51 52 52 52 52 52 52 48 40 34 31 33 35 36 30
33 30 29 26 24 23 26 30 33 40 44 41 40 44 46 46 46 47 48 48 48 47 47 47 48 47 47 47 46 48 52 54 53 54 54 52 41 34 35 38 36 37 35
35 34 30 33 33 29 28 32 33 35 42 46 46 42 44 46 48 48 48 48 48 48 48 48 48 48 48 48 47 47 46 49 51 54 56 56 44 39 36 43 41 38 39
39 38 37 37 35 34 33 30 28 27 30 37 45 50 48 47 47 49 53 56 54 50 49 49 49 49 49 49 50 50 49 48 47 51 54 56 50 41 40 41 45 41 38
38 39 39 41 39 37 36 33 31 31 32 35 39 38 41 48 52 53 53 54 57 57 55 53 51 51 50 50 50 51 52 51 50 51 53 56 56 46 42 41 41 44 42
23 31 38 38 39 39 37 35 34 36 35 38 47 46 46 46 42 39 38 38 43 52 56 58 59 59 56 54 53 53 54 54 54 52 51 56 57 52 46 43 43 42 45
25 25 24 27 30 31 31 33 34 41 40 41 38 40 40 38 39 39 37 35 36 39 42 53 62 66 65 64 63 61 59 58 58 56 53 55 58 57 50 47 46 45 45
24 22 24 22 18 15 15 28 30 40 45 46 47 42 43 46 44 42 43 45 44 41 44 50 54 56 58 62 63 64 64 62 61 61 59 56 59 59 55 52 50 50 48
22 23 20 17 18 17 16 20 21 22 33 48 54 57 57 55 52 50 46 44 45 46 47 50 52 54 56 60 66 65 66 68 61 60 63 61 61 63 62 57 56 57 55
18 18 17 15 13 12 12 14 19 18 16 21 26 34 46 55 53 51 50 45 46 45 46 54 59 56 57 64 66 73 80 74 68 64 67 68 68 66 66 66 61 61 63
15 16 15 13 12 12 12 13 13 14 13 12 13 14 15 19 27 37 35 36 38 40 45 50 60 64 63 70 68 72 75 72 75 70 68 69 72 72 70 72 71 68 70
16 13 12 12 13 14 14 14 15 16 17 19 17 16 17 21 25 29 35 35 38 47 53 53 62 64 62 67 79 79 80 82 82 76 69 66 70 71 79 80 79 79 82
14 15 15 14 15 16 17 16 16 17 18 18 19 18 15 14 17 22 29 34 37 37 38 45 47 50 53 64 68 70 78 83 79 83 83 73 69 72 78 86 100 99 97
20 21 21 22 22 22 21 20 19 17 16 15 14 15 16 14 13 13 13 15 18 23 50 50 45 56 59 70 86 94 97 94 97 88 84 81 86 82 84 92 98 100 99

GFSSE_700_rhum_060.txt.gz
RH
37 38 37 36 37 33 28 29 24 22 22 22 25 24 21 17 14 15 16 16 8 4 4 4 4 5 7 12 44 51 54 33 18 14 13 13 11 6 7 9 11 11 10
36 38 35 37 37 38 35 29 25 26 22 23 25 27 24 20 16 14 15 16 6 5 5 5 5 4 6 8 14 14 15 14 12 9 8 6 6 9 11 11 10 10 15
34 37 35 36 37 38 39 38 35 23 23 22 24 27 27 24 20 15 14 15 10 8 8 8 8 7 5 6 7 7 7 7 7 8 9 10 10 10 10 11 16 17 14
32 34 35 36 37 37 38 39 39 37 23 22 24 28 28 26 24 21 17 14 16 17 14 10 9 9 9 9 9 9 9 10 10 10 11 11 14 16 17 16 15 16 15
34 31 34 36 37 37 38 39 39 39 37 27 23 26 28 28 26 24 22 20 16 15 16 18 19 20 20 19 18 18 18 18 18 17 17 16 16 16 16 16 17 17 17
33 30 33 35 38 38 38 39 39 39 39 38 30 24 26 28 31 29 25 22 21 21 21 21 20 20 19 18 18 18 18 18 18 18 18 17 17 17 18 18 18 18 18
35 32 31 34 36 38 38 39 39 40 40 40 38 34 25 26 29 32 34 35 33 32 30 29 28 27 26 25 24 24 23 23 21 20 20 19 19 18 19 19 19 19 19
37 35 31 33 35 36 38 39 40 40 40 40 41 40 38 31 29 35 32 31 33 35 35 35 36 36 36 36 37 37 37 38 38 38 36 33 28 23 21 20 20 20 20
37 45 34 32 33 34 37 38 39 40 41 42 42 42 41 41 37 32 34 42 44 44 43 42 42 43 42 41 42 41 41 41 38 33 31 32 37 38 35 30 24 21 20
46 43 35 32 32 32 33 37 39 40 41 42 43 42 43 43 43 41 39 37 35 39 39 40 38 37 38 41 44 47 41 46 45 43 40 34 31 34 37 38 35 28 23
47 47 44 40 36 34 33 33 34 38 40 41 43 44 42 43 44 44 44 43 43 42 42 41 41 40 41 43 44 44 42 43 49 47 45 42 39 33 30 32 36 36 30
35 33 35 43 45 44 41 37 35 34 37 40 42 43 44 44 44 44 44 45 46 46 46 46 46 47 48 47 47 49 49 48 49 51 52 50 43 37 32 29 28 31 35
32 30 29 27 28 34 40 43 44 42 37 37 40 43 44 45 46 46 47 46 46 47 48 48 48 48 48 48 48 47 47 46 47 52 54 55 52 44 34 34 36 33 33
33 31 30 28 27 28 30 33 35 36 41 44 40 40 43 45 46 47 47 48 48 48 48 48 49 49 49 50 49 48 49 49 47 45 51 55 55 54 40 35 40 41 36
35 34 33 32 30 31 29 26 24 28 34 35 44 47 43 43 46 48 48 49 49 49 49 49 49 49 50 50 50 50 51 50 49 48 46 51 56 56 51 39 38 43 42
38 38 37 35 34 36 36 33 30 28 29 29 36 45 51 50 47 46 48 54 56 58 60 57 52 51 50 50 50 51 51 52 52 51 49 49 53 56 57 46 40 40 43
37 40 41 40 38 38 37 37 35 32 30 30 32 41 43 45 48 50 53 53 52 52 54 58 60 61 59 56 54 53 52 52 52 53 53 51 51 55 57 56 45 42 42
23 27 38 40 40 39 38 38 37 35 32 30 31 33 45 47 44 43 40 36 33 31 31 31 37 48 59 62 62 64 65 60 56 55 56 56 55 55 59 59 53 48 45
25 23 22 28 38 41 40 39 40 37 31 29 28 35 38 39 42 42 42 40 40 39 37 37 34 35 41 50 59 64 64 66 69 67 63 61 60 58 58 61 60 54 52
29 26 24 22 21 25 29 30 26 18 22 29 31 36 39 45 45 40 44 49 48 49 47 46 46 45 44 46 53 57 60 62 65 67 66 64 64 64 63 64 64 61 58
30 28 27 26 24 21 19 18 17 16 20 26 35 48 50 48 48 54 57 56 56 58 58 54 54 55 55 54 57 56 58 62 63 65 71 71 68 68 71 69 68 67 67
29 24 23 23 23 24 21 18 15 13 12 14 17 23 26 31 37 38 42 45 46 47 49 49 48 50 55 60 63 71 72 69 69 65 72 77 77 77 73 74 74 71 73
25 20 20 20 20 19 18 17 14 12 11 12 13 13 14 16 17 23 24 24 24 22 25 34 48 51 60 61 62 71 73 70 76 71 68 73 76 75 74 74 76 77 77
19 19 22 21 20 17 14 12 13 13 14 13 13 15 16 19 21 23 27 30 33 30 32 35 40 45 54 69 66 71 84 82 79 88 84 80 82 80 78 74 78 83 90
18 20 20 16 14 14 14 14 14 16 17 19 20 18 18 18 16 15 17 20 29 52 45 32 30 28 30 33 54 62 69 74 99 98 96 95 91 81 85 98 86 88 94
17 17 17 17 17 18 18 19 19 19 19 19 18 17 16 14 13 12 12 14 16 18 22 26 33 49 57 61 57 58 68 82 82 90 88 84 86 92 94 95 95 99 97

GFSSE_700_rhum_063.txt.gz
RH
34 36 39 38 34 27 25 25 24 22 22 25 26 24 20 17 14 15 17 12 5 4 4 5 9 13 16 17 25 45 46 37 19 13 11 10 7 6 8 10 11 10 10
36 36 39 39 38 38 35 33 22 24 22 22 26 26 24 20 15 14 16 8 7 6 6 6 5 5 6 7 11 17 16 14 10 6 6 6 9 10 11 10 10 13 16
39 37 39 39 39 39 39 38 34 22 19 20 23 24 25 23 20 15 15 13 11 9 9 8 8 7 6 6 7 7 7 8 9 10 10 10 10 10 12 16 16 14 14
37 38 39 38 38 38 39 39 39 37 28 20 21 23 25 26 24 21 17 15 17 18 18 17 16 13 12 11 11 11 12 13 15 16 17 17 17 17 16 16 16 16 16
35 36 37 37 38 38 38 39 39 40 37 31 21 22 26 28 27 25 22 21 19 18 16 16 16 16 16 17 17 17 17 17 17 17 18 17 17 16 17 17 17 17 20
34 33 35 37 38 38 39 39 40 40 40 39 34 28 22 26 30 31 29 26 24 23 22 22 22 22 21 21 20 20 20 21 20 20 19 19 18 18 18 18 18 18 18
33 32 34 36 37 38 39 40 40 40 40 41 40 36 33 26 27 29 32 35 36 36 35 35 35 35 35 36 36 36 36 36 36 37 36 35 31 26 22 21 20 21 21
36 31 32 34 36 38 39 40 40 41 41 41 42 41 40 38 32 29 34 35 34 35 35 36 36 37 37 39 40 40 41 39 37 34 32 31 34 37 37 33 26 22 21
35 35 31 32 35 37 38 39 40 41 42 42 43 43 43 42 42 40 38 34 32 33 32 33 33 34 36 37 39 40 43 42 43 42 41 38 34 28 30 35 37 32 25
37 37 35 32 33 35 37 39 40 41 42 43 43 44 44 43 44 44 44 44 43 41 40 39 38 38 38 38 37 37 40 40 42 46 46 46 41 39 33 29 31 35 34
35 39 45 37 32 33 34 35 38 39 41 42 43 44 44 44 44 44 45 45 45 45 46 46 46 46 46 46 46 43 44 42 42 43 45 49 50 48 39 34 29 28 33
50 47 43 38 36 34 34 34 34 35 37 39 41 42 44 45 44 44 44 45 46 47 48 48 49 49 48 48 48 48 48 48 48 47 45 46 47 52 52 38 33 34 31
36 35 31 33 38 41 44 44 44 41 38 36 38 41 43 44 45 46 47 48 48 47 47 48 49 50 50 51 51 51 49 49 50 51 50 47 45 48 53 52 37 34 40
35 33 32 30 29 30 33 36 36 38 41 44 44 40 40 43 46 46 47 48 48 49 49 49 50 50 50 50 50 51 52 52 51 51 52 52 53 51 51 56 49 39 39
37 34 33 32 30 29 28 28 26 28 33 34 35 42 47 44 44 46 48 49 50 51 52 53 52 51 51 51 51 51 51 51 52 52 52 53 54 53 52 53 56 48 41
38 36 36 34 33 31 34 35 32 32 29 27 29 33 36 44 51 48 47 50 53 59 63 62 62 62 62 60 56 54 53 52 52 52 52 53 54 55 56 55 56 56 48
40 39 37 36 36 35 35 36 37 36 33 30 29 30 34 44 49 52 58 59 57 53 48 44 41 41 46 55 62 66 66 66 63 58 54 54 54 56 57 57 58 58 56
28 26 28 30 36 39 39 38 38 38 37 37 34 30 33 36 45 52 48 47 42 39 37 36 36 37 38 36 39 56 69 72 70 68 66 62 58 59 60 60 60 62 62
32 28 25 23 23 26 36 39 39 39 39 39 34 31 29 34 40 40 37 40 44 42 42 44 41 44 44 43 41 41 44 48 56 66 68 70 71 71 70 69 66 64 64
32 28 28 28 26 24 24 26 29 32 33 32 24 24 30 30 34 39 39 43 42 44 48 52 54 52 50 46 46 46 46 47 47 48 54 61 67 69 74 74 76 74 69
36 29 28 29 29 28 26 23 22 22 24 21 20 23 26 27 36 50 50 48 50 57 60 61 64 59 58 56 52 41 46 55 59 60 62 67 69 68 78 77 75 78 80
34 32 32 31 29 27 26 26 25 23 21 18 16 14 16 17 21 24 27 31 46 41 42 44 41 36 34 41 60 60 59 58 60 62 70 74 74 74 73 78 83 83 86
34 33 33 29 24 21 20 21 21 21 20 17 14 13 12 13 15 17 18 17 20 21 22 20 23 25 27 27 32 60 65 64 66 69 72 78 72 74 80 79 82 81 82
34 34 32 24 18 19 20 21 19 17 15 13 12 13 15 16 17 18 19 22 24 27 28 27 27 32 35 40 40 41 43 45 53 56 62 65 69 78 86 84 80 86 92
32 31 27 21 20 20 19 16 14 14 13 13 13 13 16 20 22 23 22 19 19 19 20 22 30 53 31 24 26 35 57 66 71 66 54 66 78 85 95 97 89 92 91
28 25 21 18 18 18 15 15 15 16 16 18 19 19 20 20 18 17 16 15 15 17 20 23 26 28 41 62 64 51 53 58 62 68 53 62 88 84 78 87 89 94 88

GFSSE_700_rhum_066.txt.gz
RH
29 34 39 35 30 28 24 22 24 23 25 26 26 24 20 16 14 16 11 6 4 4 6 11 22 30 24 17 16 21 29 21 14 9 6 6 7 9 10 11 10 11 14
32 28 38 40 39 38 32 27 20 21 22 23 25 25 23 19 15 14 11 9 8 7 6 6 6 6 7 9 11 14 11 8 8 9 10 10 10 10 10 13 16 16 14
36 32 34 40 39 39 39 36 32 22 18 19 22 24 24 22 18 15 15 16 15 13 11 10 10 9 9 8 9 10 11 12 14 15 16 17 17 18 17 16 15 16 15
39 36 33 39 39 39 39 38 38 33 24 18 19 23 25 25 23 20 18 16 16 16 17 18 18 18 18 18 18 18 18 17 17 17 17 18 18 17 17 17 17 17 21
38 39 36 39 38 38 39 38 38 39 36 31 23 20 24 26 26 25 23 22 21 21 21 21 21 20 20 21 21 21 21 21 21 21 20 20 19 18 18 18 18 18 29
36 37 38 38 38 38 39 39 39 40 40 40 33 29 22 23 26 30 31 32 32 33 32 32 33 34 35 36 36 36 35 35 34 34 35 35 34 31 25 22 21 21 21
35 35 35 37 38 38 39 40 40 40 41 42 41 39 34 30 26 27 28 29 30 29 29 29 31 33 33 35 37 39 41 41 40 37 33 30 29 33 37 35 30 24 21
32 33 33 35 37 38 39 40 41 41 41 42 43 42 42 39 37 36 33 30 29 29 29 29 29 30 30 32 34 33 34 37 38 37 36 36 35 33 30 31 37 34 28
36 31 33 34 36 38 39 40 41 42 42 43 43 44 44 44 43 43 44 45 44 43 40 36 34 34 34 33 33 34 34 35 36 37 40 43 43 39 36 32 31 33 36
37 35 32 33 35 37 38 39 40 42 42 43 44 44 44 44 46 45 45 46 46 46 46 48 48 48 48 47 43 44 47 47 45 42 38 38 45 50 50 38 32 30 29
39 37 36 33 32 36 37 38 39 40 42 42 44 44 44 44 45 45 46 46 46 47 47 47 48 48 49 49 48 48 48 49 50 50 49 46 42 47 53 53 41 34 36
35 37 37 41 35 33 34 36 37 37 38 39 42 43 44 45 45 45 45 46 46 47 48 49 50 50 50 51 51 51 51 51 52 52 52 52 50 48 46 48 53 43 35
48 45 45 43 37 34 34 34 35 36 36 36 38 40 42 43 44 46 46 47 48 48 48 49 49 49 50 50 50 51 51 52 52 52 53 53 53 52 51 48 45 52 45
46 43 40 38 38 40 40 41 42 44 44 44 44 42 40 41 44 46 47 47 48 49 50 50 50 50 51 51 51 51 51 51 51 52 52 53 54 54 53 53 52 48 51
38 35 32 31 30 29 28 28 28 27 30 33 35 38 43 47 46 45 46 48 50 51 53 56 58 60 61 60 59 57 55 54 53 52 52 52 53 54 55 55 56 57 54
38 35 34 34 33 32 30 31 32 31 30 29 27 28 31 35 41 48 51 50 50 54 58 60 61 58 56 54 55 60 64 64 62 59 56 55 54 55 56 56 57 58 60
44 41 37 35 34 34 33 33 35 36 36 36 34 30 27 30 35 42 48 53 60 59 56 52 45 38 34 33 33 36 44 60 67 70 70 69 66 61 58 59 60 60 60
44 43 42 39 36 35 36 36 36 38 38 38 39 38 34 29 30 35 44 53 55 51 45 42 40 39 39 41 42 43 42 42 48 56 62 69 72 72 71 72 73 72 68
38 37 32 27 25 27 34 37 39 39 38 40 40 40 41 36 34 31 38 47 49 45 42 42 42 44 46 48 51 51 50 48 47 47 49 53 55 58 65 73 77 79 78
38 34 31 27 26 26 25 25 26 28 33 37 40 43 40 28 27 30 30 36 40 43 43 44 48 56 62 63 62 55 53 52 52 49 51 55 62 62 65 68 74 82 85
43 41 38 37 32 29 29 29 27 25 25 25 26 27 26 24 24 25 27 36 52 56 57 59 64 60 46 51 46 32 27 32 42 54 53 59 63 66 73 75 81 78 80
44 42 39 36 33 31 32 31 29 27 26 25 24 24 23 25 19 17 14 18 23 28 46 47 52 36 33 29 25 27 32 34 33 39 61 70 72 71 72 73 80 84 87
39 38 35 33 34 35 35 32 27 25 25 26 24 23 21 18 18 17 13 14 16 16 17 18 20 24 24 27 32 48 50 45 43 35 36 32 36 52 66 66 77 83 88
36 33 35 35 34 33 28 22 19 19 19 19 19 19 18 16 15 15 16 18 20 22 24 26 27 24 21 21 28 49 58 42 29 26 43 59 64 60 61 67 80 81 80
39 36 33 30 27 25 21 18 17 18 18 15 14 14 14 14 15 16 18 19 20 20 19 18 18 18 17 17 21 37 28 49 57 61 53 52 55 58 49 44 62 74 90
35 36 33 30 28 24 19 15 14 14 13 13 14 15 15 16 18 20 21 20 19 18 17 17 20 23 25 28 29 32 47 64 63 45 40 37 36 31 39 40 40 45 52

GFSSE_700_rhum_069.txt.gz
RH
31 34 33 28 25 20 19 22 22 23 25 25 24 21 17 15 14 8 7 5 4 6 10 13 26 19 14 15 13 16 16 10 8 9 10 10 10 10 10 12 14 15 14
31 31 37 38 35 28 27 20 19 20 22 24 25 23 20 15 14 13 12 9 8 8 7 7 6 7 9 9 9 9 10 12 13 15 16 16 16 17 16 15 15 15 15
30 32 36 39 39 38 35 31 23 18 19 21 23 24 22 19 16 15 16 17 17 16 15 13 12 11 12 13 15 17 18 18 17 17 17 17 17 16 16 16 16 18 19
35 34 37 38 39 39 38 38 37 28 20 17 18 21 24 23 21 20 19 18 17 17 17 17 17 17 18 18 19 19 20 21 21 21 20 19 18 18 18 17 17 21 19
38 35 36 39 39 39 38 38 39 38 31 23 18 18 22 26 26 25 24 23 23 23 23 24 25 26 28 31 33 34 34 34 34 34 34 35 34 31 27 23 20 22 20
38 38 36 40 39 39 39 39 39 40 40 36 28 25 22 23 26 28 28 30 30 30 31 32 33 33 33 33 33 33 32 32 33 33 31 30 28 30 34 35 32 26 22
38 38 37 38 39 39 39 39 40 40 41 42 42 34 30 30 28 27 27 26 26 27 27 27 28 30 32 31 31 30 28 28 29 29 30 30 31 30 28 28 33 35 30
37 37 36 36 38 39 40 40 40 41 42 43 44 43 41 37 39 42 43 41 38 34 30 28 28 30 30 31 32 33 32 31 31 31 33 38 41 42 37 30 28 27 33
34 35 35 35 36 38 39 40 41 42 42 43 44 45 44 44 44 45 44 45 46 47 47 48 48 48 47 45 41 40 44 47 48 48 43 38 41 45 48 46 34 30 27
32 33 34 35 36 38 39 40 41 42 42 43 44 44 45 46 46 46 46 46 47 47 47 48 49 49 49 49 49 49 49 50 50 51 51 50 48 44 40 45 49 37 32
41 36 32 34 34 37 38 39 40 41 42 43 44 44 44 45 45 46 46 46 47 47 47 48 49 49 50 50 51 51 51 51 51 52 52 52 52 51 50 47 40 45 41
40 38 36 33 33 35 37 38 39 40 40 41 42 43 44 45 45 45 45 46 46 47 48 48 49 49 50 50 51 51 51 52 52 52 52 52 52 52 53 52 51 44 44
40 42 39 36 34 33 35 37 37 36 36 37 38 39 41 43 44 45 46 46 47 48 48 49 50 50 50 51 51 51 51 51 51 52 51 52 52 53 53 54 54 53 50
42 41 42 44 44 37 34 34 34 36 38 40 41 40 40 40 42 44 45 46 48 48 49 50 51 51 53 56 57 58 57 56 54 53 52 52 52 53 53 54 55 56 55
53 51 49 46 44 43 42 42 42 42 40 39 38 38 41 44 46 46 46 46 48 50 50 52 55 57 60 60 61 60 59 59 60 60 58 56 54 54 54 55 55 56 57
48 40 37 34 32 32 31 31 29 27 27 26 26 26 27 29 32 38 44 49 51 52 53 57 61 60 57 50 44 39 37 36 38 48 59 65 66 66 65 61 59 58 59
53 40 37 35 33 32 32 31 31 33 34 35 35 34 33 31 27 29 34 43 50 52 54 54 53 50 43 38 37 37 37 38 38 38 40 50 62 68 70 72 73 72 70
57 47 41 37 36 35 34 34 34 34 35 37 38 39 40 40 39 32 29 35 44 51 50 49 47 43 40 40 43 45 44 46 48 49 47 47 49 53 58 67 75 78 76
47 46 43 41 40 38 36 37 38 37 37 40 40 41 42 44 45 40 34 34 37 43 49 48 44 42 42 43 49 55 59 59 59 57 55 53 54 55 56 58 64 67 72
39 39 37 36 33 28 26 25 27 29 32 36 40 41 43 43 44 37 27 27 36 40 40 43 47 50 53 58 64 64 48 45 50 39 37 40 51 55 60 67 69 72 76
43 39 36 36 36 33 30 28 28 28 26 25 25 26 29 30 30 27 23 22 23 29 39 53 60 61 47 48 53 50 28 24 22 28 34 37 43 53 67 68 69 72 75
49 47 45 43 40 38 35 31 28 29 29 28 28 27 26 25 26 28 25 23 20 19 16 24 31 29 33 23 20 19 19 21 27 42 47 44 43 47 54 58 66 74 76
53 52 50 43 40 37 32 30 30 29 29 27 22 20 19 20 21 22 21 19 17 14 14 16 18 20 28 24 25 25 22 19 20 29 32 25 28 39 56 63 63 63 63
44 40 48 45 38 35 35 35 35 33 26 20 17 16 17 17 18 18 17 15 14 15 16 17 19 25 22 20 19 17 18 18 26 34 30 53 62 50 40 44 43 52 49
39 40 39 38 38 38 38 36 30 24 20 16 14 14 13 13 13 13 14 14 16 17 18 19 19 19 18 17 16 18 21 25 28 31 44 57 46 41 40 47 42 33 32
39 40 40 40 40 39 36 34 30 26 21 16 13 12 12 13 13 14 16 17 17 18 18 18 18 17 17 20 25 33 40 44 44 53 54 41 40 34 27 32 32 35 42

GFSSE_700_rhum_072.txt.gz
RH
30 25 21 18 16 18 20 20 22 24 24 23 20 16 14 10 9 7 5 6 12 25 32 35 30 16 12 11 11 10 8 10 11 12 14 15 16 16 16 16 15 14 14
30 32 30 24 23 20 17 18 20 22 23 24 21 17 14 14 14 11 9 8 8 8 7 7 7 7 8 8 10 14 16 17 17 16 16 16 16 16 16 16 17 18 19
31 33 35 34 33 31 26 20 17 18 20 22 23 21 18 16 15 16 16 16 15 14 12 11 11 13 15 17 17 17 18 18 18 17 17 17 17 17 17 17 18 18 18
33 35 37 38 38 37 37 35 23 18 17 20 23 23 22 21 20 18 17 17 17 17 17 17 17 18 19 21 24 26 28 29 30 30 29 27 26 23 21 20 21 20 19
34 34 38 39 39 39 39 38 36 28 20 18 19 22 25 25 24 24 24 24 25 25 26 26 28 30 31 31 31 30 30 29 29 28 27 28 29 30 32 33 30 25 22
36 33 38 39 39 39 39 39 39 36 34 24 22 20 22 25 26 28 29 29 29 29 28 28 28 28 28 28 28 28 28 27 28 29 29 29 28 26 24 25 30 32 30
38 35 36 39 39 39 40 40 40 40 40 39 33 26 29 29 27 26 26 26 26 25 25 25 25 25 26 26 26 27 27 28 29 30 32 35 37 33 30 28 26 24 29
38 38 37 38 39 39 40 40 41 42 42 42 43 40 36 33 38 42 44 44 42 41 40 40 40 39 38 36 37 40 42 45 45 45 41 36 32 34 40 39 31 28 26
38 39 38 38 37 38 39 40 41 42 42 43 44 44 44 43 43 44 42 45 46 47 48 48 49 49 49 49 49 49 49 49 49 49 49 49 49 48 41 35 38 37 29
36 36 37 37 38 38 39 40 41 42 42 43 44 44 45 46 46 46 46 46 47 47 47 48 48 49 49 49 50 50 50 50 51 51 51 52 52 52 51 50 45 39 42
34 35 35 36 37 38 38 39 40 41 42 42 43 44 44 45 45 46 46 46 47 47 47 48 49 49 50 50 51 51 51 52 52 52 52 52 52 52 52 52 52 51 45
32 32 34 34 36 37 38 38 39 40 41 42 43 43 44 44 45 45 45 46 46 47 47 48 48 49 50 50 50 51 51 51 51 51 51 51 52 52 53 53 54 54 54
42 40 34 33 35 36 37 37 38 38 39 40 41 42 42 43 43 44 45 45 46 46 47 48 49 50 50 50 51 52 53 54 55 55 54 53 52 52 52 53 53 54 55
46 44 42 34 32 35 36 37 37 37 36 36 36 38 38 39 40 42 44 45 46 47 48 49 50 51 52 54 57 58 59 59 58 57 58 59 58 56 53 52 54 54 55
44 46 47 41 35 34 35 35 35 35 35 38 41 43 43 43 44 44 45 45 46 46 47 49 50 52 54 57 59 57 51 45 40 37 37 39 49 58 62 63 62 60 57
64 58 53 50 46 43 38 36 37 40 43 41 33 28 26 28 28 31 35 40 44 46 49 51 53 56 56 54 50 43 38 35 35 36 36 36 35 36 44 56 64 68 68
66 59 53 48 46 44 43 42 41 35 29 28 30 32 32 33 32 31 28 30 32 36 41 47 50 49 49 47 42 41 40 43 45 44 45 47 45 44 42 42 49 59 66
65 55 50 40 36 34 34 32 31 30 32 33 34 36 38 39 40 40 40 36 30 28 32 41 49 50 49 46 44 44 46 48 53 58 60 57 54 54 53 53 54 54 53
64 56 46 41 36 36 35 34 35 34 34 34 37 39 41 42 44 44 45 46 39 34 34 34 38 43 44 44 47 50 53 62 70 67 49 47 48 45 48 51 56 57 62
66 60 54 53 44 42 41 39 37 36 35 38 38 38 39 39 40 40 42 45 38 30 29 31 34 38 43 52 59 60 65 56 55 52 32 28 25 28 34 43 56 63 65
50 45 42 40 40 35 32 29 28 27 27 26 26 26 26 26 26 26 28 29 28 27 24 22 26 32 39 51 62 44 38 35 19 22 26 29 38 50 47 44 41 54 65
50 47 43 41 41 41 40 39 37 36 31 29 29 29 29 28 27 26 26 26 26 26 24 22 23 24 17 23 26 24 23 23 25 17 18 22 35 40 32 33 41 43 45
49 47 47 45 45 44 42 40 36 32 30 30 30 29 29 25 20 19 20 20 21 22 21 20 19 19 19 22 21 25 32 23 19 16 17 22 28 28 52 62 54 48 52
53 50 47 49 51 48 38 35 34 32 31 30 31 29 24 18 15 14 14 15 16 17 17 16 16 16 18 20 20 20 19 18 18 22 25 30 32 39 55 43 39 32 30
53 50 49 47 38 42 43 36 33 33 34 33 29 24 20 16 13 12 12 12 13 13 14 15 17 18 19 19 19 20 19 20 27 35 40 45 47 55 40 40 37 27 25
52 48 48 39 37 40 40 40 39 37 34 31 28 25 21 16 12 12 12 13 14 15 17 19 20 20 20 19 18 19 25 36 63 56 46 39 43 40 29 26 25 33 37

GFSSE_700_rhum_075.txt.gz
RH
22 16 13 14 18 18 19 21 22 23 21 18 15 12 10 9 6 5 9 35 52 59 48 58 26 10 9 10 8 9 12 14 15 15 15 16 16 15 15 15 15 16 16
26 21 14 14 14 15 16 18 20 22 21 19 15 14 14 13 10 8 7 8 10 9 7 7 7 7 8 12 15 16 16 16 16 16 16 16 16 16 16 17 18 19 18
29 27 21 19 19 17 15 17 19 21 22 21 19 16 15 15 16 15 13 12 12 11 10 11 13 16 17 17 17 18 19 20 20 20 19 20 20 19 18 22 20 18 18
33 31 30 30 30 29 22 18 17 19 21 22 22 20 20 18 17 16 16 16 16 16 16 17 18 20 23 26 29 30 29 29 28 29 28 29 31 31 30 29 26 22 23
34 34 36 36 37 35 34 30 23 19 18 21 24 24 24 23 22 22 22 22 23 24 25 28 30 31 31 30 29 28 26 26 26 24 26 26 24 24 23 23 27 30 29
35 36 37 38 38 38 37 36 35 33 22 21 21 23 25 26 28 29 28 27 27 26 26 26 27 27 25 24 24 24 24 25 22 26 29 29 28 26 24 24 23 22 26
35 36 38 38 39 39 39 39 38 37 37 31 23 25 25 24 25 25 24 24 23 23 24 26 26 27 26 28 31 34 34 34 33 34 31 27 26 27 28 30 27 25 24
34 38 38 38 39 39 40 40 40 40 40 40 38 34 30 33 39 41 41 41 41 42 42 44 45 46 46 46 47 48 48 47 46 46 46 46 46 46 41 33 32 33 29
37 37 39 39 38 39 39 40 41 42 42 42 43 43 43 43 42 39 40 44 46 46 47 48 49 49 49 50 50 50 50 50 51 51 51 51 52 52 52 51 49 40 36
39 38 39 39 39 39 39 40 41 41 42 43 43 44 45 46 46 46 46 46 47 47 48 48 48 49 49 50 50 51 51 51 51 52 52 52 52 52 52 52 52 52 52
39 39 39 38 38 39 39 40 40 41 42 42 43 44 44 45 45 46 46 47 47 47 47 48 48 49 50 50 50 51 51 51 51 51 52 52 51 51 52 52 53 52 53
35 40 39 39 38 38 38 39 40 40 41 41 42 43 44 44 44 45 45 46 46 46 47 47 48 48 49 50 50 50 51 52 53 54 55 55 55 54 52 52 52 52 52
38 37 38 39 38 37 37 38 39 39 40 40 41 42 42 43 43 44 44 45 45 46 46 47 48 49 49 50 51 53 55 56 57 56 55 53 51 53 54 56 54 53 54
41 35 35 38 37 37 37 37 38 38 38 39 40 40 39 39 40 40 41 43 44 45 46 47 48 49 49 50 52 52 54 53 48 41 35 32 30 31 34 40 49 60 62
56 54 49 38 36 37 38 38 38 38 38 38 37 36 38 41 42 42 43 44 45 45 46 47 48 49 49 50 52 52 48 42 38 35 35 36 36 37 37 36 35 35 45
46 52 54 56 44 37 36 36 36 36 36 35 36 42 42 34 29 27 27 29 33 37 41 44 46 48 50 51 49 47 43 39 37 38 41 42 45 48 48 46 44 42 40
52 54 53 54 54 45 39 39 37 36 35 40 43 31 28 30 32 33 33 33 33 28 26 29 34 40 44 49 49 47 43 42 42 44 45 50 56 56 51 51 49 49 48
57 55 55 55 55 51 48 44 40 41 43 38 30 32 34 36 37 38 40 40 41 41 36 29 28 30 35 42 47 47 43 41 47 51 56 60 59 54 43 43 41 41 41
63 64 62 60 52 50 49 48 46 38 34 33 34 36 37 38 39 40 40 41 42 42 42 36 28 29 31 36 38 41 44 52 58 60 51 54 48 32 22 25 25 30 35
65 64 59 49 46 43 43 41 38 37 37 38 38 38 39 38 36 36 36 38 39 39 39 35 28 29 38 41 38 37 42 50 52 38 32 24 23 25 25 28 42 46 44
66 65 63 50 46 44 43 43 44 43 41 37 34 31 29 26 26 26 26 26 27 28 29 31 36 38 40 33 38 30 20 19 22 19 24 27 22 20 21 31 44 40 37
73 66 65 61 56 52 50 39 40 32 32 31 30 30 28 28 29 29 28 28 27 27 26 30 33 34 35 37 32 25 20 21 20 26 21 18 19 21 22 29 31 54 58
71 65 60 50 45 40 40 40 43 41 40 38 35 32 30 30 29 29 26 20 18 18 26 29 31 30 26 22 21 22 23 25 28 28 21 16 18 26 30 34 40 56 51
61 54 50 46 43 45 46 44 43 42 40 36 34 32 30 30 31 27 21 17 15 15 16 15 16 18 19 18 20 19 22 23 23 22 23 22 32 43 42 42 50 43 34
59 58 52 49 46 45 45 47 48 43 38 34 32 33 34 32 27 24 22 19 14 13 13 13 14 16 18 19 20 22 21 22 20 21 27 37 58 50 36 40 42 29 24
61 57 54 51 50 48 48 43 39 42 38 37 36 36 34 31 28 25 21 16 13 12 14 15 17 18 19 21 22 21 20 23 30 37 44 41 48 43 37 37 26 26 26

GFSSE_700_rhum_078.txt.gz
RH
21 15 14 17 18 17 17 18 18 18 16 14 12 11 8 6 6 23 68 76 78 67 52 34 8 7 8 8 12 14 15 16 15 15 15 14 15 15 15 15 15 16 17
20 14 11 13 14 15 16 16 17 17 16 14 14 14 12 9 6 6 10 13 13 7 7 7 7 10 15 16 16 16 16 17 17 17 17 17 17 17 17 17 16 16 16
23 16 11 11 12 12 13 14 16 17 17 16 15 14 14 14 12 11 11 10 10 10 12 14 16 17 17 20 22 25 27 27 28 28 25 26 28 28 27 24 21 20 20
28 21 17 16 15 13 13 13 15 17 18 19 19 18 16 15 15 16 16 16 16 16 16 18 21 25 28 29 29 28 26 24 24 22 23 23 22 22 22 24 26 28 28
30 29 27 26 25 22 19 15 15 15 17 20 22 22 22 22 21 22 22 22 23 25 28 29 28 27 26 24 24 22 22 23 20 19 21 21 23 23 22 21 21 20 22
33 33 34 35 34 32 30 27 22 17 16 17 21 25 26 27 27 26 25 24 24 24 23 22 21 21 22 22 22 21 21 22 20 22 22 22 24 23 25 26 26 24 22
34 36 37 38 38 38 37 35 34 32 25 19 19 21 21 22 22 22 22 21 21 21 21 22 24 26 28 33 40 42 44 46 45 46 46 46 46 44 42 35 29 29 29
37 37 38 38 39 39 39 39 39 38 37 35 29 26 26 30 33 34 37 38 41 43 44 46 48 49 50 50 51 51 51 51 51 51 51 52 52 52 52 52 52 50 40
36 38 38 38 38 39 39 40 40 41 41 41 40 39 41 42 38 37 40 43 45 46 47 48 49 49 50 50 51 51 51 51 52 52 52 52 51 52 52 52 53 53 53
38 39 39 39 39 40 40 40 40 41 42 42 43 43 44 45 46 46 47 47 47 48 49 49 49 50 50 51 51 51 51 52 52 52 52 53 53 53 52 52 52 52 51
38 39 39 39 40 40 40 41 41 42 42 42 43 43 44 45 45 46 46 47 47 48 48 48 49 50 50 50 50 51 51 52 53 55 56 56 56 55 55 55 55 53 52
42 40 39 39 39 39 40 40 41 41 42 42 42 43 43 44 44 45 45 45 46 46 47 47 48 49 49 50 50 51 52 54 54 52 52 49 41 36 38 44 48 54 57
81 42 40 40 39 39 39 40 40 40 41 41 41 42 42 42 43 43 43 43 44 44 45 46 47 48 49 49 49 50 51 53 50 43 39 34 31 31 32 32 34 36 41
48 42 42 43 43 39 38 38 39 40 40 40 40 40 40 40 40 40 40 41 42 43 43 44 46 46 47 48 49 50 48 48 42 37 34 34 35 36 39 42 42 42 40
60 57 53 42 42 40 39 38 38 38 38 38 39 39 38 37 39 41 38 36 36 34 34 37 39 40 41 44 44 43 43 42 40 37 36 36 38 43 49 52 46 44 45
59 66 67 50 41 41 41 40 39 38 38 38 38 38 36 41 40 28 27 28 27 27 27 25 23 24 28 30 36 40 42 42 43 41 39 41 47 54 57 60 54 44 44
64 61 68 66 65 51 40 39 39 39 37 37 37 36 43 36 29 32 35 36 36 36 37 36 34 26 23 24 27 31 35 39 42 41 43 51 54 45 48 54 48 28 30
58 57 59 61 61 61 57 47 38 38 37 37 36 43 34 31 34 34 36 37 36 36 37 38 38 37 31 25 24 26 30 36 39 36 41 53 53 31 25 20 21 25 27
64 64 64 57 54 52 61 56 52 47 41 41 44 34 34 35 35 36 37 38 37 34 32 32 33 33 31 28 31 39 45 41 43 35 23 27 27 22 22 20 17 19 24
62 65 66 63 64 62 57 56 52 48 46 43 38 37 36 36 36 34 34 30 29 26 26 28 28 29 30 36 40 39 44 34 30 26 21 23 24 26 22 17 16 18 25
65 62 68 69 68 59 55 53 52 46 44 41 40 40 37 36 33 28 27 28 28 28 28 29 41 40 39 39 47 39 39 36 27 19 16 20 23 22 17 18 22 26 29
73 64 67 68 65 63 53 52 50 45 43 46 46 31 29 29 30 30 30 29 29 28 26 22 20 22 29 33 35 32 23 19 18 20 21 17 19 20 19 22 28 32 36
72 74 71 69 67 60 62 53 50 49 51 52 45 38 36 35 33 32 31 31 30 27 22 18 17 17 17 16 19 31 26 20 19 22 22 20 20 18 20 33 45 43 48
73 68 74 73 71 68 63 59 47 46 45 42 41 40 38 36 34 34 34 33 29 24 22 20 16 15 14 15 17 20 24 24 27 21 24 23 25 28 36 53 45 24 38
77 70 69 70 65 59 50 43 42 44 43 42 41 39 35 32 31 32 33 30 29 27 23 18 15 13 14 16 18 20 22 23 24 23 20 25 37 50 50 86 28 25 28
61 70 74 65 57 54 48 47 47 46 47 46 46 44 37 33 34 34 33 31 29 25 20 16 14 15 16 16 19 21 22 21 19 22 30 35 45 90 96 61 24 25 24

GFSSE_700_rhum_081.txt.gz
RH
21 16 17 17 17 16 16 16 16 14 13 12 10 8 6 14 69 92 86 86 79 65 33 7 6 8 12 15 16 16 15 16 16 16 16 16 16 16 16 15 15 15 15
18 14 16 15 15 14 14 15 15 14 13 13 12 10 6 8 23 61 72 59 16 6 7 10 14 16 16 16 19 21 21 23 25 25 24 25 25 25 24 21 20 19 19
18 13 12 12 12 12 13 14 15 14 13 13 13 13 11 9 8 8 9 9 9 12 16 16 16 19 22 25 26 26 25 25 25 21 20 20 20 20 21 23 25 26 26
18 12 11 11 11 11 12 13 15 16 16 15 14 13 14 15 15 15 15 16 16 16 18 22 24 26 25 23 20 19 18 19 17 17 18 19 20 21 20 19 19 19 19
19 15 13 12 11 11 12 12 13 15 16 17 17 17 18 18 19 19 20 21 22 24 25 23 21 19 18 18 19 19 21 20 18 20 21 21 22 21 21 22 22 22 20
25 24 23 21 18 17 15 13 14 14 15 17 20 20 21 23 23 24 23 21 20 19 19 19 19 19 20 24 30 35 39 46 45 48 48 48 49 49 47 41 31 26 26
32 32 31 30 29 28 26 24 20 16 16 17 19 19 20 19 20 20 20 19 20 21 25 29 33 40 45 48 50 51 52 51 52 51 52 51 51 50 50 52 52 52 51
37 36 36 35 36 36 36 35 32 30 27 22 22 22 24 25 26 29 32 33 37 41 43 44 47 48 49 50 51 51 51 52 51 52 52 53 53 52 52 51 50 51 51
39 39 38 36 37 38 39 39 40 39 37 34 33 35 35 38 36 36 37 41 45 47 48 49 50 50 50 51 52 51 52 52 52 53 54 55 55 55 55 55 54 53 53
39 40 40 39 39 39 40 40 40 41 42 41 40 40 40 42 44 45 47 47 48 49 49 50 50 50 51 51 52 52 52 53 53 55 56 56 55 50 47 45 47 54 54
40 39 40 40 40 40 41 41 41 41 42 42 43 43 43 44 46 47 47 47 48 48 48 48 49 50 50 50 51 51 52 52 52 53 51 48 40 34 31 30 31 33 38
51 39 39 40 41 41 41 42 42 42 43 43 42 43 42 44 44 45 45 46 46 46 46 47 47 48 49 49 50 51 50 49 49 44 42 37 34 33 34 36 38 39 38
75 46 38 39 40 40 41 42 42 42 42 42 42 42 42 42 42 42 42 42 43 43 44 45 46 47 48 48 49 48 46 46 42 40 39 35 34 35 38 43 48 49 45
86 69 44 39 39 39 40 40 40 41 41 41 41 41 41 41 39 40 40 41 40 39 40 38 40 41 42 42 37 40 41 40 40 41 40 38 36 41 45 49 53 56 52
81 78 66 44 41 42 39 39 39 40 40 40 40 40 40 40 38 40 38 31 27 26 24 24 22 20 19 20 24 27 28 32 37 38 39 39 40 48 53 51 49 50 43
71 69 68 65 48 47 45 40 40 39 39 39 39 39 40 39 38 38 27 30 32 33 33 33 33 34 31 25 22 20 20 22 25 29 35 38 38 47 54 50 36 38 23
77 83 85 76 81 62 45 46 43 42 41 39 39 39 40 37 43 28 30 31 32 33 33 33 34 31 32 32 29 24 21 22 29 38 37 31 28 22 25 26 23 22 22
88 88 92 72 68 66 72 51 46 44 42 38 39 39 38 42 32 32 32 33 35 35 32 30 28 28 28 28 27 27 32 36 43 42 34 31 27 20 20 17 19 20 17
74 75 88 88 83 76 70 77 65 50 44 40 39 38 41 39 33 34 34 34 32 27 25 25 26 26 26 28 32 29 31 31 34 40 36 31 24 22 20 21 19 15 15
66 65 75 73 65 56 71 64 64 61 55 50 43 43 42 34 34 34 34 32 27 26 26 26 26 26 27 31 28 33 40 41 38 38 30 23 21 24 22 23 22 16 16
63 51 57 73 67 64 60 65 61 59 58 51 54 48 37 36 35 33 27 26 26 26 26 26 26 25 21 18 17 18 16 19 22 25 21 18 19 21 22 22 26 21 24
70 66 71 66 72 73 74 66 65 68 60 56 57 61 50 42 34 30 32 31 30 28 27 27 26 24 20 17 16 14 11 12 14 18 17 19 19 20 20 26 19 20 36
80 70 68 70 74 70 73 72 69 60 56 61 59 65 64 42 39 36 35 33 30 29 28 28 26 23 21 19 16 14 13 11 12 16 22 20 21 23 23 23 22 31 40
75 78 77 74 73 72 75 72 72 75 72 64 61 58 46 42 40 38 36 33 31 31 30 29 27 26 23 19 15 14 15 18 19 17 20 23 25 22 22 26 32 28 24
61 70 73 74 71 74 74 72 75 71 63 53 48 44 43 43 41 38 36 33 33 33 32 30 28 26 21 17 14 15 16 19 22 24 23 20 24 30 36 40 26 44 25
65 63 67 74 76 74 73 70 68 55 47 47 47 47 47 46 45 42 38 37 34 32 29 26 24 23 20 16 15 17 19 19 19 19 20 24 27 32 38 31 91 49 28

GFSSE_700_rhum_084.txt.gz
RH
20 17 17 18 17 16 16 15 14 13 13 11 10 10 29 73 82 88 92 87 79 62 12 6 10 15 16 15 16 17 18 20 21 22 21 22 21 21 20 19 19 18 18
21 16 17 17 17 16 14 14 13 12 12 10 7 8 38 81 87 88 86 74 11 7 10 15 16 16 18 22 22 23 22 23 23 21 20 19 20 21 23 24 25 25 24
17 13 16 16 15 14 13 13 13 13 13 12 10 7 10 31 58 58 21 8 10 15 16 16 20 22 23 22 19 18 19 21 18 18 18 18 19 19 19 19 18 18 20
15 12 14 14 12 12 12 13 13 13 13 13 13 12 11 11 12 12 14 15 16 16 20 22 22 19 17 17 17 17 18 17 17 19 19 20 22 22 21 22 22 20 19
13 13 13 12 11 11 11 12 13 13 14 14 14 14 14 15 15 15 16 18 21 22 20 18 18 18 17 18 22 31 37 36 40 44 44 46 48 48 48 46 39 31 26
13 12 13 12 11 11 11 12 13 14 15 17 17 18 19 20 21 21 20 19 18 18 17 18 21 27 36 42 46 50 48 49 49 48 48 49 49 47 48 49 51 50 50
16 16 15 14 13 12 11 12 13 14 15 17 17 18 18 18 18 18 18 18 20 24 28 35 40 43 44 46 47 48 49 51 52 51 51 52 53 53 53 52 51 50 48
24 24 23 22 22 20 18 17 15 15 15 17 18 19 19 20 22 25 28 31 34 37 40 44 44 45 46 48 50 52 51 53 54 54 55 55 55 53 51 52 52 53 53
30 32 32 32 32 32 31 29 28 26 23 22 22 24 25 26 28 30 34 39 44 47 49 50 51 50 51 52 52 52 53 52 53 54 55 55 52 43 36 34 35 38 44
34 36 37 37 38 39 39 39 38 38 37 35 33 34 35 37 39 40 44 47 49 50 50 50 50 51 51 51 51 51 52 50 50 53 51 45 38 32 30 30 32 33 33
38 38 39 40 40 41 41 42 42 42 42 42 42 42 41 41 44 45 46 47 48 48 49 49 49 49 50 50 50 50 50 50 46 50 42 36 33 33 35 36 39 42 42
48 39 39 41 41 41 42 42 43 44 44 44 44 44 45 44 44 45 45 46 46 46 46 47 47 47 48 48 49 48 50 46 42 43 38 35 34 34 37 40 43 48 50
69 49 40 40 42 42 42 43 44 44 44 44 44 44 44 44 44 43 43 43 43 43 44 44 44 45 46 45 45 46 45 41 37 36 39 40 38 36 38 45 46 46 46
99 81 54 40 41 42 42 43 43 43 43 44 43 43 43 43 43 42 41 40 36 34 34 30 29 30 31 31 32 30 28 33 32 31 36 38 38 38 42 50 45 38 36
98 90 82 54 39 40 41 42 42 42 42 42 42 42 42 42 42 39 41 32 27 27 28 29 30 30 28 25 22 21 20 21 22 24 28 32 38 40 36 40 33 29 21
62 95 98 79 57 39 39 39 40 40 40 41 40 41 41 41 41 38 38 28 30 30 30 30 31 31 30 29 31 29 27 24 22 25 37 40 38 35 26 22 23 22 19
69 70 88 99 87 66 46 42 40 40 40 40 40 40 40 40 40 41 31 29 28 30 30 29 26 26 26 25 25 25 25 26 36 37 41 45 35 32 26 19 18 20 58
79 67 75 75 97 91 78 63 58 45 44 42 43 41 41 41 39 42 31 31 29 32 31 27 25 25 25 24 25 28 33 33 31 33 36 40 39 32 21 17 17 20 20
75 84 81 68 76 96 92 82 68 64 48 44 42 42 42 41 40 39 32 33 32 31 27 26 26 25 25 24 24 22 20 18 26 32 34 36 30 24 20 18 19 20 18
75 73 82 74 63 72 89 96 73 66 66 55 48 46 42 41 44 34 35 34 33 26 25 25 25 24 24 24 22 20 17 15 14 14 16 20 23 19 18 19 20 20 20
64 74 66 69 65 60 60 82 81 72 68 68 62 56 45 46 43 37 38 36 27 27 28 28 26 25 24 25 23 20 18 16 14 13 13 15 18 17 20 29 22 20 22
68 72 73 71 60 67 62 75 78 84 74 85 90 71 69 50 41 42 39 30 32 32 31 29 27 27 27 26 25 24 21 19 15 13 12 14 19 19 18 20 22 18 22
71 66 70 73 68 64 69 60 66 76 71 78 77 69 68 79 72 62 48 38 36 34 33 31 30 28 27 27 27 25 22 19 16 15 14 14 17 21 23 24 23 38 37
78 75 71 73 71 71 69 61 55 71 80 84 89 79 83 84 76 69 46 40 38 35 33 31 29 29 29 29 28 25 21 18 17 14 14 18 21 23 23 21 24 34 46
66 69 72 72 69 76 72 72 76 84 80 85 82 74 69 66 52 46 44 44 44 41 37 35 33 30 27 25 23 23 20 18 18 19 19 21 20 20 23 26 31 36 38
65 65 68 68 74 78 79 79 78 76 82 93 89 72 61 54 51 49 48 44 42 40 36 31 25 23 22 21 20 19 18 18 20 21 20 20 25 22 26 32 27 36 70

GFSSE_700_rhum_087.txt.gz
RH
17 14 16 16 17 16 16 15 14 13 13 12 12 8 7 10 26 60 88 81 76 40 6 12 15 15 16 19 22 21 22 21 22 22 22 23 22 23 23 24 24 23 22
20 16 16 17 17 17 16 15 14 12 11 10 12 40 69 76 84 91 84 64 8 8 15 15 16 20 22 21 20 18 18 17 17 17 16 17 17 18 18 18 18 19 20
21 15 16 18 17 16 15 14 12 12 10 8 13 52 71 84 90 86 53 7 12 15 16 19 22 21 18 17 16 16 16 15 15 15 16 16 19 19 20 20 20 19 18
18 15 16 18 17 16 14 13 13 13 12 10 9 18 45 66 52 13 11 15 15 18 20 19 17 17 17 17 20 24 28 30 32 34 38 41 44 43 43 40 33 28 25
17 15 16 16 16 15 14 13 13 13 13 13 12 12 12 13 14 15 16 18 20 18 17 17 17 19 26 33 40 42 41 42 42 42 42 43 44 43 44 46 47 47 47
17 16 15 15 14 14 15 15 14 14 14 14 14 15 15 16 17 20 21 18 17 17 19 23 30 37 42 43 40 39 40 43 45 44 47 49 50 48 49 49 47 46 46
16 14 14 14 14 14 15 16 16 16 17 17 18 19 20 20 20 18 17 18 22 28 34 38 40 41 43 48 49 48 49 50 52 52 51 49 48 45 42 42 43 46 49
16 14 14 14 14 14 15 16 17 18 19 18 18 19 18 17 18 20 26 30 33 36 39 41 44 48 51 52 52 52 52 51 50 47 48 47 42 34 30 30 31 32 35
17 15 15 14 14 15 15 15 16 17 18 18 19 20 22 24 25 28 33 39 43 46 48 49 49 50 51 51 50 51 51 51 47 45 43 41 35 30 29 31 34 36 36
21 19 20 20 20 19 19 19 19 19 20 21 24 26 30 33 35 38 43 48 50 50 50 50 51 51 51 50 50 50 50 51 49 44 40 35 31 30 30 34 38 42 44
32 25 28 28 29 29 30 31 32 32 33 33 34 35 36 39 41 44 45 47 48 49 49 49 49 49 49 50 50 50 48 46 45 39 36 34 32 31 32 36 38 41 45
42 32 32 34 36 37 38 39 41 42 42 43 43 44 44 44 45 46 47 48 48 47 47 47 47 47 47 48 48 46 44 45 41 36 36 34 34 34 34 37 42 42 38
67 53 37 36 36 39 41 43 44 44 44 45 45 47 47 47 47 46 45 45 44 44 44 44 43 43 43 41 36 34 33 33 30 33 34 31 31 33 34 33 32 35 33
87 82 71 51 38 40 41 43 44 45 45 45 46 46 47 46 46 45 44 42 40 37 35 33 30 28 27 25 23 22 22 21 21 23 24 25 27 35 36 29 22 17 21
80 86 97 79 52 39 41 43 44 45 45 46 46 45 44 44 44 44 43 41 33 28 28 30 32 33 33 33 34 32 31 28 26 23 24 30 41 42 38 31 24 18 17
75 94 97 93 84 58 42 41 44 44 44 44 43 43 43 43 43 43 41 40 28 29 29 29 28 28 27 26 24 24 25 26 26 29 36 38 42 45 38 34 25 16 17
79 81 63 95 94 85 57 45 41 42 42 42 41 41 42 42 42 43 40 37 30 30 31 30 28 26 25 24 24 24 25 28 33 34 34 36 38 38 36 25 18 16 84
76 79 69 72 92 83 88 69 46 44 41 40 40 41 41 41 42 42 40 35 32 33 32 30 26 24 24 24 24 24 24 22 20 17 18 21 23 24 22 20 18 17 20
83 80 72 66 82 97 92 100 84 69 58 53 54 44 45 43 42 41 40 36 33 34 33 30 26 26 26 25 24 24 23 21 18 17 16 15 15 15 19 20 18 22 20
61 73 78 80 77 79 95 92 85 99 92 73 66 53 46 44 44 41 43 36 35 36 34 27 27 27 27 26 25 24 23 22 22 21 18 15 14 15 18 20 19 18 24
62 76 76 79 73 90 78 78 80 93 94 91 72 69 54 54 45 42 46 38 40 38 29 30 31 30 28 27 25 25 24 26 25 23 19 16 15 17 19 21 20 18 33
64 71 91 84 87 81 85 74 79 84 80 82 93 90 92 85 58 53 49 47 40 32 35 35 33 31 29 29 28 26 23 24 25 23 20 18 16 16 18 18 21 24 22
69 72 80 83 89 80 66 64 74 75 83 72 75 76 94 78 96 81 78 70 76 54 40 36 35 34 32 31 32 31 28 25 25 24 21 19 17 18 19 20 24 25 24
82 78 76 75 74 75 76 76 82 71 70 72 77 77 86 79 82 86 92 84 82 60 41 42 41 38 36 31 27 24 23 22 22 21 20 19 19 20 21 22 23 25 28
78 83 82 79 77 74 75 80 79 82 74 78 85 85 80 82 84 93 93 67 56 52 47 45 40 36 33 30 28 25 22 21 22 22 20 20 19 20 21 22 24 28 30
60 74 78 80 76 78 83 80 90 90 90 84 87 89 93 90 94 95 76 69 52 52 46 41 40 45 42 34 35 35 31 23 20 20 22 23 23 22 23 26 28 31 32

GFSSE_700_rhum_090.txt.gz
RH
19 15 16 14 16 16 16 15 15 13 13 12 12 8 5 24 56 72 78 77 73 11 10 15 15 17 19 20 20 19 19 18 18 18 17 17 16 16 17 18 19 20 21
20 15 15 15 17 17 16 16 14 13 13 12 10 8 12 36 52 88 79 56 7 12 15 16 19 19 17 16 16 16 16 15 15 15 15 16 16 18 18 18 17 17 17
22 18 15 16 16 17 17 15 13 11 10 54 55 60 53 61 90 84 49 7 14 16 19 19 16 15 16 16 16 17 18 20 22 24 28 30 34 32 28 26 22 22 21
23 19 16 16 16 16 16 13 12 10 9 48 60 75 86 92 89 36 9 16 17 21 19 16 16 16 17 22 31 35 36 35 35 35 36 37 38 38 38 38 38 38 39
22 18 17 17 16 16 14 13 13 12 10 14 42 61 74 64 14 13 16 19 20 17 17 17 20 27 36 38 38 39 36 36 36 37 40 42 40 38 36 35 34 35 37
19 19 18 17 16 15 14 14 14 13 12 11 12 14 14 14 16 18 21 18 17 17 21 29 36 37 37 39 42 44 45 45 45 44 42 40 37 33 31 30 32 35 38
20 19 18 16 16 16 15 15 14 14 14 15 16 16 16 19 21 20 18 18 21 27 33 36 38 44 48 48 48 47 46 44 40 38 38 37 32 28 28 29 30 30 31
20 18 16 16 17 17 16 16 17 17 17 18 20 22 22 20 18 18 22 29 33 35 37 40 44 48 50 50 50 48 43 40 37 35 32 32 29 28 29 32 35 36 36
23 19 17 17 18 19 19 19 19 21 22 22 22 20 19 19 24 28 31 35 39 42 46 47 47 47 48 48 48 48 47 44 39 34 30 29 28 27 28 32 34 37 40
50 21 17 18 18 20 20 21 21 20 20 20 20 22 26 28 32 37 40 44 48 50 50 50 50 49 49 48 49 47 44 42 38 34 32 31 30 28 29 32 35 35 34
55 31 19 19 20 21 22 21 22 20 21 21 25 27 31 34 38 42 46 49 50 50 50 50 50 49 48 48 46 45 44 41 39 35 31 30 30 30 29 30 33 36 36
51 47 22 20 20 21 21 22 22 24 26 28 32 34 37 40 43 47 48 49 49 49 48 48 48 48 47 45 43 38 33 32 31 29 28 27 26 25 26 27 25 22 23
55 53 45 26 25 25 26 29 32 35 38 41 42 44 45 46 47 48 48 48 47 46 46 45 43 39 37 33 28 24 21 21 22 21 20 21 21 22 28 28 26 22 18
78 45 48 39 33 30 32 36 40 42 44 45 46 47 48 49 49 48 47 46 44 41 39 36 31 27 27 28 28 29 29 28 27 25 23 24 28 39 43 40 32 28 20
87 56 65 52 37 34 35 38 42 44 45 46 47 48 48 48 47 46 46 44 42 33 30 30 31 32 32 32 30 29 28 27 27 27 28 33 36 34 36 40 37 30 18
75 74 76 77 62 42 38 39 42 43 45 46 47 48 47 46 45 44 44 43 42 30 29 30 30 30 31 31 30 29 28 27 29 31 34 34 36 37 38 37 31 19 36
92 70 73 87 72 64 51 43 41 43 44 46 46 46 46 44 43 43 44 43 42 30 30 31 32 31 29 28 28 27 26 26 24 21 19 18 17 17 14 15 17 20 36
85 85 67 82 84 70 69 60 56 43 42 43 45 44 44 42 42 43 44 43 42 32 32 34 34 32 28 27 27 26 26 24 24 21 20 18 17 15 12 14 16 18 16
87 83 81 75 74 70 80 70 78 67 56 48 43 43 43 42 43 44 44 44 42 34 35 36 34 29 28 28 28 28 28 27 25 25 24 23 20 17 14 13 15 18 20
72 88 95 76 66 72 84 84 82 90 80 72 72 69 59 52 51 48 47 44 44 37 38 39 34 28 31 30 29 29 27 27 27 27 26 24 21 19 17 15 16 16 17
76 77 82 78 86 70 66 95 94 74 82 87 94 75 65 65 63 54 50 44 47 43 44 41 31 34 34 32 31 30 28 29 29 29 27 26 24 20 18 16 17 17 18
68 76 76 77 96 82 72 63 71 74 84 86 87 71 85 84 76 74 58 48 55 54 46 35 37 37 35 36 38 36 34 32 26 24 23 23 22 21 20 20 20 20 19
71 60 59 71 86 94 89 73 87 93 86 87 88 86 90 92 92 92 90 74 77 73 59 52 43 40 41 40 38 32 31 33 26 26 23 22 22 21 21 22 24 22 22
81 80 76 76 79 85 88 91 79 80 88 86 88 79 88 87 97 88 97 96 97 88 91 86 68 47 43 39 35 34 33 32 32 32 26 22 19 18 19 20 22 24 26
89 90 83 80 79 84 88 90 94 100 98 98 98 98 98 90 97 98 98 99 98 100 98 90 68 47 41 39 49 51 47 42 38 36 32 30 25 21 20 21 23 25 28
76 81 85 82 82 83 87 85 85 91 92 89 93 97 99 99 95 95 99 99 98 99 97 68 50 45 48 54 54 50 50 41 40 42 38 33 29 25 23 24 27 29 30

GFSSE_700_rhum_093.txt.gz
RH
26 19 17 16 15 15 15 15 14 13 13 13 12 9 7 56 70 82 79 78 54 8 15 15 17 18 18 17 16 16 16 16 16 15 15 14 15 15 14 15 15 15 16
25 19 17 15 15 15 16 15 14 14 13 13 11 7 9 45 72 80 81 46 8 15 16 18 19 17 15 15 15 15 15 15 15 15 15 15 15 16 16 16 16 17 16
24 20 17 16 15 15 16 15 14 13 13 11 8 13 38 57 87 82 39 9 15 16 19 17 15 15 14 15 18 20 25 28 29 30 30 29 30 31 30 30 28 26 22
24 20 18 16 16 16 16 14 12 12 61 61 56 43 36 78 88 47 10 16 17 20 16 15 15 16 20 27 31 34 33 33 32 31 31 30 32 30 29 29 28 26 27
24 21 18 17 17 16 15 12 11 14 72 75 79 90 96 88 47 10 16 19 20 16 15 16 20 30 34 34 34 33 36 34 35 36 34 32 29 26 26 25 26 27 28
25 23 19 18 17 16 13 13 12 10 54 72 79 89 93 29 12 16 20 19 17 17 19 29 35 35 36 39 39 39 39 39 37 36 34 29 26 26 27 28 28 28 28
25 24 21 19 17 16 14 13 12 11 21 52 64 62 16 15 18 22 19 18 21 27 33 37 40 44 44 44 43 40 37 35 34 32 30 28 27 27 29 32 33 33 32
25 24 23 19 17 16 14 14 14 13 14 16 16 15 16 20 22 18 19 25 32 35 36 43 48 48 48 47 45 42 39 37 34 30 26 25 26 26 28 29 29 28 30
26 25 25 19 18 16 16 15 15 16 16 16 17 19 22 21 19 21 28 33 35 37 39 43 46 49 48 48 47 44 40 36 32 29 26 24 24 25 27 29 31 30 27
32 45 21 20 19 17 17 17 17 18 20 22 24 22 19 20 26 29 32 38 43 47 49 49 50 50 50 49 47 45 41 37 33 28 24 23 23 24 26 26 26 23 21
59 66 20 21 20 19 20 20 20 24 24 23 20 21 26 29 34 39 43 47 50 51 51 51 50 49 47 47 44 39 35 31 28 25 24 22 20 20 19 22 22 20 17
74 59 24 23 22 22 22 24 22 22 21 21 24 26 32 36 38 39 42 45 46 48 48 48 47 45 42 37 33 28 24 21 20 19 18 17 18 19 23 27 30 26 24
79 66 29 22 23 24 26 24 23 21 23 26 30 33 36 38 41 44 46 48 46 45 45 44 42 36 30 27 24 22 23 24 25 24 23 24 26 31 36 40 41 35 32
84 70 44 24 23 24 25 24 25 27 30 33 37 40 44 47 49 49 48 48 45 42 40 37 34 29 28 28 29 29 29 28 27 27 28 28 30 34 33 33 35 37 30
83 83 66 30 26 26 26 26 29 34 38 42 45 47 48 49 50 49 48 47 45 41 34 30 29 30 30 30 29 28 27 27 27 29 30 32 31 33 32 30 30 29 23
90 92 73 52 34 32 30 31 34 38 42 45 47 48 49 49 49 48 47 46 45 43 32 29 30 30 30 29 29 28 27 27 27 25 23 20 18 16 16 14 13 13 18
70 99 84 65 49 34 35 35 38 42 44 45 46 47 48 48 48 47 46 45 45 43 35 30 32 33 32 30 29 28 28 28 26 25 22 21 21 20 18 15 12 12 16
79 79 91 87 83 55 37 37 39 42 43 45 46 48 48 48 47 45 44 44 44 44 41 33 34 36 36 31 28 28 29 28 27 26 25 24 23 22 20 17 15 13 12
84 92 89 87 78 67 50 42 40 41 43 44 46 46 47 47 46 44 42 44 44 46 44 35 35 37 39 31 30 31 30 30 29 27 27 27 26 24 22 20 18 16 15
96 99 98 98 90 77 68 58 46 56 45 44 44 46 44 43 42 43 43 45 46 47 45 38 38 41 34 32 34 34 32 30 30 30 28 26 25 24 23 21 19 17 16
98 99 90 80 91 80 74 68 72 73 73 69 61 61 61 61 56 51 51 53 52 50 49 43 42 44 34 36 36 35 37 36 32 29 26 25 24 23 22 21 20 18 19
95 72 67 75 91 81 81 69 75 84 63 75 67 86 84 81 75 73 69 63 61 54 57 52 52 38 39 40 40 40 40 35 34 35 30 31 26 22 21 20 20 19 20
78 87 84 81 92 86 78 84 78 73 87 88 89 85 90 88 94 97 92 92 88 68 68 76 61 47 44 46 45 41 38 38 44 46 47 43 37 29 27 23 20 20 20
83 89 91 86 89 86 96 95 99 95 96 93 99 98 97 97 96 98 95 98 99 95 94 97 93 79 68 64 47 41 43 49 53 50 48 48 42 35 32 28 24 22 22
66 76 81 77 82 88 93 97 99 100 85 90 98 97 100 99 96 96 99 100 100 100 98 100 98 100 97 75 53 49 52 56 60 64 64 61 44 39 36 32 28 26 27
68 64 68 70 79 78 83 89 94 97 91 95 99 90 95 94 100 100 100 99 100 99 100 99 100 99 96 89 58 51 54 57 63 69 66 48 32 32 32 30 28 27 29

GFSSE_700_rhum_096.txt.gz
RH
36 29 22 21 15 14 14 14 13 13 12 13 13 9 38 80 84 85 77 80 21 11 15 15 16 17 16 15 15 14 14 14 14 13 14 14 13 13 14 14 14 14 14
34 26 23 18 15 15 14 14 13 12 12 12 12 8 39 74 81 80 83 48 10 16 16 18 17 14 14 14 14 13 14 14 14 14 15 15 16 16 16 16 16 17 17
37 25 21 17 15 15 14 14 13 12 12 12 11 7 47 62 76 86 68 10 16 18 18 16 14 13 13 15 17 20 22 26 27 27 27 27 25 24 24 24 24 26 26
38 25 21 17 15 16 15 14 13 12 12 9 7 22 46 67 89 76 11 15 17 19 16 14 14 16 20 25 27 27 26 26 28 28 28 28 27 25 24 24 25 25 25
36 26 21 18 16 16 15 14 12 19 31 43 53 52 53 82 81 13 15 18 19 16 15 16 21 27 30 29 29 29 28 28 28 29 28 26 26 26 25 25 24 23 24
33 27 21 18 17 16 15 13 11 60 76 79 69 63 89 92 26 15 18 20 16 16 18 22 29 31 32 32 34 33 34 32 31 31 29 26 26 27 28 28 28 28 26
53 29 23 18 18 16 14 12 11 58 75 84 90 99 97 29 13 17 21 16 16 19 25 30 32 34 36 36 33 32 30 29 28 28 28 26 26 26 27 27 27 26 26
70 53 24 19 18 16 13 12 11 40 68 85 96 97 29 14 17 20 17 16 20 27 30 37 42 42 41 38 35 32 30 29 27 26 25 24 24 25 27 29 29 28 26
70 92 25 29 18 16 14 13 12 22 56 77 86 38 14 18 20 17 17 22 29 31 35 40 45 46 45 43 40 38 32 29 26 24 23 23 24 25 26 27 26 24 22
79 72 62 52 19 16 15 14 13 17 27 36 25 15 18 21 18 17 24 31 33 34 38 44 47 49 48 46 43 39 36 32 29 25 22 21 21 20 21 22 24 23 20
87 76 84 88 20 17 15 15 15 15 15 15 16 20 22 18 21 30 32 36 41 46 49 50 48 47 46 42 40 36 32 28 23 20 19 17 18 18 20 25 29 31 27
86 76 92 58 20 18 17 16 17 17 17 20 23 23 21 28 32 35 41 46 49 50 49 48 46 42 39 38 34 28 23 20 19 19 19 19 21 25 30 35 38 38 34
96 84 88 39 22 19 19 19 19 22 24 23 20 21 27 31 40 42 43 45 47 47 46 44 42 38 31 28 26 24 25 27 27 26 26 26 27 30 32 32 32 34 33
96 98 100 38 24 21 21 22 26 26 24 21 24 28 33 38 39 42 47 48 48 47 45 41 37 34 29 28 29 31 30 27 26 27 28 29 30 27 26 24 23 24 24
100 99 85 45 26 23 23 26 28 24 24 26 30 34 38 43 47 49 50 50 48 47 43 38 32 31 31 31 30 28 28 28 28 27 26 23 21 18 17 16 15 14 18
93 99 83 58 30 26 27 27 25 26 29 32 36 41 46 49 50 50 50 49 48 46 44 37 32 31 31 31 31 30 29 29 27 26 24 22 21 20 20 19 17 14 19
82 96 100 77 47 36 33 30 28 28 33 38 42 46 48 49 50 50 50 49 47 46 45 41 32 33 34 33 31 30 29 29 28 27 26 24 25 24 23 21 19 17 46
72 87 98 85 68 48 40 35 30 32 37 41 45 47 48 48 49 49 50 48 46 45 45 44 34 34 36 35 33 31 31 30 29 29 28 28 27 26 24 23 22 20 18
75 87 95 97 94 89 71 47 36 35 38 42 44 46 47 48 48 50 50 47 44 44 46 46 41 37 38 38 34 32 32 31 31 30 30 29 27 25 24 24 23 21 19
97 86 98 99 100 94 83 84 72 38 40 42 44 45 47 48 48 50 50 46 43 44 46 48 47 39 41 44 36 34 34 33 35 34 31 28 25 26 24 23 22 22 21
100 93 100 99 91 95 91 79 73 68 43 46 47 46 46 46 46 46 44 45 44 46 50 52 50 45 46 50 35 37 36 38 39 33 34 35 36 37 35 26 22 20 20
98 99 97 99 97 82 89 89 79 72 70 65 72 58 58 55 55 56 59 64 66 65 60 59 54 61 54 48 38 40 40 41 38 37 42 47 46 46 42 35 31 28 24
99 100 98 96 100 97 92 80 82 76 71 78 76 84 79 74 64 74 83 84 89 90 78 74 64 62 66 58 45 46 45 42 40 41 48 51 48 55 57 53 42 35 30
100 99 98 99 98 96 100 95 82 85 80 81 82 74 88 79 84 98 85 91 97 99 98 88 75 77 63 65 62 50 45 42 42 44 46 50 52 54 56 51 38 37 34
95 97 92 89 83 88 89 100 92 76 71 87 94 77 67 92 98 90 97 98 100 99 100 100 100 100 96 90 78 59 59 65 58 54 53 54 53 57 58 41 29 30 31
92 91 92 95 93 88 88 95 97 100 99 85 93 93 97 98 98 98 99 98 100 100 98 95 94 93 100 100 98 97 90 76 71 56 55 55 57 60 60 28 27 27 28

GFSSE_700_rhum_099.txt.gz
RH
47 42 36 23 21 14 13 13 12 12 12 13 12 12 58 84 91 88 72 72 19 11 14 15 16 16 15 14 14 14 14 13 12 13 13 12 12 12 12 12 12 12 13
56 34 35 23 20 13 13 13 12 12 11 12 12 11 57 88 85 82 79 55 10 14 15 16 15 14 12 13 13 12 12 12 12 13 13 16 17 18 18 18 18 18 18
54 41 27 23 19 13 13 13 12 12 11 12 12 9 64 83 84 80 79 14 14 15 16 15 13 13 12 13 14 16 19 23 24 25 23 25 24 22 22 22 23 23 24
52 40 28 22 17 14 13 14 12 12 11 12 11 9 60 70 80 83 49 12 15 16 15 13 12 13 15 19 23 26 26 27 26 27 24 24 23 22 21 22 23 24 25
47 42 29 23 17 14 14 14 12 12 12 11 9 12 50 68 84 82 14 15 17 16 13 13 14 18 22 25 25 24 26 28 29 27 26 25 24 25 25 25 24 24 23
51 66 34 27 18 15 14 14 13 12 11 8 8 44 63 80 90 29 14 17 17 13 14 16 21 26 26 25 27 29 30 29 28 27 26 25 26 27 27 26 26 25 24
64 86 64 56 20 17 15 14 13 34 33 39 75 77 62 90 65 14 17 19 15 14 18 25 26 28 28 30 29 28 28 27 26 27 26 25 25 26 27 27 27 25 21
77 71 83 68 33 19 15 13 19 75 85 87 84 72 81 89 21 17 20 17 15 19 25 28 30 32 34 32 30 28 26 26 25 24 24 24 24 25 26 27 25 20 18
99 84 91 64 54 24 17 12 25 82 87 91 88 96 94 31 15 20 18 16 21 28 31 35 37 37 36 35 34 31 28 26 23 23 22 22 22 23 22 21 21 20 20
99 96 92 72 78 23 15 12 24 84 88 95 98 99 34 14 20 21 17 21 29 33 38 41 43 44 42 41 39 36 34 31 28 24 22 19 18 18 18 21 25 32 30
98 99 99 83 80 29 15 13 17 74 93 100 99 72 15 19 22 18 22 29 34 38 42 46 48 47 44 42 40 37 31 27 23 19 17 16 16 19 24 31 35 38 36
76 100 100 85 98 34 16 14 16 27 76 91 87 18 22 25 20 22 32 35 37 44 49 50 49 46 42 40 37 34 25 20 19 21 21 22 25 28 31 32 32 32 33
78 93 99 98 99 39 16 15 18 24 46 55 26 20 27 22 22 30 34 41 49 51 50 48 46 43 40 34 29 24 25 28 28 25 26 26 28 29 28 28 24 22 34
65 92 98 99 100 42 17 16 18 23 28 18 18 29 24 22 33 37 45 47 48 48 46 45 43 41 37 31 28 30 29 27 26 28 26 26 23 21 19 18 17 17 16
47 78 80 100 100 34 46 42 19 19 18 18 25 25 23 32 37 43 44 46 48 48 47 44 42 38 32 32 32 30 29 29 28 26 25 24 22 21 20 20 20 18 33
70 74 90 100 99 31 55 62 42 20 21 26 26 24 32 37 44 45 48 50 50 50 47 44 40 35 32 32 32 32 32 31 29 27 25 23 22 22 23 23 22 20 34
68 69 97 100 79 42 34 60 59 37 30 27 23 31 36 41 43 48 50 51 50 50 48 46 44 34 33 34 35 34 34 32 28 27 26 25 24 25 25 25 23 23 24
81 90 95 99 74 51 40 40 44 43 29 26 32 37 42 45 49 50 50 50 50 49 48 48 47 41 34 36 38 38 34 31 30 30 30 28 27 26 25 24 24 23 22
88 70 72 88 87 64 59 49 42 40 32 32 36 40 44 48 49 50 49 49 49 49 47 46 47 46 40 38 40 43 37 32 32 31 31 32 30 26 26 27 25 24 22
94 84 86 90 76 89 76 59 44 40 38 36 39 42 45 47 48 48 48 49 50 48 46 44 46 48 48 42 42 44 38 33 34 34 36 33 31 31 37 41 39 36 28
96 98 89 98 97 100 81 82 77 52 42 41 40 42 45 46 48 49 51 51 50 50 48 44 44 46 48 49 46 46 42 35 36 38 37 35 41 46 46 48 53 51 46
96 98 100 96 99 95 89 87 76 77 83 64 55 50 47 47 48 49 48 48 54 48 52 54 50 54 55 66 54 51 43 38 38 41 39 39 45 50 50 53 53 54 51
98 100 90 99 99 77 88 87 83 75 79 78 73 69 58 53 50 49 47 48 60 56 72 79 76 76 75 83 79 67 55 48 43 42 41 43 47 51 52 54 56 56 48
100 99 100 97 100 99 100 98 97 86 80 73 82 83 83 74 74 79 78 68 72 78 81 79 83 93 98 91 94 80 66 49 47 45 48 51 56 56 55 54 56 60 43
100 100 99 100 100 100 100 97 92 88 83 83 96 97 84 83 83 81 82 93 90 97 89 87 98 99 100 100 96 86 91 81 55 68 68 69 59 60 59 56 60 65 53
99 99 98 90 92 96 97 100 96 99 86 98 100 100 99 90 86 80 96 96 82 91 95 100 98 97 74 88 100 96 100 94 94 97 86 85 78 66 58 62 66 67 48

GFSSE_700_rhum_102.txt.gz
RH
54 54 45 42 22 20 14 13 12 12 12 12 23 15 59 83 88 83 71 69 27 11 12 12 13 14 14 13 14 14 13 13 12 11 12 12 11 11 12 13 13 14 16
50 58 49 38 25 21 14 12 12 12 12 12 13 12 67 85 87 86 70 59 14 13 13 14 13 11 11 11 11 11 12 11 11 13 13 16 18 19 18 18 19 22 42
55 52 52 33 26 21 14 13 12 12 12 13 34 14 57 87 84 79 76 37 12 13 13 13 11 11 11 11 12 13 16 21 22 23 20 21 21 21 20 19 19 20 20
53 48 54 36 26 21 14 14 13 12 12 12 14 10 52 84 81 76 74 16 14 14 14 11 11 11 12 14 20 24 24 24 23 23 21 21 20 19 18 18 18 17 18
52 52 53 38 27 22 15 14 13 12 12 12 13 9 53 79 82 81 56 15 15 15 12 12 12 14 19 24 25 25 24 25 25 23 22 22 23 22 23 22 20 19 19
54 49 48 39 28 23 16 15 14 12 12 12 13 9 58 70 74 80 32 16 17 14 12 13 15 21 23 24 26 29 29 28 27 23 24 25 24 23 23 22 20 19 18
60 53 49 43 32 25 17 17 14 13 13 14 15 34 66 70 75 76 20 17 16 14 14 18 23 24 24 25 27 28 28 26 25 24 24 24 25 25 26 25 21 17 16
65 57 56 79 73 33 18 18 15 18 14 19 21 57 66 78 88 44 18 18 16 15 18 24 27 27 27 29 27 26 26 26 24 22 22 23 23 22 21 18 17 18 17
76 66 62 86 86 58 21 19 46 49 38 27 71 84 79 80 77 19 19 18 16 19 25 28 31 32 32 32 31 29 27 26 25 20 22 20 19 17 17 18 20 26 29
77 78 76 98 88 77 28 20 61 68 86 83 92 86 74 90 46 17 21 17 20 26 28 34 37 39 40 38 38 35 29 27 26 22 19 17 15 14 17 26 31 33 33
60 84 98 95 99 90 62 22 75 91 93 98 94 87 95 78 19 20 20 18 24 31 36 39 43 45 45 42 40 37 31 25 21 16 18 16 17 24 28 29 29 28 27
51 86 88 99 100 95 92 31 70 85 97 99 96 86 95 28 16 22 18 22 29 33 39 45 47 47 45 43 40 35 28 20 17 19 22 24 25 26 27 28 26 21 18
65 55 99 99 100 100 100 69 31 100 88 94 99 100 36 17 22 20 21 30 32 36 45 50 49 47 44 41 38 29 24 24 27 25 26 26 26 26 20 18 16 16 15
71 82 55 84 91 99 98 84 18 51 88 71 100 95 36 18 22 20 26 34 38 47 51 50 47 44 43 38 30 28 30 30 27 26 26 25 23 21 20 18 19 19 19
87 77 56 70 99 100 99 82 19 32 66 94 98 90 21 22 22 27 34 38 47 50 47 48 47 44 41 36 32 32 31 30 30 26 25 25 23 22 21 21 21 21 20
88 69 62 50 91 98 100 72 21 21 54 67 92 47 19 25 22 30 33 43 47 46 48 48 47 42 38 34 33 32 32 30 30 28 26 25 25 24 23 23 23 23 22
97 97 83 47 97 100 98 72 19 22 34 48 50 18 22 24 24 32 39 44 45 50 50 49 47 45 38 34 35 36 34 32 30 29 29 26 25 25 25 26 25 24 23
98 98 89 61 84 96 98 89 84 40 24 24 19 22 28 26 33 40 43 47 51 51 50 50 48 48 44 36 36 39 38 35 33 31 31 30 29 30 28 26 26 28 26
99 99 94 87 73 91 92 98 100 76 43 22 26 30 26 35 40 46 47 50 51 50 50 49 48 47 47 46 39 37 37 38 32 33 32 32 34 31 28 32 40 42 43
100 100 96 98 70 73 85 93 94 96 89 52 35 32 34 40 44 47 50 51 50 50 50 50 47 46 48 49 47 43 39 41 40 33 34 36 36 35 40 45 46 48 51
100 99 98 91 81 86 80 58 53 52 57 64 42 38 40 44 47 48 50 49 49 49 51 50 50 47 48 47 56 49 47 44 46 36 36 38 37 38 47 50 51 50 51
100 99 98 98 92 97 88 83 64 55 47 42 40 42 45 48 47 50 50 49 49 50 50 50 50 50 50 62 70 58 57 54 49 41 39 40 40 43 51 55 54 53 53
99 100 100 98 97 95 93 89 93 73 70 60 51 49 50 50 49 49 50 50 49 50 49 52 52 54 66 83 89 88 81 79 66 48 44 44 45 46 51 57 56 56 54
100 97 100 100 99 98 94 91 92 96 92 86 81 68 62 58 58 62 74 58 53 60 61 67 65 61 71 86 98 100 97 97 92 78 65 49 49 65 68 71 69 59 57
100 100 99 98 100 100 100 100 100 97 96 98 98 85 86 83 86 77 97 83 85 84 87 95 96 94 94 95 96 100 100 96 97 95 98 91 71 62 77 84 81 58 59
99 98 98 100 99 99 99 97 99 99 99 96 97 98 98 96 98 84 98 94 88 80 77 84 87 85 97 99 94 87 93 100 99 99 97 97 85 91 94 92 72 59 52

GFSSE_700_rhum_105.txt.gz
RH
60 56 50 53 48 24 20 16 14 12 11 23 22 14 17 23 56 73 76 66 41 13 13 10 10 11 11 11 13 14 14 13 12 11 11 11 11 12 13 13 15 25 30
60 58 56 58 44 27 21 15 13 12 12 13 29 15 33 75 87 80 71 65 23 14 12 11 10 10 11 11 12 12 12 11 11 11 12 16 17 17 17 17 21 35 25
59 63 56 56 41 31 23 14 13 12 12 13 39 13 72 87 90 86 71 59 16 14 12 11 10 10 11 11 12 12 13 15 19 19 18 18 18 18 16 16 26 16 17
61 56 53 57 47 31 22 14 13 13 12 12 30 13 60 87 88 83 77 48 15 14 13 10 10 10 11 13 16 20 21 21 23 23 20 18 17 17 15 15 15 14 14
57 54 53 56 52 33 23 15 14 13 12 12 14 26 44 78 86 79 76 36 16 15 12 11 11 12 14 20 22 21 20 22 24 23 21 21 21 19 17 16 15 15 14
68 62 56 52 49 36 24 16 15 14 13 12 12 44 42 70 84 81 72 26 16 15 12 12 13 17 20 21 21 21 23 24 26 24 24 24 22 21 21 20 17 15 14
68 67 66 58 50 38 28 18 16 15 14 13 18 28 47 69 81 81 65 18 17 14 12 15 19 23 23 23 23 24 26 26 28 25 24 24 24 24 22 17 15 14 14
54 63 66 63 64 49 36 20 17 15 17 33 37 31 44 68 72 84 43 18 17 14 14 19 24 25 25 26 26 24 24 23 24 23 22 22 21 19 17 16 18 22 24
47 67 66 70 72 76 57 26 20 34 48 44 61 58 58 72 72 86 26 19 16 14 16 23 26 27 29 29 28 24 24 22 22 19 19 18 17 16 15 20 26 27 27
66 56 70 87 80 80 80 38 23 55 48 48 85 65 74 74 81 78 23 19 16 15 19 25 29 32 33 35 34 31 28 25 20 22 18 15 14 14 22 28 26 24 22
67 69 59 81 95 87 80 45 26 57 67 74 71 78 91 79 79 61 21 18 16 19 25 29 33 37 38 38 36 33 30 27 20 19 16 15 16 24 27 27 27 20 16
70 70 69 72 92 90 84 63 31 60 76 78 78 94 91 78 86 42 19 19 17 22 30 36 39 41 42 41 39 34 28 21 18 18 20 21 24 25 25 21 17 16 16
74 79 81 80 98 98 99 73 48 63 99 90 92 99 90 92 85 28 18 19 18 25 33 39 43 44 44 43 38 32 26 20 24 26 23 24 24 22 19 18 18 18 18
64 77 78 78 76 85 96 98 76 60 87 98 96 99 94 100 45 20 20 18 23 32 37 42 46 48 45 42 38 29 26 27 24 25 26 24 23 22 20 19 20 20 20
60 77 72 71 86 77 88 100 89 53 94 72 99 99 95 98 36 20 23 21 34 36 38 46 49 47 43 39 33 28 30 28 26 26 25 24 22 22 21 22 22 22 22
54 67 68 69 69 63 52 92 95 51 88 93 98 94 99 84 24 25 22 27 34 39 47 49 48 47 44 37 31 32 31 32 29 26 24 24 24 23 23 23 24 24 24
67 51 62 82 66 56 47 60 99 79 34 94 86 98 99 54 26 25 22 31 37 46 50 51 49 46 44 39 33 32 32 32 29 29 26 26 26 26 27 26 26 26 29
63 54 74 74 74 78 64 61 97 100 38 68 98 88 91 76 24 26 23 36 45 51 50 51 51 49 47 44 39 36 36 35 31 31 29 29 29 31 33 30 29 39 42
75 68 80 88 97 88 99 61 100 96 53 47 78 85 55 79 27 25 32 42 51 52 52 52 51 49 48 48 47 42 38 37 38 34 30 32 32 35 34 34 38 46 51
79 98 95 98 99 97 100 81 99 96 58 52 70 84 83 28 32 28 42 48 50 52 52 51 51 50 48 47 48 48 48 44 50 41 39 33 34 37 36 39 46 49 53
76 66 72 97 99 100 98 74 99 100 92 61 54 40 26 31 32 38 46 50 50 51 51 50 51 51 48 48 47 50 51 52 50 50 48 41 36 38 38 40 44 47 50
79 83 87 100 100 99 94 81 98 100 100 98 79 48 37 38 36 44 47 50 50 51 50 50 51 51 51 51 52 56 57 62 63 61 58 48 40 37 40 42 45 48 51
72 96 100 99 100 100 89 91 100 100 99 97 99 80 54 48 44 46 47 49 50 50 50 51 52 57 62 60 61 62 68 74 79 77 86 58 46 43 45 48 53 57 68
82 100 95 100 100 99 99 99 97 96 100 98 90 81 63 62 59 56 54 53 55 54 60 61 70 81 79 80 79 79 78 87 89 88 98 89 80 73 76 65 77 79 85
86 97 98 100 100 100 99 99 98 99 98 99 99 91 80 72 65 58 64 69 66 75 92 91 94 94 98 98 97 97 99 99 99 91 100 100 100 93 100 90 75 71 84
88 96 100 100 100 100 100 100 100 99 96 98 98 87 95 86 80 89 86 83 99 95 90 88 86 86 99 86 77 77 88 92 82 99 100 97 97 99 91 91 96 90 83

GFSSE_700_rhum_108.txt.gz
RH
64 56 50 50 53 44 25 22 18 13 12 15 15 10 14 19 25 67 72 66 51 13 14 10 10 11 10 11 12 12 12 12 12 11 10 11 12 13 14 18 35 34 72
61 65 59 56 55 48 30 24 17 13 12 12 25 14 17 20 32 71 78 66 37 15 13 10 10 9 9 10 10 10 10 10 11 12 14 17 17 17 17 21 38 31 40
57 61 64 60 56 47 35 26 16 13 12 12 18 21 18 66 83 79 77 66 26 15 13 10 10 10 10 9 9 10 13 17 20 20 18 17 16 14 12 14 15 12 13
58 60 62 61 60 53 36 29 17 13 13 12 39 22 30 83 93 85 77 61 20 16 12 9 10 11 10 10 12 16 19 19 20 20 17 16 15 15 13 13 12 12 11
60 59 58 56 59 56 40 32 18 14 13 13 16 48 23 79 90 88 78 51 19 16 12 10 10 11 12 16 18 19 22 22 23 21 18 18 17 16 13 13 12 11 10
59 57 58 59 56 57 45 37 20 15 14 13 14 46 37 62 87 86 78 45 20 17 12 10 11 15 18 20 19 20 25 24 23 21 21 20 18 18 18 15 12 11 12
65 59 70 70 66 54 49 48 24 16 15 14 13 40 42 51 74 82 82 41 23 17 12 10 13 18 21 21 20 24 27 25 26 25 23 22 22 20 15 12 13 17 19
62 65 61 63 62 66 57 51 31 18 16 20 16 36 52 52 66 73 81 47 21 17 12 12 16 21 23 23 23 24 27 26 25 24 23 22 20 16 13 16 19 23 24
55 55 55 53 65 66 67 58 38 21 24 43 26 42 56 53 71 73 79 38 20 17 13 17 22 24 24 25 24 23 23 25 23 22 21 19 16 14 14 20 22 20 19
53 54 42 46 60 71 63 64 49 23 36 52 38 57 60 55 74 71 81 28 21 16 15 21 26 27 28 26 25 25 22 25 22 20 19 17 15 14 22 24 23 21 15
60 53 56 59 66 84 77 73 71 25 52 58 40 59 72 69 80 79 82 28 21 16 18 24 28 31 33 32 29 28 24 23 23 18 15 14 15 22 24 23 22 16 14
63 61 56 57 68 76 90 89 86 33 51 67 47 70 77 78 82 84 70 25 21 17 20 28 32 34 37 37 36 33 27 22 18 16 17 18 20 23 23 19 17 16 16
59 61 58 53 60 71 78 95 94 59 38 80 68 83 71 82 86 94 54 24 20 17 23 29 34 37 40 39 36 33 27 19 17 18 21 20 22 21 19 18 18 19 19
71 59 58 59 64 65 82 96 99 68 29 89 77 71 68 93 90 98 54 24 21 19 26 36 37 39 43 42 35 30 24 19 22 23 20 22 22 20 20 19 20 20 21
74 70 65 69 83 79 61 72 87 100 52 95 90 83 79 94 84 98 51 24 22 25 30 34 37 46 48 43 39 34 27 24 24 22 24 22 21 21 21 21 21 21 22
84 68 59 57 62 68 70 70 73 70 71 85 100 86 90 99 90 100 77 27 22 29 34 37 45 49 47 43 40 36 32 29 25 25 24 22 23 24 24 23 23 24 25
68 66 71 57 55 67 73 68 53 54 79 71 100 98 99 91 100 97 24 29 26 34 38 43 50 48 47 45 39 34 32 31 30 28 26 24 26 28 28 28 29 27 30
73 63 60 66 54 53 54 60 53 54 49 75 94 98 98 96 94 100 30 51 27 37 40 52 51 50 50 46 42 36 34 34 33 30 27 27 30 31 32 34 32 32 40
69 65 56 55 59 46 55 60 65 59 51 83 85 100 100 95 93 82 73 33 34 42 45 54 52 51 50 49 49 47 41 36 35 33 33 34 30 34 34 34 36 40 46
67 53 54 50 58 53 63 72 82 77 61 63 81 85 99 100 98 61 58 32 39 44 50 52 52 52 51 51 49 48 48 49 49 46 43 40 40 36 34 35 37 40 46
62 58 49 50 81 70 66 93 99 79 83 98 86 55 91 100 99 98 35 32 45 48 52 53 53 52 52 52 49 48 48 48 48 48 50 49 50 48 41 37 39 42 46
48 53 64 64 92 84 97 92 99 97 100 97 93 84 59 68 84 96 36 34 45 49 53 52 52 51 52 53 52 53 52 55 55 55 65 63 73 75 60 42 41 44 46
49 44 69 72 77 81 100 98 98 99 99 100 90 95 91 75 80 44 36 34 45 50 52 52 52 52 54 57 71 77 81 70 71 76 82 85 86 86 61 52 44 48 53
44 58 66 98 93 79 100 100 98 98 98 98 96 96 90 79 51 48 43 44 48 50 55 53 54 56 64 79 83 78 78 94 96 91 91 92 93 97 94 72 60 64 81
74 76 91 98 99 99 98 98 99 100 99 100 99 100 99 93 63 56 49 47 49 50 53 62 73 80 95 92 94 88 88 93 99 99 98 84 98 100 96 96 100 96 96
91 96 94 98 98 98 99 100 100 100 99 98 100 98 99 98 97 90 79 72 81 74 69 82 80 94 94 98 96 98 98 99 94 90 100 87 91 97 99 94 94 96 100

GFSSE_700_rhum_111.txt.gz
RH
59 60 55 49 52 51 38 27 23 17 14 15 26 12 10 16 21 24 66 68 56 18 16 12 9 10 10 10 11 12 12 12 12 10 10 11 12 13 16 32 33 62 54
59 62 62 60 56 52 44 32 27 18 14 13 16 18 12 15 20 44 68 66 47 18 15 13 8 8 9 10 11 11 10 10 10 11 13 15 15 18 21 31 33 18 20
56 57 57 61 60 55 48 36 29 20 14 13 14 24 16 16 22 66 73 66 48 19 17 12 7 7 9 10 10 11 12 15 17 17 16 15 13 12 12 14 10 10 9
59 61 61 59 60 60 54 40 32 20 15 13 21 23 19 33 78 79 78 70 45 20 18 12 8 8 8 10 11 14 19 20 20 18 15 12 12 12 12 11 10 9 9
60 59 56 58 58 58 57 45 35 21 16 14 25 49 21 61 87 87 82 71 42 22 19 12 8 8 9 14 20 20 20 22 22 20 18 16 14 13 12 12 10 9 9
55 57 57 54 55 61 60 50 41 24 16 15 14 48 44 52 82 87 84 74 38 22 19 12 9 10 13 19 22 21 22 23 22 22 21 18 18 18 15 11 10 12 14
76 72 61 60 69 68 58 54 48 29 19 16 15 16 50 40 71 88 88 76 40 24 19 12 10 13 16 18 21 23 25 25 24 24 23 22 22 18 13 13 13 17 20
72 73 72 64 59 63 66 60 52 41 22 18 24 14 33 47 64 84 92 79 47 26 19 12 12 17 20 19 21 22 24 25 25 25 23 22 20 16 13 15 20 19 17
78 67 59 63 59 56 60 63 62 51 29 19 41 22 31 50 54 81 90 83 44 25 19 13 14 20 22 20 23 24 24 24 24 23 22 19 15 12 12 17 21 20 16
76 78 76 57 53 56 52 60 62 60 45 23 50 42 39 55 45 82 87 85 44 22 18 14 17 23 23 22 23 24 24 23 22 20 18 16 13 11 15 22 21 19 14
93 82 76 71 58 52 47 52 70 65 59 28 61 64 54 69 43 70 84 83 47 23 18 15 19 24 25 25 25 25 25 24 21 20 16 13 12 14 20 21 18 15 15
78 88 73 67 65 62 66 67 83 82 75 35 50 63 67 86 55 58 78 79 50 24 19 17 22 25 27 28 28 28 28 25 20 16 15 16 16 20 21 19 17 17 17
73 78 84 80 68 58 63 68 82 100 91 42 47 59 61 88 72 54 77 81 52 25 20 19 24 28 30 30 30 30 28 25 20 17 18 20 20 21 20 19 18 18 18
68 77 79 83 64 61 56 63 70 93 100 56 47 63 72 65 85 69 78 82 53 26 20 22 28 32 36 37 35 33 27 24 22 22 23 21 21 21 20 20 20 20 20
67 66 66 71 75 55 62 70 71 74 81 78 49 78 84 84 84 78 84 88 61 25 21 22 27 34 41 43 40 37 30 26 26 25 23 22 22 22 22 21 22 22 23
61 64 61 66 78 75 61 80 75 80 90 88 56 83 94 88 65 75 98 90 49 30 23 24 29 38 48 47 42 39 34 29 28 26 24 24 23 25 26 25 24 25 26
41 56 62 60 66 58 54 56 60 63 70 66 66 72 94 86 78 87 99 96 60 27 29 26 32 38 46 44 45 41 37 33 29 28 27 27 26 29 28 29 31 31 29
45 45 54 62 69 60 57 59 58 52 54 62 52 55 58 94 96 93 99 95 51 31 31 32 35 42 48 46 45 45 40 34 32 30 30 30 28 30 31 32 34 34 33
46 49 52 63 53 54 52 58 56 52 52 51 59 54 55 77 97 99 100 100 68 35 36 40 39 48 51 49 51 49 47 43 37 33 34 35 36 35 32 32 33 35 37
46 50 60 73 70 64 54 50 46 52 49 48 49 62 56 64 99 100 99 100 82 38 44 42 43 53 52 52 53 51 50 49 48 48 48 47 48 45 45 43 40 36 37
39 52 51 62 62 60 50 48 40 46 50 55 58 78 69 63 92 100 100 98 67 54 68 52 50 55 54 53 52 52 51 48 48 48 48 49 54 55 56 68 66 52 40
44 52 58 54 59 55 48 44 43 36 40 48 85 85 87 76 87 97 96 98 96 82 52 58 58 55 55 53 52 53 53 52 52 53 62 67 70 70 79 83 85 66 51
44 56 56 55 52 42 50 65 73 55 49 99 92 93 97 92 87 100 100 99 62 49 50 53 53 55 54 53 53 56 56 54 65 76 74 83 83 85 90 91 90 78 57
51 54 54 48 46 46 54 67 81 91 96 98 98 97 94 88 99 99 99 96 95 44 45 52 54 54 53 53 56 58 68 76 84 87 83 91 98 94 92 97 100 91 63
47 46 46 42 44 43 58 83 79 98 98 99 99 98 99 99 98 98 97 99 68 50 50 53 53 53 53 56 62 67 77 85 89 96 84 99 99 100 97 100 100 100 84
64 64 61 49 40 37 64 98 92 87 98 98 99 98 97 98 98 98 96 86 58 56 52 63 65 68 69 68 74 84 90 94 100 99 97 99 98 97 97 100 92 100 97

GFSSE_700_rhum_114.txt.gz
RH
58 60 56 55 52 50 49 35 26 22 17 16 22 28 10 12 20 23 53 68 59 26 20 21 11 8 8 9 12 12 12 12 11 10 10 10 12 14 29 32 44 20 28
55 62 65 62 61 56 51 42 31 24 17 15 15 19 14 13 17 22 66 68 57 33 18 22 9 7 8 9 10 10 10 10 10 11 13 14 14 16 20 26 12 11 10
61 59 65 64 62 60 56 48 37 27 18 15 14 18 20 15 17 25 70 71 55 36 26 23 9 7 8 9 9 10 10 12 16 16 14 12 11 12 12 10 9 9 9
65 70 73 66 66 62 60 54 43 32 20 16 17 19 24 18 27 66 75 73 55 35 31 28 10 7 8 9 9 12 16 18 18 16 12 12 12 11 10 10 9 9 8
61 61 59 60 63 65 63 57 47 36 23 22 39 49 39 25 72 82 83 76 57 31 28 30 11 8 8 10 14 16 18 19 19 17 15 14 12 12 11 10 10 10 11
69 57 56 57 55 56 66 62 52 42 26 19 28 55 53 39 69 80 88 81 58 32 27 28 12 8 10 14 17 18 20 22 21 20 18 16 15 16 13 10 12 14 16
78 72 68 60 61 68 66 64 57 50 32 20 20 32 55 45 68 76 94 85 59 33 26 26 14 10 14 16 17 18 21 24 23 24 22 21 20 17 12 12 15 18 17
87 84 79 68 58 60 66 66 64 57 47 25 22 27 34 50 58 84 91 89 65 38 28 22 15 10 16 18 17 20 23 25 25 25 23 22 20 16 12 14 19 17 15
82 78 85 69 65 58 56 58 60 60 62 46 22 25 36 57 56 79 91 94 78 47 29 22 14 11 16 18 17 18 21 22 23 23 22 20 17 13 11 17 20 19 14
81 84 87 79 69 62 63 58 56 61 56 61 40 21 37 45 63 65 82 89 85 56 34 21 14 12 15 18 17 18 18 19 19 19 19 17 14 11 12 20 21 18 15
76 77 83 90 90 68 60 61 63 68 74 66 57 34 52 42 62 62 82 91 86 67 39 24 15 14 17 19 20 20 20 18 17 16 16 14 13 13 17 20 19 16 16
67 81 87 89 80 89 63 60 63 77 83 79 72 39 60 49 53 69 71 95 92 71 44 25 17 15 18 20 22 22 24 23 20 18 15 14 15 17 19 20 18 17 17
54 54 76 89 81 87 83 61 72 81 88 100 92 43 60 74 58 74 58 73 87 77 51 28 19 16 18 23 24 28 26 26 22 18 16 17 18 20 21 20 20 19 19
46 65 64 70 81 84 85 84 62 60 79 75 96 52 62 86 92 85 75 64 80 85 38 26 19 18 20 24 26 28 29 26 23 20 19 20 20 21 21 21 20 21 21
41 62 72 73 74 85 77 59 62 54 58 72 91 56 55 80 81 77 91 68 81 94 36 26 21 19 23 28 29 30 29 26 24 23 23 21 22 23 22 22 23 24 24
40 42 64 68 72 78 80 72 66 58 53 63 88 88 82 74 79 77 89 77 87 97 35 28 26 29 27 28 31 36 33 30 28 26 25 25 26 25 26 26 26 27 27
40 39 43 64 64 62 68 82 67 66 70 72 80 80 79 71 92 90 93 87 84 99 38 29 32 32 32 33 35 40 38 33 31 29 28 29 28 28 31 31 30 32 33
39 40 40 52 67 63 60 64 65 58 52 48 52 55 58 58 64 88 99 94 76 99 60 30 31 37 41 38 46 44 45 40 35 32 32 32 34 35 32 32 33 34 34
17 38 40 40 44 55 64 53 57 60 56 54 50 51 49 49 56 72 68 76 79 95 94 34 35 38 46 47 52 50 50 48 45 36 34 33 35 38 40 39 38 37 36
10 17 34 41 41 51 56 70 64 56 53 51 48 42 44 48 45 49 54 67 90 100 100 45 44 43 45 50 53 52 51 51 50 48 47 48 49 49 51 49 49 51 56
13 12 23 39 44 42 49 48 61 54 52 48 44 40 38 44 49 49 59 61 91 94 100 76 52 57 50 52 56 53 53 53 52 48 48 49 50 53 61 59 60 74 79
20 14 14 34 51 55 46 49 47 56 46 42 42 39 38 48 49 44 61 76 87 97 99 94 76 62 57 58 57 55 54 53 53 52 53 54 64 74 79 74 84 88 86
24 22 19 26 46 53 52 48 44 44 36 37 32 34 39 57 54 90 90 84 100 100 98 100 97 69 61 63 64 63 56 54 54 54 57 62 72 82 87 87 92 89 95
33 29 25 29 48 53 51 50 44 36 35 41 44 61 58 90 86 98 99 96 99 97 97 100 99 90 70 65 62 58 56 54 57 56 65 73 76 85 90 87 98 99 100
42 32 43 53 54 61 59 47 40 40 44 64 84 82 91 96 94 95 94 99 94 100 99 96 86 72 66 72 69 58 57 57 61 64 72 69 77 92 98 100 100 99 99
49 45 60 56 56 54 49 42 44 43 46 78 87 82 97 94 99 99 99 97 99 99 97 99 89 72 66 62 59 60 66 71 78 76 89 91 90 95 98 95 99 99 98

GFSSE_700_rhum_117.txt.gz
RH
60 59 61 57 54 54 50 42 30 24 19 16 19 26 12 14 24 28 46 67 54 25 26 30 16 7 7 8 9 9 10 11 10 9 9 10 12 28 26 21 13 20 9
56 60 62 62 60 58 55 48 37 28 20 16 16 18 16 13 20 25 64 68 53 26 26 27 16 7 7 8 9 9 9 9 9 11 13 14 12 14 16 10 9 8 8
56 63 63 69 65 60 57 54 45 34 24 17 16 18 21 16 17 24 72 70 56 24 26 32 17 7 7 8 8 8 9 10 14 15 12 10 11 10 9 9 8 8 7
74 76 77 75 68 65 62 58 52 40 28 19 19 19 23 19 20 37 79 74 62 38 30 32 20 7 7 8 8 10 13 15 16 13 11 10 11 10 10 9 8 8 9
67 63 66 66 68 67 66 63 56 48 38 22 26 37 40 22 57 78 84 78 63 41 30 31 24 7 7 9 11 13 15 17 16 14 12 12 11 12 11 9 10 12 12
62 63 61 59 60 60 63 67 62 53 40 25 28 67 56 36 51 83 87 84 68 40 30 27 27 8 8 11 14 15 16 19 18 16 15 14 15 14 11 11 13 16 16
68 71 61 56 57 61 67 69 67 60 51 33 21 28 54 52 66 82 88 87 75 44 32 28 25 10 10 12 14 15 17 20 19 19 20 20 19 17 12 13 16 16 14
58 80 76 68 62 61 65 70 69 66 62 49 29 22 23 44 62 80 85 93 84 55 36 28 25 11 12 15 15 15 18 21 22 23 22 20 19 16 12 12 17 17 14
72 78 83 80 73 64 55 58 59 62 65 72 53 29 21 35 50 70 89 97 92 65 40 29 24 13 12 17 17 17 18 20 22 22 22 20 17 13 11 13 19 19 15
81 78 76 79 82 69 70 65 67 63 61 58 62 48 22 28 47 56 74 93 96 79 43 30 24 15 13 16 18 18 17 18 18 19 18 17 15 12 11 14 18 17 15
86 81 77 81 82 80 66 70 76 80 78 76 72 64 43 33 38 61 64 84 92 89 54 34 23 18 13 16 17 18 18 18 17 16 16 15 13 12 13 17 19 17 16
58 74 75 80 89 88 86 82 69 64 71 77 74 78 59 48 48 45 62 74 94 95 70 39 25 20 16 17 19 19 19 19 19 17 16 14 14 14 16 20 19 18 18
44 49 63 72 77 80 85 88 77 63 72 86 77 89 85 44 65 54 59 67 88 100 86 55 29 22 20 20 22 23 25 23 21 19 16 15 16 18 19 21 20 20 19
42 42 49 64 75 81 79 87 75 61 70 84 91 94 94 65 60 88 76 77 73 88 96 67 31 24 22 25 25 25 27 28 26 22 19 18 20 20 22 22 21 22 21
36 42 41 44 56 68 72 74 84 66 57 56 76 76 88 75 61 88 94 93 90 76 96 89 35 27 26 31 30 29 30 30 30 27 23 23 23 23 24 24 23 24 25
10 31 41 41 47 65 68 68 73 65 59 56 52 60 75 81 64 73 83 91 95 81 86 100 51 30 32 34 36 34 33 35 33 31 28 27 26 27 27 26 27 28 28
8 11 27 41 45 60 72 71 69 70 61 56 57 71 84 80 84 81 80 80 89 99 86 97 81 32 34 35 43 38 37 38 37 35 30 30 30 31 32 31 31 32 32
7 8 15 32 41 50 66 73 68 64 74 65 62 65 66 64 63 69 72 73 88 95 100 92 100 36 38 41 48 48 50 41 41 40 33 32 33 36 36 36 33 33 33
14 8 8 22 38 43 58 68 68 67 73 62 55 52 48 47 51 50 51 58 63 74 85 92 98 90 43 50 55 54 55 49 46 46 42 37 36 37 40 43 43 42 43
13 17 10 10 32 41 44 70 69 66 62 57 53 50 48 47 44 41 39 47 56 60 65 75 82 98 68 67 59 56 58 54 52 50 50 50 50 50 52 55 58 54 53
19 21 17 10 15 39 42 44 54 55 52 51 56 54 52 49 43 38 35 35 44 45 50 63 94 95 97 77 65 60 59 58 54 53 53 52 51 53 55 58 72 72 67
19 18 18 16 11 25 42 43 42 49 64 65 58 50 48 46 43 39 34 33 44 46 46 54 84 91 98 95 79 66 61 60 56 54 55 55 55 57 58 68 82 81 79
24 21 22 17 16 16 38 46 45 52 54 51 57 52 43 37 32 27 25 34 39 47 59 69 83 86 98 100 96 90 72 65 58 57 57 59 60 63 67 77 78 83 89
33 19 21 25 20 15 35 54 47 42 44 47 44 38 36 30 24 31 47 71 82 88 89 78 80 92 99 98 97 94 86 77 64 58 58 60 70 72 78 69 73 78 89
41 23 28 28 24 19 38 54 63 53 44 41 41 37 39 43 74 72 58 86 93 96 92 91 93 99 100 100 100 98 95 87 68 65 65 74 81 85 80 84 93 97 100
60 38 32 26 26 37 48 56 57 55 49 44 38 38 45 71 93 77 92 88 89 96 97 100 96 100 98 99 100 99 97 97 82 88 94 99 100 92 91 98 99 90 94